Wetterdaten: Mittwoch, 04.01.2017
Datum Zeit Temp. A. Feuchte A. Luftdruck Regen Wind Richtung Richtung Sonnenschein ET UV Solar Taupunkt Windchill Windben Empfang
04.01.2017 00:00 -0,7 C 81 % 1020,0 hPa 0,0 l/m 15,5 km/h (3 Bft) SW 236 0 min 0,000 mm 0,0 UV-I 0 W/m -3,5 C -8,1 C 25,7 km/h (4 Bft) 97,87 %
04.01.2017 00:02 -0,7 C 81 % 1019,9 hPa 0,0 l/m 16,7 km/h (3 Bft) SW 220 0 min 0,000 mm 0,0 UV-I 0 W/m -3,5 C -8,8 C 25,7 km/h (4 Bft) 100,00 %
04.01.2017 00:04 -0,7 C 81 % 1019,8 hPa 0,0 l/m 17,0 km/h (3 Bft) S-SW 197 0 min 0,000 mm 0,0 UV-I 0 W/m -3,5 C -9,0 C 25,7 km/h (4 Bft) 100,00 %
04.01.2017 00:06 -0,7 C 81 % 1019,8 hPa 0,0 l/m 15,7 km/h (3 Bft) W-SW 248 0 min 0,000 mm 0,0 UV-I 0 W/m -3,5 C -8,3 C 22,5 km/h (4 Bft) 97,87 %
04.01.2017 00:08 -0,7 C 81 % 1019,8 hPa 0,0 l/m 15,5 km/h (3 Bft) W-SW 238 0 min 0,000 mm 0,0 UV-I 0 W/m -3,5 C -8,1 C 24,1 km/h (4 Bft) 97,87 %
04.01.2017 00:10 -0,7 C 81 % 1019,8 hPa 0,0 l/m 16,7 km/h (3 Bft) SW 229 0 min 0,000 mm 0,0 UV-I 0 W/m -3,5 C -8,8 C 24,1 km/h (4 Bft) 100,00 %
04.01.2017 00:12 -0,7 C 81 % 1019,8 hPa 0,0 l/m 16,9 km/h (3 Bft) W-SW 238 0 min 0,000 mm 0,0 UV-I 0 W/m -3,5 C -8,9 C 22,5 km/h (4 Bft) 100,00 %
04.01.2017 00:14 -0,7 C 81 % 1019,8 hPa 0,0 l/m 15,2 km/h (3 Bft) W-SW 249 0 min 0,000 mm 0,0 UV-I 0 W/m -3,5 C -8,0 C 24,1 km/h (4 Bft) 95,74 %
04.01.2017 00:16 -0,7 C 81 % 1019,7 hPa 0,0 l/m 14,3 km/h (3 Bft) SW 231 0 min 0,000 mm 0,0 UV-I 0 W/m -3,5 C -7,4 C 20,9 km/h (4 Bft) 97,87 %
04.01.2017 00:18 -0,7 C 81 % 1019,7 hPa 0,0 l/m 13,7 km/h (3 Bft) SW 231 0 min 0,000 mm 0,0 UV-I 0 W/m -3,5 C -7,0 C 22,5 km/h (4 Bft) 96,00 %
04.01.2017 00:20 -0,7 C 81 % 1019,6 hPa 0,0 l/m 14,6 km/h (3 Bft) W 260 0 min 0,000 mm 0,0 UV-I 0 W/m -3,5 C -7,6 C 27,4 km/h (4 Bft) 100,00 %
04.01.2017 00:22 -0,7 C 80 % 1019,5 hPa 0,0 l/m 14,0 km/h (3 Bft) SW 231 0 min 0,000 mm 0,0 UV-I 0 W/m -3,7 C -7,2 C 20,9 km/h (4 Bft) 97,87 %
04.01.2017 00:24 -0,7 C 80 % 1019,4 hPa 0,0 l/m 15,5 km/h (3 Bft) SW 229 0 min 0,000 mm 0,0 UV-I 0 W/m -3,7 C -8,1 C 19,3 km/h (3 Bft) 97,56 %
04.01.2017 00:26 -0,7 C 80 % 1019,4 hPa 0,0 l/m 15,5 km/h (3 Bft) W-SW 252 0 min 0,000 mm 0,0 UV-I 0 W/m -3,7 C -8,1 C 20,9 km/h (4 Bft) 100,00 %
04.01.2017 00:28 -0,7 C 80 % 1019,4 hPa 0,0 l/m 14,0 km/h (3 Bft) W-SW 256 0 min 0,000 mm 0,0 UV-I 0 W/m -3,7 C -7,2 C 20,9 km/h (4 Bft) 100,00 %
04.01.2017 00:30 -0,6 C 80 % 1019,3 hPa 0,0 l/m 16,0 km/h (3 Bft) W-SW 242 0 min 0,000 mm 0,0 UV-I 0 W/m -3,6 C -8,3 C 22,5 km/h (4 Bft) 100,00 %
04.01.2017 00:32 -0,6 C 80 % 1019,3 hPa 0,0 l/m 15,3 km/h (3 Bft) SW 227 0 min 0,000 mm 0,0 UV-I 0 W/m -3,6 C -7,9 C 22,5 km/h (4 Bft) 97,87 %
04.01.2017 00:34 -0,5 C 80 % 1019,3 hPa 0,0 l/m 19,1 km/h (3 Bft) SW 234 0 min 0,000 mm 0,0 UV-I 0 W/m -3,5 C -9,8 C 27,4 km/h (4 Bft) 100,00 %
04.01.2017 00:36 -0,5 C 80 % 1019,2 hPa 0,0 l/m 16,7 km/h (3 Bft) SW 221 0 min 0,000 mm 0,0 UV-I 0 W/m -3,5 C -8,6 C 27,4 km/h (4 Bft) 100,00 %
04.01.2017 00:38 -0,4 C 79 % 1019,1 hPa 0,0 l/m 17,5 km/h (3 Bft) W-SW 250 0 min 0,000 mm 0,0 UV-I 0 W/m -3,6 C -8,9 C 25,7 km/h (4 Bft) 100,00 %
04.01.2017 00:40 -0,4 C 79 % 1019,1 hPa 0,0 l/m 17,7 km/h (3 Bft) W-SW 244 0 min 0,000 mm 0,0 UV-I 0 W/m -3,6 C -9,0 C 25,7 km/h (4 Bft) 100,00 %
04.01.2017 00:42 -0,4 C 79 % 1019,0 hPa 0,0 l/m 20,5 km/h (4 Bft) W-SW 254 0 min 0,000 mm 0,0 UV-I 0 W/m -3,6 C -10,4 C 32,2 km/h (5 Bft) 95,74 %
04.01.2017 00:44 -0,4 C 79 % 1019,0 hPa 0,0 l/m 16,9 km/h (3 Bft) SW 227 0 min 0,000 mm 0,0 UV-I 0 W/m -3,6 C -8,6 C 27,4 km/h (4 Bft) 95,74 %
04.01.2017 00:46 -0,3 C 79 % 1018,9 hPa 0,0 l/m 20,1 km/h (4 Bft) SW 234 0 min 0,000 mm 0,0 UV-I 0 W/m -3,5 C -10,1 C 30,6 km/h (5 Bft) 100,00 %
04.01.2017 00:48 -0,3 C 79 % 1018,8 hPa 0,0 l/m 20,0 km/h (4 Bft) SW 221 0 min 0,000 mm 0,0 UV-I 0 W/m -3,5 C -10,0 C 29,0 km/h (5 Bft) 100,00 %
04.01.2017 00:50 -0,3 C 79 % 1018,8 hPa 0,0 l/m 15,4 km/h (3 Bft) W-SW 249 0 min 0,000 mm 0,0 UV-I 0 W/m -3,5 C -7,6 C 22,5 km/h (4 Bft) 95,74 %
04.01.2017 00:52 -0,3 C 79 % 1018,7 hPa 0,0 l/m 14,0 km/h (3 Bft) W-SW 251 0 min 0,000 mm 0,0 UV-I 0 W/m -3,5 C -6,7 C 19,3 km/h (3 Bft) 100,00 %
04.01.2017 00:54 -0,3 C 79 % 1018,7 hPa 0,0 l/m 16,9 km/h (3 Bft) W-SW 242 0 min 0,000 mm 0,0 UV-I 0 W/m -3,5 C -8,4 C 27,4 km/h (4 Bft) 100,00 %
04.01.2017 00:56 -0,3 C 79 % 1018,7 hPa 0,0 l/m 20,6 km/h (4 Bft) W-SW 253 0 min 0,000 mm 0,0 UV-I 0 W/m -3,5 C -10,3 C 27,4 km/h (4 Bft) 97,87 %
04.01.2017 00:58 -0,3 C 79 % 1018,6 hPa 0,0 l/m 17,5 km/h (3 Bft) S-SW 200 0 min 0,000 mm 0,0 UV-I 0 W/m -3,5 C -8,8 C 27,4 km/h (4 Bft) 100,00 %
04.01.2017 01:00 -0,4 C 79 % 1018,6 hPa 0,0 l/m 19,6 km/h (3 Bft) SW 227 0 min 0,025 mm 0,0 UV-I 0 W/m -3,6 C -10,0 C 29,0 km/h (5 Bft) 100,00 %
04.01.2017 01:02 -0,4 C 79 % 1018,5 hPa 0,0 l/m 17,9 km/h (3 Bft) SW 227 0 min 0,000 mm 0,0 UV-I 0 W/m -3,6 C -9,1 C 27,4 km/h (4 Bft) 100,00 %
04.01.2017 01:04 -0,4 C 79 % 1018,5 hPa 0,0 l/m 18,7 km/h (3 Bft) SW 226 0 min 0,000 mm 0,0 UV-I 0 W/m -3,6 C -9,5 C 30,6 km/h (5 Bft) 100,00 %
04.01.2017 01:06 -0,4 C 79 % 1018,5 hPa 0,0 l/m 21,4 km/h (4 Bft) SW 224 0 min 0,000 mm 0,0 UV-I 0 W/m -3,6 C -10,8 C 33,8 km/h (5 Bft) 97,87 %
04.01.2017 01:08 -0,4 C 79 % 1018,5 hPa 0,0 l/m 21,4 km/h (4 Bft) W-SW 257 0 min 0,000 mm 0,0 UV-I 0 W/m -3,6 C -10,8 C 29,0 km/h (5 Bft) 96,00 %
04.01.2017 01:10 -0,4 C 79 % 1018,5 hPa 0,0 l/m 22,2 km/h (4 Bft) SW 219 0 min 0,000 mm 0,0 UV-I 0 W/m -3,6 C -11,1 C 30,6 km/h (5 Bft) 97,62 %
04.01.2017 01:12 -0,4 C 79 % 1018,5 hPa 0,0 l/m 20,6 km/h (4 Bft) W-SW 238 0 min 0,000 mm 0,0 UV-I 0 W/m -3,6 C -10,4 C 29,0 km/h (5 Bft) 98,28 %
04.01.2017 01:14 -0,4 C 79 % 1018,5 hPa 0,0 l/m 19,1 km/h (3 Bft) W-SW 239 0 min 0,000 mm 0,0 UV-I 0 W/m -3,6 C -9,7 C 27,4 km/h (4 Bft) 97,87 %
04.01.2017 01:16 -0,4 C 79 % 1018,4 hPa 0,0 l/m 21,0 km/h (4 Bft) W-SW 239 0 min 0,000 mm 0,0 UV-I 0 W/m -3,6 C -10,6 C 30,6 km/h (5 Bft) 97,30 %
04.01.2017 01:18 -0,4 C 79 % 1018,4 hPa 0,0 l/m 22,0 km/h (4 Bft) SW 233 0 min 0,000 mm 0,0 UV-I 0 W/m -3,6 C -11,1 C 30,6 km/h (5 Bft) 97,87 %
04.01.2017 01:20 -0,4 C 79 % 1018,4 hPa 0,0 l/m 23,1 km/h (4 Bft) W-SW 240 0 min 0,000 mm 0,0 UV-I 0 W/m -3,6 C -11,5 C 32,2 km/h (5 Bft) 96,00 %
04.01.2017 01:22 -0,4 C 79 % 1018,4 hPa 0,0 l/m 20,2 km/h (4 Bft) SW 227 0 min 0,000 mm 0,0 UV-I 0 W/m -3,6 C -10,2 C 30,6 km/h (5 Bft) 98,00 %
04.01.2017 01:24 -0,4 C 79 % 1018,4 hPa 0,0 l/m 16,2 km/h (3 Bft) W-SW 242 0 min 0,000 mm 0,0 UV-I 0 W/m -3,6 C -8,2 C 24,1 km/h (4 Bft) 95,83 %
04.01.2017 01:26 -0,4 C 79 % 1018,4 hPa 0,0 l/m 18,6 km/h (3 Bft) S-SW 207 0 min 0,000 mm 0,0 UV-I 0 W/m -3,6 C -9,5 C 27,4 km/h (4 Bft) 97,87 %
04.01.2017 01:28 -0,4 C 79 % 1018,3 hPa 0,0 l/m 16,5 km/h (3 Bft) W-SW 241 0 min 0,000 mm 0,0 UV-I 0 W/m -3,6 C -8,3 C 29,0 km/h (5 Bft) 97,87 %
04.01.2017 01:30 -0,4 C 79 % 1018,2 hPa 0,0 l/m 16,6 km/h (3 Bft) SW 222 0 min 0,000 mm 0,0 UV-I 0 W/m -3,6 C -8,4 C 22,5 km/h (4 Bft) 97,87 %
04.01.2017 01:32 -0,4 C 79 % 1018,2 hPa 0,0 l/m 15,3 km/h (3 Bft) W-SW 242 0 min 0,000 mm 0,0 UV-I 0 W/m -3,6 C -7,6 C 22,5 km/h (4 Bft) 93,62 %
04.01.2017 01:34 -0,4 C 79 % 1018,2 hPa 0,0 l/m 16,1 km/h (3 Bft) S 182 0 min 0,000 mm 0,0 UV-I 0 W/m -3,6 C -8,1 C 22,5 km/h (4 Bft) 97,92 %
04.01.2017 01:36 -0,4 C 79 % 1018,2 hPa 0,0 l/m 13,7 km/h (3 Bft) S-SW 210 0 min 0,000 mm 0,0 UV-I 0 W/m -3,6 C -6,6 C 20,9 km/h (4 Bft) 97,14 %
04.01.2017 01:38 -0,4 C 79 % 1018,2 hPa 0,0 l/m 17,6 km/h (3 Bft) SW 235 0 min 0,000 mm 0,0 UV-I 0 W/m -3,6 C -8,9 C 29,0 km/h (5 Bft) 98,00 %
04.01.2017 01:40 -0,5 C 79 % 1018,2 hPa 0,0 l/m 13,5 km/h (3 Bft) W-SW 242 0 min 0,000 mm 0,0 UV-I 0 W/m -3,7 C -6,6 C 19,3 km/h (3 Bft) 96,00 %
04.01.2017 01:42 -0,4 C 79 % 1018,1 hPa 0,0 l/m 16,7 km/h (3 Bft) W-SW 251 0 min 0,000 mm 0,0 UV-I 0 W/m -3,6 C -8,5 C 25,7 km/h (4 Bft) 93,62 %
04.01.2017 01:44 -0,4 C 79 % 1018,0 hPa 0,0 l/m 12,3 km/h (3 Bft) W-SW 248 0 min 0,000 mm 0,0 UV-I 0 W/m -3,6 C -5,7 C 19,3 km/h (3 Bft) 100,00 %
04.01.2017 01:46 -0,4 C 79 % 1018,2 hPa 0,0 l/m 13,8 km/h (3 Bft) SW 234 0 min 0,000 mm 0,0 UV-I 0 W/m -3,6 C -6,7 C 20,9 km/h (4 Bft) 97,87 %
04.01.2017 01:48 -0,4 C 79 % 1018,2 hPa 0,0 l/m 12,6 km/h (3 Bft) SW 215 0 min 0,000 mm 0,0 UV-I 0 W/m -3,6 C -5,9 C 19,3 km/h (3 Bft) 95,74 %
04.01.2017 01:50 -0,4 C 79 % 1018,1 hPa 0,0 l/m 12,1 km/h (2 Bft) SW 225 0 min 0,000 mm 0,0 UV-I 0 W/m -3,6 C -5,5 C 17,7 km/h (3 Bft) 100,00 %
04.01.2017 01:52 -0,4 C 79 % 1018,2 hPa 0,0 l/m 9,9 km/h (2 Bft) W-SW 237 0 min 0,000 mm 0,0 UV-I 0 W/m -3,6 C -3,8 C 16,1 km/h (3 Bft) 97,87 %
04.01.2017 01:54 -0,4 C 80 % 1018,0 hPa 0,0 l/m 10,0 km/h (2 Bft) W 259 0 min 0,000 mm 0,0 UV-I 0 W/m -3,4 C -3,9 C 14,5 km/h (3 Bft) 97,92 %
04.01.2017 01:56 -0,4 C 80 % 1018,0 hPa 0,0 l/m 10,3 km/h (2 Bft) W-SW 241 0 min 0,000 mm 0,0 UV-I 0 W/m -3,4 C -4,1 C 16,1 km/h (3 Bft) 97,87 %
04.01.2017 01:58 -0,4 C 79 % 1018,0 hPa 0,0 l/m 11,8 km/h (2 Bft) W 270 0 min 0,000 mm 0,0 UV-I 0 W/m -3,6 C -5,3 C 20,9 km/h (4 Bft) 100,00 %
04.01.2017 02:00 -0,3 C 79 % 1017,9 hPa 0,0 l/m 12,1 km/h (2 Bft) W-SW 242 0 min 0,026 mm 0,0 UV-I 0 W/m -3,5 C -5,4 C 17,7 km/h (3 Bft) 100,00 %
04.01.2017 02:02 -0,3 C 79 % 1017,9 hPa 0,0 l/m 13,0 km/h (3 Bft) W-SW 250 0 min 0,000 mm 0,0 UV-I 0 W/m -3,5 C -6,1 C 22,5 km/h (4 Bft) 100,00 %
04.01.2017 02:04 -0,3 C 78 % 1017,8 hPa 0,0 l/m 15,7 km/h (3 Bft) W-SW 240 0 min 0,000 mm 0,0 UV-I 0 W/m -3,7 C -7,8 C 22,5 km/h (4 Bft) 97,87 %
04.01.2017 02:06 -0,2 C 77 % 1017,8 hPa 0,0 l/m 17,3 km/h (3 Bft) W-SW 253 0 min 0,000 mm 0,0 UV-I 0 W/m -3,7 C -8,5 C 27,4 km/h (4 Bft) 97,87 %
04.01.2017 02:08 -0,1 C 76 % 1017,8 hPa 0,0 l/m 15,8 km/h (3 Bft) SW 231 0 min 0,000 mm 0,0 UV-I 0 W/m -3,8 C -7,6 C 22,5 km/h (4 Bft) 100,00 %
04.01.2017 02:10 0,0 C 75 % 1017,8 hPa 0,0 l/m 17,2 km/h (3 Bft) W 263 0 min 0,000 mm 0,0 UV-I 0 W/m -3,9 C -8,2 C 29,0 km/h (5 Bft) 100,00 %
04.01.2017 02:12 0,2 C 75 % 1017,8 hPa 0,0 l/m 19,5 km/h (3 Bft) W 262 0 min 0,000 mm 0,0 UV-I 0 W/m -3,7 C -9,1 C 30,6 km/h (5 Bft) 100,00 %
04.01.2017 02:14 0,3 C 74 % 1017,8 hPa 0,0 l/m 17,9 km/h (3 Bft) W 261 0 min 0,000 mm 0,0 UV-I 0 W/m -3,8 C -8,2 C 30,6 km/h (5 Bft) 97,87 %
04.01.2017 02:16 0,4 C 72 % 1017,9 hPa 0,0 l/m 22,5 km/h (4 Bft) W 265 0 min 0,000 mm 0,0 UV-I 0 W/m -4,0 C -10,2 C 32,2 km/h (5 Bft) 100,00 %
04.01.2017 02:19 0,7 C 72 % 1017,8 hPa 0,0 l/m 20,1 km/h (4 Bft) W 261 0 min 0,000 mm 0,0 UV-I 0 W/m -3,8 C -8,8 C 35,4 km/h (5 Bft) 100,00 %
04.01.2017 02:20 0,7 C 72 % 1017,8 hPa 0,0 l/m 16,5 km/h (3 Bft) W 263 0 min 0,000 mm 0,0 UV-I 0 W/m -3,8 C -7,0 C 20,9 km/h (4 Bft) 100,00 %
04.01.2017 02:22 0,8 C 72 % 1017,7 hPa 0,0 l/m 13,7 km/h (3 Bft) W-SW 257 0 min 0,000 mm 0,0 UV-I 0 W/m -3,7 C -5,2 C 19,3 km/h (3 Bft) 100,00 %
04.01.2017 02:24 0,8 C 71 % 1017,7 hPa 0,0 l/m 18,1 km/h (3 Bft) W 265 0 min 0,000 mm 0,0 UV-I 0 W/m -3,8 C -7,7 C 30,6 km/h (5 Bft) 100,00 %
04.01.2017 02:26 0,9 C 71 % 1017,7 hPa 0,0 l/m 21,5 km/h (4 Bft) W-SW 254 0 min 0,000 mm 0,0 UV-I 0 W/m -3,7 C -9,1 C 32,2 km/h (5 Bft) 97,87 %
04.01.2017 02:28 1,0 C 70 % 1017,7 hPa 0,0 l/m 23,0 km/h (4 Bft) W 259 0 min 0,000 mm 0,0 UV-I 0 W/m -3,8 C -9,6 C 37,0 km/h (5 Bft) 97,87 %
04.01.2017 02:30 1,1 C 70 % 1017,6 hPa 0,0 l/m 19,4 km/h (3 Bft) W-SW 251 0 min 0,000 mm 0,0 UV-I 0 W/m -3,7 C -7,9 C 27,4 km/h (4 Bft) 100,00 %
04.01.2017 02:32 1,1 C 70 % 1017,6 hPa 0,0 l/m 20,8 km/h (4 Bft) W 271 0 min 0,000 mm 0,0 UV-I 0 W/m -3,7 C -8,6 C 29,0 km/h (5 Bft) 97,87 %
04.01.2017 02:34 1,2 C 69 % 1017,6 hPa 0,0 l/m 20,2 km/h (4 Bft) W-SW 246 0 min 0,000 mm 0,0 UV-I 0 W/m -3,8 C -8,2 C 29,0 km/h (5 Bft) 97,22 %
04.01.2017 02:36 1,2 C 69 % 1017,6 hPa 0,0 l/m 23,0 km/h (4 Bft) W-SW 251 0 min 0,000 mm 0,0 UV-I 0 W/m -3,8 C -9,3 C 40,2 km/h (6 Bft) 100,00 %
04.01.2017 02:38 1,3 C 69 % 1017,6 hPa 0,0 l/m 19,2 km/h (3 Bft) W-SW 254 0 min 0,000 mm 0,0 UV-I 0 W/m -3,7 C -7,6 C 29,0 km/h (5 Bft) 97,87 %
04.01.2017 02:40 1,3 C 68 % 1017,6 hPa 0,0 l/m 24,9 km/h (4 Bft) W-SW 249 0 min 0,000 mm 0,0 UV-I 0 W/m -3,9 C -9,9 C 45,1 km/h (6 Bft) 97,87 %
04.01.2017 02:42 1,3 C 68 % 1017,5 hPa 0,0 l/m 27,8 km/h (4 Bft) W-SW 246 0 min 0,000 mm 0,0 UV-I 0 W/m -3,9 C -10,9 C 41,8 km/h (6 Bft) 97,87 %
04.01.2017 02:44 1,4 C 68 % 1017,6 hPa 0,0 l/m 19,1 km/h (3 Bft) W 281 0 min 0,000 mm 0,0 UV-I 0 W/m -3,8 C -7,4 C 41,8 km/h (6 Bft) 100,00 %
04.01.2017 02:46 1,4 C 68 % 1017,5 hPa 0,0 l/m 20,2 km/h (4 Bft) W 265 0 min 0,000 mm 0,0 UV-I 0 W/m -3,8 C -7,9 C 32,2 km/h (5 Bft) 98,00 %
04.01.2017 02:48 1,4 C 68 % 1017,6 hPa 0,0 l/m 17,2 km/h (3 Bft) W-SW 252 0 min 0,000 mm 0,0 UV-I 0 W/m -3,8 C -6,5 C 30,6 km/h (5 Bft) 100,00 %
04.01.2017 02:50 1,4 C 68 % 1017,5 hPa 0,0 l/m 23,0 km/h (4 Bft) SW 236 0 min 0,000 mm 0,0 UV-I 0 W/m -3,8 C -9,1 C 38,6 km/h (5 Bft) 100,00 %
04.01.2017 02:52 1,4 C 67 % 1017,6 hPa 0,0 l/m 22,5 km/h (4 Bft) W-SW 240 0 min 0,000 mm 0,0 UV-I 0 W/m -4,0 C -8,9 C 45,1 km/h (6 Bft) 100,00 %
04.01.2017 02:54 1,4 C 68 % 1017,8 hPa 0,0 l/m 22,9 km/h (4 Bft) W-SW 248 0 min 0,000 mm 0,0 UV-I 0 W/m -3,8 C -9,0 C 30,6 km/h (5 Bft) 95,74 %
04.01.2017 02:56 1,4 C 68 % 1017,8 hPa 0,0 l/m 23,2 km/h (4 Bft) W 275 0 min 0,000 mm 0,0 UV-I 0 W/m -3,8 C -9,2 C 45,1 km/h (6 Bft) 100,00 %
04.01.2017 02:58 1,4 C 68 % 1017,7 hPa 0,0 l/m 21,3 km/h (4 Bft) SW 222 0 min 0,000 mm 0,0 UV-I 0 W/m -3,8 C -8,4 C 45,1 km/h (6 Bft) 100,00 %
04.01.2017 03:00 1,4 C 69 % 1017,7 hPa 0,2 l/m 25,9 km/h (4 Bft) W-SW 247 0 min 0,000 mm 0,0 UV-I 0 W/m -3,7 C -10,1 C 48,3 km/h (6 Bft) 94,00 %
04.01.2017 03:02 1,4 C 70 % 1017,6 hPa 0,0 l/m 23,6 km/h (4 Bft) W-SW 252 0 min 0,051 mm 0,0 UV-I 0 W/m -3,5 C -9,3 C 35,4 km/h (5 Bft) 100,00 %
04.01.2017 03:04 1,3 C 70 % 1017,6 hPa 0,0 l/m 26,2 km/h (4 Bft) W 259 0 min 0,000 mm 0,0 UV-I 0 W/m -3,6 C -10,4 C 37,0 km/h (5 Bft) 97,87 %
04.01.2017 03:06 1,3 C 71 % 1017,6 hPa 0,0 l/m 22,7 km/h (4 Bft) W-SW 257 0 min 0,000 mm 0,0 UV-I 0 W/m -3,4 C -9,1 C 32,2 km/h (5 Bft) 100,00 %
04.01.2017 03:08 1,2 C 72 % 1017,4 hPa 0,0 l/m 25,6 km/h (4 Bft) W 259 0 min 0,000 mm 0,0 UV-I 0 W/m -3,3 C -10,3 C 38,6 km/h (5 Bft) 100,00 %
04.01.2017 03:10 1,2 C 72 % 1017,5 hPa 0,0 l/m 34,6 km/h (5 Bft) W 270 0 min 0,000 mm 0,0 UV-I 0 W/m -3,3 C -13,0 C 57,9 km/h (7 Bft) 100,00 %
04.01.2017 03:12 1,2 C 73 % 1017,6 hPa 0,0 l/m 31,3 km/h (5 Bft) W 261 0 min 0,000 mm 0,0 UV-I 0 W/m -3,1 C -12,1 C 51,5 km/h (7 Bft) 100,00 %
04.01.2017 03:14 1,1 C 75 % 1017,6 hPa 0,0 l/m 39,7 km/h (6 Bft) W 260 0 min 0,000 mm 0,0 UV-I 0 W/m -2,8 C -14,2 C 64,4 km/h (8 Bft) 95,74 %
04.01.2017 03:16 1,0 C 77 % 1017,6 hPa 0,0 l/m 33,6 km/h (5 Bft) W 268 0 min 0,000 mm 0,0 UV-I 0 W/m -2,6 C -13,0 C 46,7 km/h (6 Bft) 100,00 %
04.01.2017 03:18 0,9 C 78 % 1017,6 hPa 0,0 l/m 29,0 km/h (5 Bft) W-NW 290 0 min 0,000 mm 0,0 UV-I 0 W/m -2,5 C -11,8 C 45,1 km/h (6 Bft) 100,00 %
04.01.2017 03:20 0,8 C 79 % 1017,6 hPa 0,0 l/m 24,3 km/h (4 Bft) W 260 0 min 0,000 mm 0,0 UV-I 0 W/m -2,4 C -10,4 C 33,8 km/h (5 Bft) 95,74 %
04.01.2017 03:22 0,7 C 80 % 1017,6 hPa 0,0 l/m 24,3 km/h (4 Bft) W-SW 246 0 min 0,000 mm 0,0 UV-I 0 W/m -2,3 C -10,5 C 35,4 km/h (5 Bft) 98,00 %
04.01.2017 03:24 0,6 C 81 % 1017,7 hPa 0,0 l/m 22,8 km/h (4 Bft) W-SW 250 0 min 0,000 mm 0,0 UV-I 0 W/m -2,3 C -10,1 C 38,6 km/h (5 Bft) 96,00 %
04.01.2017 03:26 0,4 C 83 % 1017,5 hPa 0,0 l/m 26,5 km/h (4 Bft) W-SW 250 0 min 0,000 mm 0,0 UV-I 0 W/m -2,1 C -11,7 C 43,5 km/h (6 Bft) 97,87 %
04.01.2017 03:28 0,3 C 83 % 1017,5 hPa 0,0 l/m 21,2 km/h (4 Bft) W 266 0 min 0,000 mm 0,0 UV-I 0 W/m -2,2 C -9,8 C 32,2 km/h (5 Bft) 94,29 %
04.01.2017 03:30 0,3 C 84 % 1017,5 hPa 0,0 l/m 28,2 km/h (4 Bft) W-SW 257 0 min 0,000 mm 0,0 UV-I 0 W/m -2,1 C -12,4 C 43,5 km/h (6 Bft) 97,87 %
04.01.2017 03:32 0,2 C 85 % 1017,5 hPa 0,0 l/m 22,1 km/h (4 Bft) W-SW 255 0 min 0,000 mm 0,0 UV-I 0 W/m -2,0 C -10,3 C 30,6 km/h (5 Bft) 97,87 %
04.01.2017 03:34 0,1 C 86 % 1017,6 hPa 0,0 l/m 18,1 km/h (3 Bft) W 267 0 min 0,000 mm 0,0 UV-I 0 W/m -2,0 C -8,6 C 32,2 km/h (5 Bft) 98,00 %
04.01.2017 03:36 0,1 C 86 % 1017,4 hPa 0,0 l/m 17,5 km/h (3 Bft) W 261 0 min 0,000 mm 0,0 UV-I 0 W/m -2,0 C -8,3 C 22,5 km/h (4 Bft) 96,00 %
04.01.2017 03:38 0,0 C 87 % 1017,5 hPa 0,0 l/m 22,6 km/h (4 Bft) W-SW 238 0 min 0,000 mm 0,0 UV-I 0 W/m -1,9 C -10,8 C 33,8 km/h (5 Bft) 94,00 %
04.01.2017 03:40 -0,1 C 88 % 1017,3 hPa 0,0 l/m 21,9 km/h (4 Bft) W-SW 248 0 min 0,000 mm 0,0 UV-I 0 W/m -1,8 C -10,6 C 30,6 km/h (5 Bft) 97,14 %
04.01.2017 03:42 -0,2 C 88 % 1017,2 hPa 0,0 l/m 19,8 km/h (3 Bft) SW 217 0 min 0,000 mm 0,0 UV-I 0 W/m -1,9 C -9,8 C 29,0 km/h (5 Bft) 98,00 %
04.01.2017 03:44 -0,2 C 89 % 1017,1 hPa 0,0 l/m 25,1 km/h (4 Bft) SW 230 0 min 0,000 mm 0,0 UV-I 0 W/m -1,8 C -12,0 C 33,8 km/h (5 Bft) 95,74 %
04.01.2017 03:46 -0,3 C 89 % 1017,0 hPa 0,0 l/m 19,3 km/h (3 Bft) W 261 0 min 0,000 mm 0,0 UV-I 0 W/m -1,9 C -9,7 C 30,6 km/h (5 Bft) 97,87 %
04.01.2017 03:48 -0,3 C 90 % 1016,9 hPa 0,0 l/m 16,4 km/h (3 Bft) SW 220 0 min 0,000 mm 0,0 UV-I 0 W/m -1,7 C -8,2 C 24,1 km/h (4 Bft) 93,62 %
04.01.2017 03:50 -0,4 C 90 % 1016,9 hPa 0,0 l/m 19,2 km/h (3 Bft) SW 231 0 min 0,000 mm 0,0 UV-I 0 W/m -1,8 C -9,8 C 27,4 km/h (4 Bft) 98,00 %
04.01.2017 03:52 -0,4 C 90 % 1016,8 hPa 0,0 l/m 19,0 km/h (3 Bft) W 267 0 min 0,000 mm 0,0 UV-I 0 W/m -1,8 C -9,7 C 30,6 km/h (5 Bft) 97,92 %
04.01.2017 03:54 -0,4 C 90 % 1016,8 hPa 0,0 l/m 17,4 km/h (3 Bft) W-SW 254 0 min 0,000 mm 0,0 UV-I 0 W/m -1,8 C -8,8 C 25,7 km/h (4 Bft) 97,87 %
04.01.2017 03:56 -0,4 C 90 % 1016,7 hPa 0,0 l/m 17,7 km/h (3 Bft) SW 224 0 min 0,000 mm 0,0 UV-I 0 W/m -1,8 C -9,0 C 24,1 km/h (4 Bft) 95,83 %
04.01.2017 03:58 -0,4 C 90 % 1016,7 hPa 0,0 l/m 21,8 km/h (4 Bft) SW 232 0 min 0,000 mm 0,0 UV-I 0 W/m -1,8 C -11,0 C 33,8 km/h (5 Bft) 100,00 %
04.01.2017 04:00 -0,4 C 90 % 1016,6 hPa 0,0 l/m 18,5 km/h (3 Bft) SW 226 0 min 0,025 mm 0,0 UV-I 0 W/m -1,8 C -9,4 C 32,2 km/h (5 Bft) 93,62 %
04.01.2017 04:02 -0,4 C 90 % 1016,5 hPa 0,0 l/m 18,5 km/h (3 Bft) S-SW 209 0 min 0,000 mm 0,0 UV-I 0 W/m -1,8 C -9,4 C 32,2 km/h (5 Bft) 100,00 %
04.01.2017 04:04 -0,4 C 90 % 1016,5 hPa 0,0 l/m 17,0 km/h (3 Bft) W-SW 240 0 min 0,000 mm 0,0 UV-I 0 W/m -1,8 C -8,6 C 25,7 km/h (4 Bft) 100,00 %
04.01.2017 04:06 -0,4 C 90 % 1016,5 hPa 0,0 l/m 18,7 km/h (3 Bft) W-SW 240 0 min 0,000 mm 0,0 UV-I 0 W/m -1,8 C -9,5 C 25,7 km/h (4 Bft) 100,00 %
04.01.2017 04:08 -0,4 C 89 % 1016,4 hPa 0,0 l/m 18,8 km/h (3 Bft) SW 236 0 min 0,000 mm 0,0 UV-I 0 W/m -2,0 C -9,6 C 29,0 km/h (5 Bft) 98,00 %
04.01.2017 04:10 -0,4 C 89 % 1016,4 hPa 0,0 l/m 17,4 km/h (3 Bft) SW 224 0 min 0,000 mm 0,0 UV-I 0 W/m -2,0 C -8,8 C 25,7 km/h (4 Bft) 100,00 %
04.01.2017 04:12 -0,3 C 89 % 1016,3 hPa 0,0 l/m 18,0 km/h (3 Bft) W-SW 244 0 min 0,000 mm 0,0 UV-I 0 W/m -1,9 C -9,0 C 27,4 km/h (4 Bft) 100,00 %
04.01.2017 04:14 -0,3 C 89 % 1016,3 hPa 0,0 l/m 18,2 km/h (3 Bft) SW 215 0 min 0,000 mm 0,0 UV-I 0 W/m -1,9 C -9,1 C 27,4 km/h (4 Bft) 100,00 %
04.01.2017 04:16 -0,3 C 89 % 1016,2 hPa 0,0 l/m 18,0 km/h (3 Bft) W-SW 242 0 min 0,000 mm 0,0 UV-I 0 W/m -1,9 C -9,0 C 33,8 km/h (5 Bft) 100,00 %
04.01.2017 04:18 -0,3 C 89 % 1016,1 hPa 0,0 l/m 19,2 km/h (3 Bft) S-SW 208 0 min 0,000 mm 0,0 UV-I 0 W/m -1,9 C -9,6 C 33,8 km/h (5 Bft) 100,00 %
04.01.2017 04:20 -0,3 C 89 % 1016,1 hPa 0,0 l/m 18,9 km/h (3 Bft) W-SW 253 0 min 0,000 mm 0,0 UV-I 0 W/m -1,9 C -9,5 C 29,0 km/h (5 Bft) 100,00 %
04.01.2017 04:22 -0,3 C 89 % 1016,0 hPa 0,0 l/m 20,1 km/h (4 Bft) W-SW 256 0 min 0,000 mm 0,0 UV-I 0 W/m -1,9 C -10,1 C 29,0 km/h (5 Bft) 100,00 %
04.01.2017 04:24 -0,3 C 89 % 1016,0 hPa 0,0 l/m 20,4 km/h (4 Bft) W-SW 238 0 min 0,000 mm 0,0 UV-I 0 W/m -1,9 C -10,2 C 27,4 km/h (4 Bft) 100,00 %
04.01.2017 04:26 -0,2 C 89 % 1015,9 hPa 0,0 l/m 19,0 km/h (3 Bft) W-SW 241 0 min 0,000 mm 0,0 UV-I 0 W/m -1,8 C -9,4 C 27,4 km/h (4 Bft) 95,83 %
04.01.2017 04:28 -0,2 C 89 % 1015,8 hPa 0,0 l/m 20,7 km/h (4 Bft) SW 217 0 min 0,000 mm 0,0 UV-I 0 W/m -1,8 C -10,2 C 32,2 km/h (5 Bft) 100,00 %
04.01.2017 04:30 -0,2 C 88 % 1015,9 hPa 0,0 l/m 18,9 km/h (3 Bft) SW 236 0 min 0,000 mm 0,0 UV-I 0 W/m -1,9 C -9,4 C 30,6 km/h (5 Bft) 97,87 %
04.01.2017 04:32 -0,2 C 88 % 1015,9 hPa 0,0 l/m 20,4 km/h (4 Bft) SW 216 0 min 0,000 mm 0,0 UV-I 0 W/m -1,9 C -10,1 C 24,1 km/h (4 Bft) 97,96 %
04.01.2017 04:34 -0,2 C 88 % 1015,8 hPa 0,0 l/m 18,5 km/h (3 Bft) SW 219 0 min 0,000 mm 0,0 UV-I 0 W/m -1,9 C -9,2 C 29,0 km/h (5 Bft) 96,00 %
04.01.2017 04:36 -0,2 C 88 % 1015,8 hPa 0,0 l/m 19,6 km/h (3 Bft) SW 227 0 min 0,000 mm 0,0 UV-I 0 W/m -1,9 C -9,7 C 30,6 km/h (5 Bft) 100,00 %
04.01.2017 04:38 -0,1 C 88 % 1015,7 hPa 0,0 l/m 17,0 km/h (3 Bft) W-SW 256 0 min 0,000 mm 0,0 UV-I 0 W/m -1,8 C -8,2 C 24,1 km/h (4 Bft) 100,00 %
04.01.2017 04:40 -0,1 C 87 % 1015,7 hPa 0,0 l/m 17,2 km/h (3 Bft) SW 221 0 min 0,000 mm 0,0 UV-I 0 W/m -2,0 C -8,4 C 24,1 km/h (4 Bft) 100,00 %
04.01.2017 04:42 -0,1 C 87 % 1015,6 hPa 0,0 l/m 18,4 km/h (3 Bft) SW 231 0 min 0,000 mm 0,0 UV-I 0 W/m -2,0 C -9,0 C 32,2 km/h (5 Bft) 97,87 %
04.01.2017 04:44 0,0 C 87 % 1015,6 hPa 0,0 l/m 18,5 km/h (3 Bft) SW 227 0 min 0,000 mm 0,0 UV-I 0 W/m -1,9 C -8,9 C 27,4 km/h (4 Bft) 100,00 %
04.01.2017 04:46 0,0 C 86 % 1015,5 hPa 0,0 l/m 19,3 km/h (3 Bft) W-SW 253 0 min 0,000 mm 0,0 UV-I 0 W/m -2,1 C -9,3 C 30,6 km/h (5 Bft) 100,00 %
04.01.2017 04:48 0,1 C 86 % 1015,4 hPa 0,0 l/m 23,5 km/h (4 Bft) SW 232 0 min 0,000 mm 0,0 UV-I 0 W/m -2,0 C -11,0 C 32,2 km/h (5 Bft) 100,00 %
04.01.2017 04:50 0,1 C 85 % 1015,2 hPa 0,0 l/m 22,7 km/h (4 Bft) W-SW 245 0 min 0,000 mm 0,0 UV-I 0 W/m -2,1 C -10,7 C 32,2 km/h (5 Bft) 98,00 %
04.01.2017 04:52 0,2 C 85 % 1015,3 hPa 0,0 l/m 21,4 km/h (4 Bft) W 263 0 min 0,000 mm 0,0 UV-I 0 W/m -2,0 C -10,0 C 32,2 km/h (5 Bft) 100,00 %
04.01.2017 04:54 0,2 C 84 % 1015,2 hPa 0,0 l/m 20,3 km/h (4 Bft) W-SW 250 0 min 0,000 mm 0,0 UV-I 0 W/m -2,2 C -9,5 C 30,6 km/h (5 Bft) 100,00 %
04.01.2017 04:56 0,3 C 84 % 1015,2 hPa 0,0 l/m 17,1 km/h (3 Bft) W-SW 246 0 min 0,000 mm 0,0 UV-I 0 W/m -2,1 C -7,8 C 25,7 km/h (4 Bft) 97,87 %
04.01.2017 04:58 0,3 C 84 % 1015,1 hPa 0,0 l/m 22,0 km/h (4 Bft) W-SW 249 0 min 0,000 mm 0,0 UV-I 0 W/m -2,1 C -10,1 C 27,4 km/h (4 Bft) 98,00 %
04.01.2017 05:00 0,3 C 83 % 1015,0 hPa 0,0 l/m 21,3 km/h (4 Bft) W 271 0 min 0,025 mm 0,0 UV-I 0 W/m -2,2 C -9,8 C 30,6 km/h (5 Bft) 100,00 %
04.01.2017 05:02 0,3 C 83 % 1014,9 hPa 0,0 l/m 20,0 km/h (4 Bft) W 261 0 min 0,000 mm 0,0 UV-I 0 W/m -2,2 C -9,2 C 29,0 km/h (5 Bft) 97,87 %
04.01.2017 05:04 0,4 C 83 % 1014,8 hPa 0,0 l/m 19,4 km/h (3 Bft) SW 229 0 min 0,000 mm 0,0 UV-I 0 W/m -2,1 C -8,8 C 32,2 km/h (5 Bft) 100,00 %
04.01.2017 05:06 0,4 C 82 % 1014,6 hPa 0,0 l/m 19,5 km/h (3 Bft) SW 219 0 min 0,000 mm 0,0 UV-I 0 W/m -2,3 C -8,9 C 32,2 km/h (5 Bft) 100,00 %
04.01.2017 05:08 0,4 C 82 % 1014,7 hPa 0,0 l/m 19,2 km/h (3 Bft) W-SW 252 0 min 0,000 mm 0,0 UV-I 0 W/m -2,3 C -8,7 C 27,4 km/h (4 Bft) 100,00 %
04.01.2017 05:10 0,4 C 82 % 1014,7 hPa 0,0 l/m 20,7 km/h (4 Bft) SW 231 0 min 0,000 mm 0,0 UV-I 0 W/m -2,3 C -9,4 C 32,2 km/h (5 Bft) 100,00 %
04.01.2017 05:12 0,4 C 82 % 1014,7 hPa 0,0 l/m 22,3 km/h (4 Bft) SW 226 0 min 0,000 mm 0,0 UV-I 0 W/m -2,3 C -10,1 C 32,2 km/h (5 Bft) 98,00 %
04.01.2017 05:14 0,5 C 81 % 1014,7 hPa 0,0 l/m 20,8 km/h (4 Bft) W-SW 248 0 min 0,000 mm 0,0 UV-I 0 W/m -2,4 C -9,3 C 27,4 km/h (4 Bft) 100,00 %
04.01.2017 05:16 0,5 C 81 % 1014,6 hPa 0,0 l/m 25,5 km/h (4 Bft) W-SW 257 0 min 0,000 mm 0,0 UV-I 0 W/m -2,4 C -11,2 C 32,2 km/h (5 Bft) 100,00 %
04.01.2017 05:18 0,6 C 80 % 1014,6 hPa 0,0 l/m 20,8 km/h (4 Bft) W 259 0 min 0,000 mm 0,0 UV-I 0 W/m -2,4 C -9,2 C 30,6 km/h (5 Bft) 100,00 %
04.01.2017 05:20 0,6 C 80 % 1014,6 hPa 0,0 l/m 24,5 km/h (4 Bft) W 277 0 min 0,000 mm 0,0 UV-I 0 W/m -2,4 C -10,7 C 35,4 km/h (5 Bft) 97,92 %
04.01.2017 05:22 0,6 C 80 % 1014,6 hPa 0,0 l/m 21,2 km/h (4 Bft) S-SW 200 0 min 0,000 mm 0,0 UV-I 0 W/m -2,4 C -9,4 C 33,8 km/h (5 Bft) 100,00 %
04.01.2017 05:24 0,6 C 80 % 1014,6 hPa 0,0 l/m 18,8 km/h (3 Bft) SW 234 0 min 0,000 mm 0,0 UV-I 0 W/m -2,4 C -8,3 C 25,7 km/h (4 Bft) 100,00 %
04.01.2017 05:26 0,7 C 79 % 1014,6 hPa 0,0 l/m 23,2 km/h (4 Bft) W-SW 245 0 min 0,000 mm 0,0 UV-I 0 W/m -2,5 C -10,1 C 33,8 km/h (5 Bft) 97,87 %
04.01.2017 05:28 0,7 C 79 % 1014,6 hPa 0,0 l/m 26,2 km/h (4 Bft) W-SW 250 0 min 0,000 mm 0,0 UV-I 0 W/m -2,5 C -11,2 C 37,0 km/h (5 Bft) 95,74 %
04.01.2017 05:30 0,7 C 78 % 1014,6 hPa 0,0 l/m 20,5 km/h (4 Bft) W 265 0 min 0,000 mm 0,0 UV-I 0 W/m -2,7 C -9,0 C 30,6 km/h (5 Bft) 93,62 %
04.01.2017 05:32 0,8 C 78 % 1014,6 hPa 0,0 l/m 21,7 km/h (4 Bft) W-SW 252 0 min 0,000 mm 0,0 UV-I 0 W/m -2,6 C -9,3 C 35,4 km/h (5 Bft) 97,87 %
04.01.2017 05:34 0,8 C 78 % 1014,5 hPa 0,0 l/m 22,6 km/h (4 Bft) W-SW 252 0 min 0,000 mm 0,0 UV-I 0 W/m -2,6 C -9,7 C 32,2 km/h (5 Bft) 95,74 %
04.01.2017 05:36 0,8 C 78 % 1014,5 hPa 0,0 l/m 21,0 km/h (4 Bft) W-SW 250 0 min 0,000 mm 0,0 UV-I 0 W/m -2,6 C -9,0 C 33,8 km/h (5 Bft) 97,87 %
04.01.2017 05:38 0,8 C 77 % 1014,5 hPa 0,0 l/m 25,5 km/h (4 Bft) S-SW 213 0 min 0,000 mm 0,0 UV-I 0 W/m -2,8 C -10,8 C 37,0 km/h (5 Bft) 91,49 %
04.01.2017 05:40 0,8 C 77 % 1014,5 hPa 0,0 l/m 23,2 km/h (4 Bft) W 263 0 min 0,000 mm 0,0 UV-I 0 W/m -2,8 C -10,0 C 33,8 km/h (5 Bft) 97,87 %
04.01.2017 05:42 0,9 C 77 % 1014,5 hPa 0,0 l/m 22,8 km/h (4 Bft) W-SW 243 0 min 0,000 mm 0,0 UV-I 0 W/m -2,7 C -9,7 C 32,2 km/h (5 Bft) 94,44 %
04.01.2017 05:44 0,9 C 76 % 1014,5 hPa 0,0 l/m 25,5 km/h (4 Bft) W-SW 242 0 min 0,000 mm 0,0 UV-I 0 W/m -2,8 C -10,7 C 38,6 km/h (5 Bft) 95,74 %
04.01.2017 05:46 0,9 C 76 % 1014,4 hPa 0,0 l/m 26,9 km/h (4 Bft) W-SW 252 0 min 0,000 mm 0,0 UV-I 0 W/m -2,8 C -11,2 C 37,0 km/h (5 Bft) 95,74 %
04.01.2017 05:48 0,9 C 75 % 1014,3 hPa 0,0 l/m 25,2 km/h (4 Bft) SW 216 0 min 0,000 mm 0,0 UV-I 0 W/m -3,0 C -10,6 C 38,6 km/h (5 Bft) 97,87 %
04.01.2017 05:50 1,0 C 75 % 1014,3 hPa 0,0 l/m 27,8 km/h (4 Bft) W-SW 255 0 min 0,000 mm 0,0 UV-I 0 W/m -2,9 C -11,3 C 45,1 km/h (6 Bft) 97,87 %
04.01.2017 05:52 1,1 C 74 % 1014,3 hPa 0,0 l/m 25,3 km/h (4 Bft) W-NW 295 0 min 0,000 mm 0,0 UV-I 0 W/m -3,0 C -10,3 C 33,8 km/h (5 Bft) 98,00 %
04.01.2017 05:54 1,1 C 74 % 1014,2 hPa 0,0 l/m 23,0 km/h (4 Bft) W-SW 248 0 min 0,000 mm 0,0 UV-I 0 W/m -3,0 C -9,5 C 30,6 km/h (5 Bft) 97,87 %
04.01.2017 05:56 1,1 C 73 % 1014,1 hPa 0,0 l/m 22,0 km/h (4 Bft) W-SW 244 0 min 0,000 mm 0,0 UV-I 0 W/m -3,2 C -9,1 C 27,4 km/h (4 Bft) 97,87 %
04.01.2017 05:58 1,2 C 73 % 1014,1 hPa 0,0 l/m 27,5 km/h (4 Bft) SW 236 0 min 0,000 mm 0,0 UV-I 0 W/m -3,1 C -10,9 C 40,2 km/h (6 Bft) 97,87 %
04.01.2017 06:00 1,2 C 73 % 1014,1 hPa 0,0 l/m 23,0 km/h (4 Bft) W-SW 252 0 min 0,026 mm 0,0 UV-I 0 W/m -3,1 C -9,3 C 35,4 km/h (5 Bft) 97,87 %
04.01.2017 06:02 1,2 C 72 % 1014,2 hPa 0,0 l/m 24,4 km/h (4 Bft) W 264 0 min 0,000 mm 0,0 UV-I 0 W/m -3,3 C -9,9 C 35,4 km/h (5 Bft) 95,74 %
04.01.2017 06:04 1,3 C 72 % 1014,1 hPa 0,0 l/m 28,2 km/h (4 Bft) W-SW 242 0 min 0,000 mm 0,0 UV-I 0 W/m -3,2 C -11,0 C 41,8 km/h (6 Bft) 100,00 %
04.01.2017 06:06 1,3 C 72 % 1014,2 hPa 0,0 l/m 25,9 km/h (4 Bft) W-SW 252 0 min 0,000 mm 0,0 UV-I 0 W/m -3,2 C -10,3 C 41,8 km/h (6 Bft) 97,87 %
04.01.2017 06:08 1,3 C 72 % 1014,2 hPa 0,0 l/m 20,5 km/h (4 Bft) W 259 0 min 0,000 mm 0,0 UV-I 0 W/m -3,2 C -8,2 C 27,4 km/h (4 Bft) 100,00 %
04.01.2017 06:10 1,3 C 72 % 1014,2 hPa 0,0 l/m 23,3 km/h (4 Bft) W-SW 244 0 min 0,000 mm 0,0 UV-I 0 W/m -3,2 C -9,3 C 32,2 km/h (5 Bft) 100,00 %
04.01.2017 06:12 1,3 C 72 % 1013,9 hPa 0,0 l/m 23,5 km/h (4 Bft) W 273 0 min 0,000 mm 0,0 UV-I 0 W/m -3,2 C -9,4 C 35,4 km/h (5 Bft) 97,87 %
04.01.2017 06:14 1,3 C 71 % 1013,8 hPa 0,0 l/m 24,0 km/h (4 Bft) W-SW 238 0 min 0,000 mm 0,0 UV-I 0 W/m -3,4 C -9,6 C 35,4 km/h (5 Bft) 97,87 %
04.01.2017 06:16 1,3 C 71 % 1013,9 hPa 0,0 l/m 28,6 km/h (4 Bft) SW 234 0 min 0,000 mm 0,0 UV-I 0 W/m -3,4 C -11,2 C 37,0 km/h (5 Bft) 93,62 %
04.01.2017 06:18 1,3 C 71 % 1013,8 hPa 0,0 l/m 23,3 km/h (4 Bft) S-SW 212 0 min 0,000 mm 0,0 UV-I 0 W/m -3,4 C -9,3 C 32,2 km/h (5 Bft) 100,00 %
04.01.2017 06:20 1,3 C 71 % 1013,9 hPa 0,0 l/m 23,7 km/h (4 Bft) W-SW 254 0 min 0,000 mm 0,0 UV-I 0 W/m -3,4 C -9,5 C 38,6 km/h (5 Bft) 100,00 %
04.01.2017 06:22 1,4 C 71 % 1013,9 hPa 0,0 l/m 26,2 km/h (4 Bft) W-SW 251 0 min 0,000 mm 0,0 UV-I 0 W/m -3,3 C -10,2 C 43,5 km/h (6 Bft) 100,00 %
04.01.2017 06:24 1,4 C 71 % 1014,0 hPa 0,0 l/m 21,1 km/h (4 Bft) W 271 0 min 0,000 mm 0,0 UV-I 0 W/m -3,3 C -8,3 C 32,2 km/h (5 Bft) 100,00 %
04.01.2017 06:26 1,4 C 71 % 1014,2 hPa 0,0 l/m 28,8 km/h (4 Bft) W-SW 253 0 min 0,000 mm 0,0 UV-I 0 W/m -3,3 C -11,1 C 45,1 km/h (6 Bft) 100,00 %
04.01.2017 06:28 1,4 C 71 % 1014,2 hPa 0,0 l/m 23,4 km/h (4 Bft) W-SW 254 0 min 0,000 mm 0,0 UV-I 0 W/m -3,3 C -9,2 C 32,2 km/h (5 Bft) 97,87 %
04.01.2017 06:30 1,4 C 71 % 1014,2 hPa 0,0 l/m 24,0 km/h (4 Bft) W-SW 249 0 min 0,000 mm 0,0 UV-I 0 W/m -3,3 C -9,5 C 37,0 km/h (5 Bft) 97,92 %
04.01.2017 06:32 1,4 C 71 % 1014,2 hPa 0,0 l/m 19,7 km/h (3 Bft) W-SW 253 0 min 0,000 mm 0,0 UV-I 0 W/m -3,3 C -7,7 C 27,4 km/h (4 Bft) 97,37 %
04.01.2017 06:34 1,4 C 71 % 1014,3 hPa 0,0 l/m 26,9 km/h (4 Bft) SW 231 0 min 0,000 mm 0,0 UV-I 0 W/m -3,3 C -10,5 C 45,1 km/h (6 Bft) 97,87 %
04.01.2017 06:36 1,4 C 71 % 1014,2 hPa 0,0 l/m 22,7 km/h (4 Bft) SW 236 0 min 0,000 mm 0,0 UV-I 0 W/m -3,3 C -9,0 C 37,0 km/h (5 Bft) 100,00 %
04.01.2017 06:38 1,4 C 71 % 1014,0 hPa 0,0 l/m 27,9 km/h (4 Bft) W-SW 248 0 min 0,000 mm 0,0 UV-I 0 W/m -3,3 C -10,8 C 45,1 km/h (6 Bft) 100,00 %
04.01.2017 06:40 1,5 C 71 % 1014,0 hPa 0,0 l/m 22,7 km/h (4 Bft) W-SW 257 0 min 0,000 mm 0,0 UV-I 0 W/m -3,2 C -8,8 C 37,0 km/h (5 Bft) 93,62 %
04.01.2017 06:42 1,5 C 71 % 1014,0 hPa 0,0 l/m 24,0 km/h (4 Bft) W-SW 248 0 min 0,000 mm 0,0 UV-I 0 W/m -3,2 C -9,3 C 37,0 km/h (5 Bft) 97,87 %
04.01.2017 06:44 1,5 C 70 % 1014,0 hPa 0,0 l/m 26,7 km/h (4 Bft) SW 234 0 min 0,000 mm 0,0 UV-I 0 W/m -3,4 C -10,3 C 38,6 km/h (5 Bft) 100,00 %
04.01.2017 06:46 1,5 C 70 % 1013,9 hPa 0,0 l/m 24,1 km/h (4 Bft) SW 220 0 min 0,000 mm 0,0 UV-I 0 W/m -3,4 C -9,4 C 35,4 km/h (5 Bft) 100,00 %
04.01.2017 06:48 1,6 C 70 % 1013,9 hPa 0,0 l/m 23,6 km/h (4 Bft) SW 218 0 min 0,000 mm 0,0 UV-I 0 W/m -3,3 C -9,0 C 37,0 km/h (5 Bft) 98,00 %
04.01.2017 06:50 1,5 C 71 % 1013,8 hPa 0,0 l/m 21,3 km/h (4 Bft) SW 228 0 min 0,000 mm 0,0 UV-I 0 W/m -3,2 C -8,3 C 29,0 km/h (5 Bft) 100,00 %
04.01.2017 06:52 1,5 C 71 % 1013,7 hPa 0,0 l/m 19,2 km/h (3 Bft) W-SW 256 0 min 0,000 mm 0,0 UV-I 0 W/m -3,2 C -7,3 C 30,6 km/h (5 Bft) 95,12 %
04.01.2017 06:54 1,5 C 71 % 1013,6 hPa 0,0 l/m 18,6 km/h (3 Bft) W-SW 254 0 min 0,000 mm 0,0 UV-I 0 W/m -3,2 C -7,0 C 33,8 km/h (5 Bft) 100,00 %
04.01.2017 06:56 1,5 C 71 % 1013,5 hPa 0,0 l/m 23,6 km/h (4 Bft) SW 232 0 min 0,000 mm 0,0 UV-I 0 W/m -3,2 C -9,2 C 33,8 km/h (5 Bft) 100,00 %
04.01.2017 06:58 1,5 C 71 % 1013,5 hPa 0,0 l/m 24,5 km/h (4 Bft) W-SW 254 0 min 0,000 mm 0,0 UV-I 0 W/m -3,2 C -9,5 C 38,6 km/h (5 Bft) 97,87 %
04.01.2017 07:00 1,4 C 71 % 1013,5 hPa 0,0 l/m 28,5 km/h (4 Bft) W-SW 244 0 min 0,000 mm 0,0 UV-I 0 W/m -3,3 C -11,0 C 35,4 km/h (5 Bft) 100,00 %
04.01.2017 07:02 1,5 C 72 % 1013,5 hPa 0,0 l/m 33,0 km/h (5 Bft) W-SW 240 0 min 0,051 mm 0,0 UV-I 0 W/m -3,0 C -12,1 C 53,1 km/h (7 Bft) 100,00 %
04.01.2017 07:04 1,5 C 73 % 1013,6 hPa 0,0 l/m 28,6 km/h (4 Bft) S-SW 203 0 min 0,000 mm 0,0 UV-I 0 W/m -2,8 C -10,9 C 43,5 km/h (6 Bft) 100,00 %
04.01.2017 07:06 1,4 C 75 % 1013,6 hPa 0,0 l/m 22,2 km/h (4 Bft) W-SW 254 0 min 0,000 mm 0,0 UV-I 0 W/m -2,5 C -8,8 C 35,4 km/h (5 Bft) 100,00 %
04.01.2017 07:08 1,4 C 75 % 1013,5 hPa 0,0 l/m 28,9 km/h (5 Bft) W 259 0 min 0,000 mm 0,0 UV-I 0 W/m -2,5 C -11,1 C 49,9 km/h (6 Bft) 100,00 %
04.01.2017 07:10 1,4 C 75 % 1013,4 hPa 0,0 l/m 24,1 km/h (4 Bft) W-SW 256 0 min 0,000 mm 0,0 UV-I 0 W/m -2,5 C -9,5 C 29,0 km/h (5 Bft) 100,00 %
04.01.2017 07:12 1,3 C 76 % 1013,4 hPa 0,0 l/m 19,2 km/h (3 Bft) SW 225 0 min 0,000 mm 0,0 UV-I 0 W/m -2,5 C -7,6 C 32,2 km/h (5 Bft) 100,00 %
04.01.2017 07:14 1,3 C 77 % 1013,4 hPa 0,0 l/m 25,0 km/h (4 Bft) W-SW 247 0 min 0,000 mm 0,0 UV-I 0 W/m -2,3 C -10,0 C 33,8 km/h (5 Bft) 100,00 %
04.01.2017 07:16 1,3 C 77 % 1013,4 hPa 0,0 l/m 20,7 km/h (4 Bft) W 267 0 min 0,000 mm 0,0 UV-I 0 W/m -2,3 C -8,3 C 32,2 km/h (5 Bft) 100,00 %
04.01.2017 07:18 1,2 C 78 % 1013,5 hPa 0,0 l/m 25,5 km/h (4 Bft) SW 221 0 min 0,000 mm 0,0 UV-I 0 W/m -2,2 C -10,3 C 33,8 km/h (5 Bft) 100,00 %
04.01.2017 07:20 1,1 C 81 % 1013,4 hPa 0,0 l/m 26,3 km/h (4 Bft) W-SW 253 0 min 0,000 mm 0,0 UV-I 0 W/m -1,8 C -10,7 C 37,0 km/h (5 Bft) 98,00 %
04.01.2017 07:22 1,0 C 82 % 1013,5 hPa 0,0 l/m 24,9 km/h (4 Bft) S-SW 213 0 min 0,000 mm 0,0 UV-I 0 W/m -1,7 C -10,3 C 37,0 km/h (5 Bft) 100,00 %
04.01.2017 07:24 0,9 C 83 % 1013,5 hPa 0,0 l/m 22,2 km/h (4 Bft) S-SW 207 0 min 0,000 mm 0,0 UV-I 0 W/m -1,7 C -9,4 C 35,4 km/h (5 Bft) 97,87 %
04.01.2017 07:26 0,8 C 83 % 1013,4 hPa 0,0 l/m 22,9 km/h (4 Bft) W 259 0 min 0,000 mm 0,0 UV-I 0 W/m -1,8 C -9,8 C 45,1 km/h (6 Bft) 97,87 %
04.01.2017 07:28 0,7 C 85 % 1013,4 hPa 0,0 l/m 26,3 km/h (4 Bft) W-SW 252 0 min 0,000 mm 0,0 UV-I 0 W/m -1,5 C -11,2 C 40,2 km/h (6 Bft) 97,87 %
04.01.2017 07:30 0,6 C 86 % 1013,4 hPa 0,0 l/m 24,8 km/h (4 Bft) SW 227 0 min 0,000 mm 0,0 UV-I 0 W/m -1,5 C -10,8 C 35,4 km/h (5 Bft) 100,00 %
04.01.2017 07:32 0,4 C 87 % 1013,3 hPa 0,0 l/m 23,2 km/h (4 Bft) W-SW 242 0 min 0,000 mm 0,0 UV-I 0 W/m -1,5 C -10,5 C 37,0 km/h (5 Bft) 100,00 %
04.01.2017 07:34 0,3 C 88 % 1013,3 hPa 0,0 l/m 21,8 km/h (4 Bft) S-SW 206 0 min 0,000 mm 0,0 UV-I 0 W/m -1,4 C -10,0 C 32,2 km/h (5 Bft) 100,00 %
04.01.2017 07:36 0,2 C 88 % 1013,3 hPa 0,0 l/m 20,7 km/h (4 Bft) SW 219 0 min 0,000 mm 0,0 UV-I 0 W/m -1,5 C -9,7 C 33,8 km/h (5 Bft) 100,00 %
04.01.2017 07:38 0,2 C 89 % 1013,3 hPa 0,0 l/m 21,5 km/h (4 Bft) W-SW 239 0 min 0,000 mm 0,0 UV-I 0 W/m -1,4 C -10,0 C 33,8 km/h (5 Bft) 95,00 %
04.01.2017 07:40 0,1 C 89 % 1013,3 hPa 0,0 l/m 20,5 km/h (4 Bft) W 267 0 min 0,000 mm 0,0 UV-I 0 W/m -1,5 C -9,7 C 33,8 km/h (5 Bft) 97,87 %
04.01.2017 07:42 0,1 C 90 % 1013,3 hPa 0,0 l/m 18,6 km/h (3 Bft) W-SW 250 0 min 0,000 mm 0,0 UV-I 0 W/m -1,3 C -8,8 C 27,4 km/h (4 Bft) 97,87 %
04.01.2017 07:44 0,0 C 91 % 1013,3 hPa 0,0 l/m 22,0 km/h (4 Bft) W 269 0 min 0,000 mm 0,0 UV-I 0 W/m -1,3 C -10,5 C 37,0 km/h (5 Bft) 97,92 %
04.01.2017 07:46 -0,1 C 91 % 1013,2 hPa 0,0 l/m 20,7 km/h (4 Bft) W-SW 238 0 min 0,000 mm 0,0 UV-I 0 W/m -1,4 C -10,1 C 29,0 km/h (5 Bft) 95,74 %
04.01.2017 07:48 -0,1 C 91 % 1013,1 hPa 0,0 l/m 26,2 km/h (4 Bft) W 271 0 min 0,000 mm 0,0 UV-I 0 W/m -1,4 C -12,3 C 35,4 km/h (5 Bft) 97,87 %
04.01.2017 07:50 -0,2 C 92 % 1013,1 hPa 0,0 l/m 26,3 km/h (4 Bft) W-SW 240 0 min 0,000 mm 0,0 UV-I 0 W/m -1,3 C -12,5 C 35,4 km/h (5 Bft) 98,00 %
04.01.2017 07:52 -0,2 C 92 % 1013,1 hPa 0,0 l/m 23,0 km/h (4 Bft) W-SW 244 0 min 0,000 mm 0,0 UV-I 0 W/m -1,3 C -11,2 C 37,0 km/h (5 Bft) 97,87 %
04.01.2017 07:54 -0,2 C 92 % 1013,1 hPa 0,0 l/m 25,1 km/h (4 Bft) W-SW 254 0 min 0,000 mm 0,0 UV-I 3 W/m -1,3 C -12,0 C 38,6 km/h (5 Bft) 95,74 %
04.01.2017 07:56 -0,2 C 93 % 1013,0 hPa 0,0 l/m 24,3 km/h (4 Bft) W-SW 243 0 min 0,000 mm 0,0 UV-I 5 W/m -1,2 C -11,7 C 41,8 km/h (6 Bft) 96,00 %
04.01.2017 07:58 -0,2 C 93 % 1013,0 hPa 0,0 l/m 24,7 km/h (4 Bft) W 263 0 min 0,000 mm 0,0 UV-I 5 W/m -1,2 C -11,9 C 41,8 km/h (6 Bft) 97,87 %
04.01.2017 08:00 -0,2 C 93 % 1013,0 hPa 0,0 l/m 27,3 km/h (4 Bft) W-SW 252 0 min 0,025 mm 0,0 UV-I 5 W/m -1,2 C -12,8 C 37,0 km/h (5 Bft) 95,74 %
04.01.2017 08:02 -0,2 C 93 % 1013,1 hPa 0,0 l/m 22,1 km/h (4 Bft) W 262 0 min 0,000 mm 0,0 UV-I 5 W/m -1,2 C -10,8 C 40,2 km/h (6 Bft) 97,87 %
04.01.2017 08:04 -0,2 C 93 % 1013,1 hPa 0,0 l/m 26,3 km/h (4 Bft) S-SW 205 0 min 0,000 mm 0,0 UV-I 5 W/m -1,2 C -12,5 C 40,2 km/h (6 Bft) 100,00 %
04.01.2017 08:06 -0,2 C 93 % 1013,0 hPa 0,0 l/m 22,7 km/h (4 Bft) W-SW 253 0 min 0,000 mm 0,0 UV-I 5 W/m -1,2 C -11,1 C 33,8 km/h (5 Bft) 96,08 %
04.01.2017 08:08 -0,2 C 94 % 1013,1 hPa 0,0 l/m 23,7 km/h (4 Bft) SW 228 0 min 0,000 mm 0,0 UV-I 6 W/m -1,0 C -11,5 C 37,0 km/h (5 Bft) 93,88 %
04.01.2017 08:10 -0,2 C 94 % 1013,1 hPa 0,0 l/m 25,3 km/h (4 Bft) W-SW 242 0 min 0,000 mm 0,0 UV-I 7 W/m -1,0 C -12,1 C 37,0 km/h (5 Bft) 97,87 %
04.01.2017 08:12 -0,2 C 94 % 1013,0 hPa 0,0 l/m 29,1 km/h (5 Bft) W-SW 242 0 min 0,000 mm 0,0 UV-I 8 W/m -1,0 C -13,4 C 48,3 km/h (6 Bft) 97,87 %
04.01.2017 08:14 -0,2 C 94 % 1013,1 hPa 0,0 l/m 26,3 km/h (4 Bft) W-SW 254 0 min 0,000 mm 0,0 UV-I 10 W/m -1,0 C -12,5 C 40,2 km/h (6 Bft) 97,87 %
04.01.2017 08:16 -0,2 C 94 % 1013,0 hPa 0,0 l/m 26,4 km/h (4 Bft) W-SW 239 0 min 0,000 mm 0,0 UV-I 12 W/m -1,0 C -12,5 C 37,0 km/h (5 Bft) 100,00 %
04.01.2017 08:18 -0,3 C 94 % 1012,9 hPa 0,0 l/m 23,2 km/h (4 Bft) W-SW 241 0 min 0,000 mm 0,0 UV-I 12 W/m -1,1 C -11,4 C 38,6 km/h (5 Bft) 100,00 %
04.01.2017 08:20 -0,3 C 94 % 1012,9 hPa 0,0 l/m 22,2 km/h (4 Bft) W 265 0 min 0,000 mm 0,0 UV-I 12 W/m -1,1 C -11,0 C 33,8 km/h (5 Bft) 94,00 %
04.01.2017 08:22 -0,3 C 94 % 1013,0 hPa 0,0 l/m 27,7 km/h (4 Bft) SW 227 0 min 0,000 mm 0,0 UV-I 12 W/m -1,1 C -13,1 C 45,1 km/h (6 Bft) 100,00 %
04.01.2017 08:24 -0,3 C 94 % 1012,8 hPa 0,0 l/m 19,6 km/h (3 Bft) W-SW 248 0 min 0,000 mm 0,0 UV-I 14 W/m -1,1 C -9,8 C 32,2 km/h (5 Bft) 100,00 %
04.01.2017 08:26 -0,3 C 94 % 1012,8 hPa 0,0 l/m 23,5 km/h (4 Bft) W-SW 239 0 min 0,000 mm 0,0 UV-I 14 W/m -1,1 C -11,5 C 35,4 km/h (5 Bft) 97,92 %
04.01.2017 08:28 -0,3 C 95 % 1012,8 hPa 0,0 l/m 20,9 km/h (4 Bft) W-SW 246 0 min 0,000 mm 0,0 UV-I 12 W/m -1,0 C -10,4 C 27,4 km/h (4 Bft) 95,74 %
04.01.2017 08:30 -0,3 C 95 % 1012,9 hPa 0,0 l/m 22,1 km/h (4 Bft) SW 223 0 min 0,000 mm 0,0 UV-I 12 W/m -1,0 C -11,0 C 33,8 km/h (5 Bft) 95,74 %
04.01.2017 08:32 -0,2 C 95 % 1012,8 hPa 0,0 l/m 22,1 km/h (4 Bft) W-SW 238 0 min 0,000 mm 0,0 UV-I 15 W/m -0,9 C -10,8 C 38,6 km/h (5 Bft) 100,00 %
04.01.2017 08:34 -0,2 C 95 % 1012,9 hPa 0,0 l/m 21,2 km/h (4 Bft) W-SW 251 0 min 0,000 mm 0,0 UV-I 20 W/m -0,9 C -10,4 C 30,6 km/h (5 Bft) 100,00 %
04.01.2017 08:36 -0,2 C 95 % 1012,7 hPa 0,0 l/m 20,6 km/h (4 Bft) W 266 0 min 0,000 mm 0,0 UV-I 26 W/m -0,9 C -10,2 C 30,6 km/h (5 Bft) 100,00 %
04.01.2017 08:38 -0,2 C 95 % 1012,7 hPa 0,0 l/m 24,2 km/h (4 Bft) W-SW 242 0 min 0,000 mm 0,0 UV-I 33 W/m -0,9 C -11,7 C 35,4 km/h (5 Bft) 100,00 %
04.01.2017 08:40 -0,2 C 95 % 1012,7 hPa 0,0 l/m 22,9 km/h (4 Bft) SW 223 0 min 0,000 mm 0,0 UV-I 37 W/m -0,9 C -11,2 C 33,8 km/h (5 Bft) 100,00 %
04.01.2017 08:42 -0,2 C 95 % 1012,6 hPa 0,0 l/m 24,1 km/h (4 Bft) SW 223 0 min 0,000 mm 0,0 UV-I 44 W/m -0,9 C -11,6 C 37,0 km/h (5 Bft) 97,87 %
04.01.2017 08:44 -0,2 C 95 % 1012,5 hPa 0,0 l/m 18,4 km/h (3 Bft) W-SW 241 0 min 0,000 mm 0,0 UV-I 49 W/m -0,9 C -9,1 C 29,0 km/h (5 Bft) 100,00 %
04.01.2017 08:46 -0,1 C 95 % 1012,5 hPa 0,0 l/m 18,4 km/h (3 Bft) SW 223 0 min 0,000 mm 0,0 UV-I 46 W/m -0,8 C -9,0 C 30,6 km/h (5 Bft) 100,00 %
04.01.2017 08:48 -0,1 C 95 % 1012,4 hPa 0,0 l/m 20,8 km/h (4 Bft) SW 227 0 min 0,000 mm 0,0 UV-I 46 W/m -0,8 C -10,1 C 33,8 km/h (5 Bft) 100,00 %
04.01.2017 08:50 -0,1 C 95 % 1012,4 hPa 0,0 l/m 20,5 km/h (4 Bft) W 259 0 min 0,000 mm 0,0 UV-I 45 W/m -0,8 C -10,0 C 37,0 km/h (5 Bft) 100,00 %
04.01.2017 08:52 -0,1 C 95 % 1012,4 hPa 0,0 l/m 18,6 km/h (3 Bft) SW 219 0 min 0,000 mm 0,0 UV-I 42 W/m -0,8 C -9,1 C 27,4 km/h (4 Bft) 100,00 %
04.01.2017 08:54 -0,1 C 95 % 1012,4 hPa 0,0 l/m 17,1 km/h (3 Bft) SW 224 0 min 0,000 mm 0,0 UV-I 49 W/m -0,8 C -8,3 C 25,7 km/h (4 Bft) 100,00 %
04.01.2017 08:56 -0,1 C 95 % 1012,4 hPa 0,0 l/m 21,7 km/h (4 Bft) W-SW 247 0 min 0,000 mm 0,0 UV-I 60 W/m -0,8 C -10,5 C 38,6 km/h (5 Bft) 100,00 %
04.01.2017 08:58 -0,1 C 95 % 1012,4 hPa 0,0 l/m 22,8 km/h (4 Bft) W 267 0 min 0,000 mm 0,0 UV-I 63 W/m -0,8 C -11,0 C 33,8 km/h (5 Bft) 100,00 %
04.01.2017 09:00 0,0 C 95 % 1012,4 hPa 0,0 l/m 18,6 km/h (3 Bft) W-SW 252 0 min 0,025 mm 0,0 UV-I 58 W/m -0,7 C -9,0 C 24,1 km/h (4 Bft) 100,00 %
04.01.2017 09:02 0,0 C 95 % 1012,4 hPa 0,0 l/m 18,5 km/h (3 Bft) W-SW 242 0 min 0,000 mm 0,0 UV-I 54 W/m -0,7 C -8,9 C 29,0 km/h (5 Bft) 100,00 %
04.01.2017 09:04 0,1 C 95 % 1012,4 hPa 0,0 l/m 20,3 km/h (4 Bft) W-SW 254 0 min 0,000 mm 0,0 UV-I 49 W/m -0,6 C -9,6 C 27,4 km/h (4 Bft) 100,00 %
04.01.2017 09:06 0,1 C 95 % 1012,4 hPa 0,0 l/m 21,0 km/h (4 Bft) W 263 0 min 0,000 mm 0,0 UV-I 46 W/m -0,6 C -10,0 C 30,6 km/h (5 Bft) 100,00 %
04.01.2017 09:08 0,1 C 95 % 1012,4 hPa 0,0 l/m 22,4 km/h (4 Bft) W-SW 250 0 min 0,000 mm 0,0 UV-I 44 W/m -0,6 C -10,6 C 33,8 km/h (5 Bft) 97,87 %
04.01.2017 09:10 0,2 C 95 % 1012,6 hPa 0,0 l/m 21,5 km/h (4 Bft) W-SW 250 0 min 0,000 mm 0,0 UV-I 44 W/m -0,5 C -10,0 C 33,8 km/h (5 Bft) 97,87 %
04.01.2017 09:13 0,2 C 95 % 1012,4 hPa 0,0 l/m 17,4 km/h (3 Bft) W 267 0 min 0,000 mm 0,0 UV-I 42 W/m -0,5 C -8,1 C 25,7 km/h (4 Bft) 100,00 %
04.01.2017 09:14 0,2 C 95 % 1012,3 hPa 0,0 l/m 30,8 km/h (5 Bft) W 264 0 min 0,000 mm 0,0 UV-I 40 W/m -0,5 C -13,4 C 41,8 km/h (6 Bft) 100,00 %
04.01.2017 09:16 0,3 C 95 % 1012,4 hPa 0,0 l/m 17,9 km/h (3 Bft) W-SW 254 0 min 0,000 mm 0,0 UV-I 41 W/m -0,4 C -8,2 C 32,2 km/h (5 Bft) 100,00 %
04.01.2017 09:18 0,3 C 95 % 1012,3 hPa 0,0 l/m 22,3 km/h (4 Bft) W-SW 252 0 min 0,000 mm 0,0 UV-I 39 W/m -0,4 C -10,3 C 29,0 km/h (5 Bft) 100,00 %
04.01.2017 09:20 0,3 C 95 % 1012,3 hPa 0,0 l/m 17,1 km/h (3 Bft) W 263 0 min 0,000 mm 0,0 UV-I 39 W/m -0,4 C -7,8 C 27,4 km/h (4 Bft) 100,00 %
04.01.2017 09:22 0,4 C 95 % 1012,3 hPa 0,0 l/m 22,0 km/h (4 Bft) W 265 0 min 0,000 mm 0,0 UV-I 42 W/m -0,3 C -10,0 C 35,4 km/h (5 Bft) 97,87 %
04.01.2017 09:24 0,4 C 95 % 1012,3 hPa 0,0 l/m 22,9 km/h (4 Bft) W-SW 252 0 min 0,000 mm 0,0 UV-I 46 W/m -0,3 C -10,4 C 32,2 km/h (5 Bft) 100,00 %
04.01.2017 09:26 0,4 C 95 % 1012,3 hPa 0,0 l/m 23,6 km/h (4 Bft) W-SW 250 0 min 0,000 mm 0,0 UV-I 45 W/m -0,3 C -10,6 C 30,6 km/h (5 Bft) 100,00 %
04.01.2017 09:28 0,5 C 95 % 1012,3 hPa 0,0 l/m 23,3 km/h (4 Bft) W-SW 237 0 min 0,000 mm 0,0 UV-I 44 W/m -0,2 C -10,4 C 35,4 km/h (5 Bft) 95,74 %
04.01.2017 09:30 0,5 C 95 % 1012,2 hPa 0,0 l/m 19,7 km/h (3 Bft) W-SW 247 0 min 0,000 mm 0,0 UV-I 44 W/m -0,2 C -8,8 C 27,4 km/h (4 Bft) 97,87 %
04.01.2017 09:32 0,5 C 95 % 1012,2 hPa 0,0 l/m 21,2 km/h (4 Bft) W-SW 255 0 min 0,000 mm 0,0 UV-I 46 W/m -0,2 C -9,5 C 30,6 km/h (5 Bft) 97,87 %
04.01.2017 09:34 0,6 C 95 % 1012,1 hPa 0,0 l/m 19,9 km/h (4 Bft) NW 324 0 min 0,000 mm 0,0 UV-I 44 W/m -0,1 C -8,8 C 38,6 km/h (5 Bft) 95,74 %
04.01.2017 09:36 0,6 C 95 % 1012,1 hPa 0,0 l/m 19,3 km/h (3 Bft) W-SW 239 0 min 0,000 mm 0,0 UV-I 47 W/m -0,1 C -8,5 C 25,7 km/h (4 Bft) 97,87 %
04.01.2017 09:38 0,6 C 95 % 1012,0 hPa 0,0 l/m 22,4 km/h (4 Bft) W 267 0 min 0,000 mm 0,0 UV-I 47 W/m -0,1 C -9,9 C 32,2 km/h (5 Bft) 100,00 %
04.01.2017 09:40 0,6 C 95 % 1011,9 hPa 0,0 l/m 24,1 km/h (4 Bft) W-SW 250 0 min 0,000 mm 0,0 UV-I 47 W/m -0,1 C -10,6 C 35,4 km/h (5 Bft) 100,00 %
04.01.2017 09:42 0,7 C 95 % 1012,0 hPa 0,0 l/m 24,7 km/h (4 Bft) W 270 0 min 0,000 mm 0,0 UV-I 44 W/m -0,0 C -10,7 C 33,8 km/h (5 Bft) 97,92 %
04.01.2017 09:44 0,7 C 95 % 1012,0 hPa 0,0 l/m 18,3 km/h (3 Bft) SW 233 0 min 0,000 mm 0,0 UV-I 41 W/m -0,0 C -7,9 C 27,4 km/h (4 Bft) 97,87 %
04.01.2017 09:46 0,7 C 95 % 1011,9 hPa 0,0 l/m 19,2 km/h (3 Bft) W-SW 241 0 min 0,000 mm 0,0 UV-I 40 W/m -0,0 C -8,4 C 30,6 km/h (5 Bft) 94,00 %
04.01.2017 09:48 0,7 C 95 % 1012,0 hPa 0,0 l/m 26,4 km/h (4 Bft) W-SW 246 0 min 0,000 mm 0,0 UV-I 40 W/m -0,0 C -11,3 C 41,8 km/h (6 Bft) 93,62 %
04.01.2017 09:50 0,7 C 95 % 1012,0 hPa 0,0 l/m 25,1 km/h (4 Bft) W-SW 243 0 min 0,000 mm 0,0 UV-I 42 W/m -0,0 C -10,8 C 37,0 km/h (5 Bft) 97,87 %
04.01.2017 09:52 0,7 C 95 % 1012,0 hPa 0,0 l/m 19,2 km/h (3 Bft) W 270 0 min 0,000 mm 0,0 UV-I 48 W/m -0,0 C -8,4 C 27,4 km/h (4 Bft) 97,92 %
04.01.2017 09:54 0,8 C 95 % 1012,0 hPa 0,0 l/m 24,3 km/h (4 Bft) W-SW 250 0 min 0,000 mm 0,0 UV-I 58 W/m 0,1 C -10,4 C 38,6 km/h (5 Bft) 93,62 %
04.01.2017 09:56 0,8 C 95 % 1012,0 hPa 0,0 l/m 23,0 km/h (4 Bft) W 265 0 min 0,000 mm 0,0 UV-I 68 W/m 0,1 C -9,9 C 35,4 km/h (5 Bft) 95,74 %
04.01.2017 09:58 0,8 C 94 % 1012,0 hPa 0,0 l/m 22,2 km/h (4 Bft) W-SW 248 0 min 0,000 mm 0,0 UV-I 73 W/m -0,1 C -9,6 C 32,2 km/h (5 Bft) 95,74 %
04.01.2017 10:00 0,9 C 95 % 1012,0 hPa 0,0 l/m 21,8 km/h (4 Bft) S-SW 202 0 min 0,026 mm 0,0 UV-I 68 W/m 0,2 C -9,3 C 32,2 km/h (5 Bft) 95,74 %
04.01.2017 10:02 0,9 C 94 % 1012,0 hPa 0,0 l/m 21,4 km/h (4 Bft) SW 221 0 min 0,000 mm 0,0 UV-I 67 W/m 0,0 C -9,1 C 35,4 km/h (5 Bft) 91,67 %
04.01.2017 10:04 0,9 C 94 % 1012,0 hPa 0,0 l/m 22,3 km/h (4 Bft) SW 225 0 min 0,000 mm 0,0 UV-I 69 W/m 0,0 C -9,5 C 33,8 km/h (5 Bft) 97,87 %
04.01.2017 10:06 1,0 C 94 % 1012,0 hPa 0,0 l/m 22,6 km/h (4 Bft) SW 227 0 min 0,000 mm 0,0 UV-I 69 W/m 0,1 C -9,4 C 38,6 km/h (5 Bft) 97,87 %
04.01.2017 10:08 1,0 C 94 % 1012,0 hPa 0,0 l/m 21,2 km/h (4 Bft) W-SW 242 0 min 0,000 mm 0,0 UV-I 69 W/m 0,1 C -8,9 C 32,2 km/h (5 Bft) 97,87 %
04.01.2017 10:10 1,0 C 94 % 1012,0 hPa 0,0 l/m 21,7 km/h (4 Bft) SW 227 0 min 0,000 mm 0,0 UV-I 68 W/m 0,1 C -9,1 C 35,4 km/h (5 Bft) 95,74 %
04.01.2017 10:12 1,0 C 94 % 1012,0 hPa 0,0 l/m 19,2 km/h (3 Bft) W-SW 238 0 min 0,000 mm 0,0 UV-I 63 W/m 0,1 C -8,0 C 27,4 km/h (4 Bft) 97,37 %
04.01.2017 10:14 1,0 C 94 % 1012,0 hPa 0,0 l/m 24,3 km/h (4 Bft) SW 224 0 min 0,000 mm 0,0 UV-I 61 W/m 0,1 C -10,1 C 43,5 km/h (6 Bft) 95,74 %
04.01.2017 10:16 1,0 C 94 % 1011,9 hPa 0,0 l/m 20,0 km/h (4 Bft) W-SW 252 0 min 0,000 mm 0,0 UV-I 57 W/m 0,1 C -8,3 C 29,0 km/h (5 Bft) 97,87 %
04.01.2017 10:18 1,0 C 94 % 1011,9 hPa 0,0 l/m 23,0 km/h (4 Bft) W 266 0 min 0,000 mm 0,0 UV-I 58 W/m 0,1 C -9,6 C 37,0 km/h (5 Bft) 96,00 %
04.01.2017 10:20 1,0 C 94 % 1011,9 hPa 0,0 l/m 24,3 km/h (4 Bft) W-SW 239 0 min 0,000 mm 0,0 UV-I 56 W/m 0,1 C -10,1 C 35,4 km/h (5 Bft) 100,00 %
04.01.2017 10:22 1,0 C 94 % 1011,9 hPa 0,0 l/m 20,5 km/h (4 Bft) W 269 0 min 0,000 mm 0,0 UV-I 54 W/m 0,1 C -8,6 C 27,4 km/h (4 Bft) 100,00 %
04.01.2017 10:24 1,0 C 94 % 1011,9 hPa 0,0 l/m 22,0 km/h (4 Bft) W-SW 258 0 min 0,000 mm 0,0 UV-I 57 W/m 0,1 C -9,2 C 32,2 km/h (5 Bft) 100,00 %
04.01.2017 10:26 1,0 C 94 % 1011,8 hPa 0,0 l/m 22,8 km/h (4 Bft) W-SW 242 0 min 0,000 mm 0,0 UV-I 58 W/m 0,1 C -9,5 C 37,0 km/h (5 Bft) 97,87 %
04.01.2017 10:28 1,0 C 94 % 1011,8 hPa 0,0 l/m 21,9 km/h (4 Bft) W-SW 250 0 min 0,000 mm 0,0 UV-I 59 W/m 0,1 C -9,2 C 32,2 km/h (5 Bft) 100,00 %
04.01.2017 10:30 1,0 C 94 % 1011,7 hPa 0,0 l/m 20,8 km/h (4 Bft) W-SW 238 0 min 0,000 mm 0,0 UV-I 62 W/m 0,1 C -8,7 C 33,8 km/h (5 Bft) 97,87 %
04.01.2017 10:32 1,1 C 94 % 1011,8 hPa 0,0 l/m 23,1 km/h (4 Bft) S-SW 212 0 min 0,000 mm 0,0 UV-I 63 W/m 0,2 C -9,5 C 32,2 km/h (5 Bft) 97,87 %
04.01.2017 10:34 1,1 C 93 % 1011,7 hPa 0,0 l/m 23,3 km/h (4 Bft) W 261 0 min 0,000 mm 0,0 UV-I 67 W/m 0,1 C -9,6 C 33,8 km/h (5 Bft) 97,37 %
04.01.2017 10:36 1,1 C 93 % 1011,6 hPa 0,0 l/m 20,0 km/h (4 Bft) SW 234 0 min 0,000 mm 0,0 UV-I 67 W/m 0,1 C -8,2 C 29,0 km/h (5 Bft) 100,00 %
04.01.2017 10:38 1,1 C 93 % 1011,7 hPa 0,0 l/m 24,5 km/h (4 Bft) W-SW 250 0 min 0,000 mm 0,0 UV-I 65 W/m 0,1 C -10,0 C 33,8 km/h (5 Bft) 100,00 %
04.01.2017 10:40 1,1 C 93 % 1011,7 hPa 0,0 l/m 23,3 km/h (4 Bft) SW 227 0 min 0,000 mm 0,0 UV-I 63 W/m 0,1 C -9,6 C 30,6 km/h (5 Bft) 97,87 %
04.01.2017 10:42 1,2 C 93 % 1011,7 hPa 0,0 l/m 19,3 km/h (3 Bft) SW 215 0 min 0,000 mm 0,0 UV-I 62 W/m 0,2 C -7,8 C 30,6 km/h (5 Bft) 97,87 %
04.01.2017 10:44 1,2 C 93 % 1011,6 hPa 0,0 l/m 22,7 km/h (4 Bft) SW 222 0 min 0,000 mm 0,0 UV-I 67 W/m 0,2 C -9,2 C 33,8 km/h (5 Bft) 100,00 %
04.01.2017 10:46 1,2 C 93 % 1011,5 hPa 0,0 l/m 22,7 km/h (4 Bft) SW 226 0 min 0,000 mm 0,0 UV-I 70 W/m 0,2 C -9,2 C 35,4 km/h (5 Bft) 100,00 %
04.01.2017 10:48 1,2 C 93 % 1011,5 hPa 0,0 l/m 20,5 km/h (4 Bft) SW 232 0 min 0,000 mm 0,0 UV-I 69 W/m 0,2 C -8,3 C 30,6 km/h (5 Bft) 100,00 %
04.01.2017 10:50 1,2 C 93 % 1011,4 hPa 0,0 l/m 19,8 km/h (3 Bft) W 271 0 min 0,000 mm 0,0 UV-I 66 W/m 0,2 C -8,0 C 30,6 km/h (5 Bft) 98,00 %
04.01.2017 10:52 1,2 C 93 % 1011,4 hPa 0,0 l/m 18,5 km/h (3 Bft) W-SW 248 0 min 0,000 mm 0,0 UV-I 62 W/m 0,2 C -7,4 C 27,4 km/h (4 Bft) 100,00 %
04.01.2017 10:54 1,2 C 93 % 1011,4 hPa 0,0 l/m 22,5 km/h (4 Bft) S-SO 159 0 min 0,000 mm 0,0 UV-I 55 W/m 0,2 C -9,1 C 40,2 km/h (6 Bft) 97,87 %
04.01.2017 10:56 1,2 C 93 % 1011,3 hPa 0,0 l/m 25,1 km/h (4 Bft) W-SW 248 0 min 0,000 mm 0,0 UV-I 48 W/m 0,2 C -10,1 C 33,8 km/h (5 Bft) 98,00 %
04.01.2017 10:58 1,2 C 93 % 1011,4 hPa 0,0 l/m 19,0 km/h (3 Bft) W-SW 238 0 min 0,000 mm 0,0 UV-I 52 W/m 0,2 C -7,6 C 32,2 km/h (5 Bft) 97,87 %
04.01.2017 11:00 1,2 C 93 % 1011,3 hPa 0,0 l/m 25,5 km/h (4 Bft) W-SW 242 0 min 0,025 mm 0,0 UV-I 57 W/m 0,2 C -10,3 C 40,2 km/h (6 Bft) 97,87 %
04.01.2017 11:02 1,2 C 93 % 1011,3 hPa 0,0 l/m 23,2 km/h (4 Bft) W-SW 250 0 min 0,000 mm 0,0 UV-I 56 W/m 0,2 C -9,4 C 32,2 km/h (5 Bft) 100,00 %
04.01.2017 11:04 1,1 C 93 % 1011,2 hPa 0,0 l/m 21,8 km/h (4 Bft) W 269 0 min 0,000 mm 0,0 UV-I 61 W/m 0,1 C -9,0 C 29,0 km/h (5 Bft) 97,87 %
04.01.2017 11:06 1,1 C 93 % 1011,2 hPa 0,0 l/m 21,9 km/h (4 Bft) W-SW 242 0 min 0,000 mm 0,0 UV-I 64 W/m 0,1 C -9,0 C 35,4 km/h (5 Bft) 100,00 %
04.01.2017 11:08 1,1 C 93 % 1011,1 hPa 0,0 l/m 20,9 km/h (4 Bft) W-SW 239 0 min 0,000 mm 0,0 UV-I 59 W/m 0,1 C -8,6 C 32,2 km/h (5 Bft) 100,00 %
04.01.2017 11:10 1,1 C 93 % 1011,1 hPa 0,0 l/m 19,5 km/h (3 Bft) W-SW 256 0 min 0,000 mm 0,0 UV-I 52 W/m 0,1 C -8,0 C 37,0 km/h (5 Bft) 100,00 %
04.01.2017 11:12 1,1 C 93 % 1011,0 hPa 0,0 l/m 23,5 km/h (4 Bft) W-SW 239 0 min 0,000 mm 0,0 UV-I 45 W/m 0,1 C -9,7 C 33,8 km/h (5 Bft) 100,00 %
04.01.2017 11:14 1,1 C 93 % 1010,9 hPa 0,0 l/m 25,7 km/h (4 Bft) W-NW 290 0 min 0,000 mm 0,0 UV-I 43 W/m 0,1 C -10,5 C 38,6 km/h (5 Bft) 97,87 %
04.01.2017 11:16 1,1 C 93 % 1010,9 hPa 0,0 l/m 18,4 km/h (3 Bft) W-SW 250 0 min 0,000 mm 0,0 UV-I 46 W/m 0,1 C -7,5 C 25,7 km/h (4 Bft) 100,00 %
04.01.2017 11:18 1,1 C 93 % 1010,9 hPa 0,0 l/m 27,9 km/h (4 Bft) W-SW 248 0 min 0,000 mm 0,0 UV-I 51 W/m 0,1 C -11,2 C 40,2 km/h (6 Bft) 100,00 %
04.01.2017 11:20 1,1 C 94 % 1010,9 hPa 0,0 l/m 21,8 km/h (4 Bft) W-SW 257 0 min 0,000 mm 0,0 UV-I 54 W/m 0,2 C -9,0 C 30,6 km/h (5 Bft) 100,00 %
04.01.2017 11:22 1,1 C 94 % 1010,9 hPa 0,0 l/m 24,0 km/h (4 Bft) W-SW 249 0 min 0,000 mm 0,0 UV-I 54 W/m 0,2 C -9,9 C 35,4 km/h (5 Bft) 100,00 %
04.01.2017 11:24 1,0 C 94 % 1010,9 hPa 0,0 l/m 19,9 km/h (4 Bft) W-SW 255 0 min 0,000 mm 0,0 UV-I 55 W/m 0,1 C -8,3 C 30,6 km/h (5 Bft) 97,87 %
04.01.2017 11:26 1,0 C 94 % 1010,9 hPa 0,0 l/m 20,8 km/h (4 Bft) SW 221 0 min 0,000 mm 0,0 UV-I 56 W/m 0,1 C -8,7 C 30,6 km/h (5 Bft) 100,00 %
04.01.2017 11:28 1,0 C 94 % 1010,8 hPa 0,0 l/m 21,6 km/h (4 Bft) W-SW 256 0 min 0,000 mm 0,0 UV-I 55 W/m 0,1 C -9,0 C 30,6 km/h (5 Bft) 97,87 %
04.01.2017 11:30 1,0 C 94 % 1010,7 hPa 0,0 l/m 23,7 km/h (4 Bft) W-SW 255 0 min 0,000 mm 0,0 UV-I 52 W/m 0,1 C -9,9 C 30,6 km/h (5 Bft) 100,00 %
04.01.2017 11:32 1,0 C 94 % 1010,8 hPa 0,0 l/m 18,3 km/h (3 Bft) W-SW 252 0 min 0,000 mm 0,0 UV-I 48 W/m 0,1 C -7,5 C 30,6 km/h (5 Bft) 100,00 %
04.01.2017 11:34 1,0 C 94 % 1010,7 hPa 0,0 l/m 18,8 km/h (3 Bft) W 262 0 min 0,000 mm 0,0 UV-I 46 W/m 0,1 C -7,8 C 32,2 km/h (5 Bft) 100,00 %
04.01.2017 11:36 1,0 C 94 % 1010,5 hPa 0,0 l/m 18,4 km/h (3 Bft) W-SW 246 0 min 0,000 mm 0,0 UV-I 46 W/m 0,1 C -7,6 C 30,6 km/h (5 Bft) 100,00 %
04.01.2017 11:38 0,9 C 94 % 1010,5 hPa 0,0 l/m 17,2 km/h (3 Bft) W-SW 245 0 min 0,000 mm 0,0 UV-I 50 W/m 0,0 C -7,1 C 25,7 km/h (4 Bft) 100,00 %
04.01.2017 11:40 0,9 C 94 % 1010,5 hPa 0,0 l/m 21,9 km/h (4 Bft) W 265 0 min 0,000 mm 0,0 UV-I 54 W/m 0,0 C -9,3 C 30,6 km/h (5 Bft) 100,00 %
04.01.2017 11:42 0,9 C 94 % 1010,4 hPa 0,0 l/m 23,2 km/h (4 Bft) W-SW 243 0 min 0,000 mm 0,0 UV-I 60 W/m 0,0 C -9,8 C 38,6 km/h (5 Bft) 100,00 %
04.01.2017 11:44 0,9 C 94 % 1010,4 hPa 0,0 l/m 22,1 km/h (4 Bft) SW 228 0 min 0,000 mm 0,0 UV-I 64 W/m 0,0 C -9,4 C 30,6 km/h (5 Bft) 100,00 %
04.01.2017 11:46 1,0 C 94 % 1010,3 hPa 0,0 l/m 23,6 km/h (4 Bft) SW 221 0 min 0,000 mm 0,0 UV-I 70 W/m 0,1 C -9,8 C 37,0 km/h (5 Bft) 97,87 %
04.01.2017 11:48 1,0 C 94 % 1010,4 hPa 0,0 l/m 18,8 km/h (3 Bft) W-SW 242 0 min 0,000 mm 0,0 UV-I 73 W/m 0,1 C -7,8 C 27,4 km/h (4 Bft) 97,92 %
04.01.2017 11:50 1,0 C 94 % 1010,4 hPa 0,0 l/m 21,7 km/h (4 Bft) W-SW 257 0 min 0,000 mm 0,0 UV-I 69 W/m 0,1 C -9,1 C 32,2 km/h (5 Bft) 97,87 %
04.01.2017 11:52 1,0 C 94 % 1010,3 hPa 0,0 l/m 20,7 km/h (4 Bft) SW 236 0 min 0,000 mm 0,0 UV-I 74 W/m 0,1 C -8,7 C 30,6 km/h (5 Bft) 95,74 %
04.01.2017 11:54 1,0 C 94 % 1010,3 hPa 0,0 l/m 19,9 km/h (4 Bft) W-SW 250 0 min 0,000 mm 0,0 UV-I 76 W/m 0,1 C -8,3 C 27,4 km/h (4 Bft) 97,87 %
04.01.2017 11:56 1,1 C 94 % 1010,2 hPa 0,0 l/m 20,1 km/h (4 Bft) W 267 0 min 0,000 mm 0,0 UV-I 77 W/m 0,2 C -8,3 C 32,2 km/h (5 Bft) 97,87 %
04.01.2017 11:58 1,1 C 94 % 1010,1 hPa 0,0 l/m 23,6 km/h (4 Bft) W-SW 250 0 min 0,000 mm 0,0 UV-I 79 W/m 0,2 C -9,7 C 37,0 km/h (5 Bft) 95,74 %
04.01.2017 12:00 1,1 C 94 % 1010,1 hPa 0,0 l/m 22,6 km/h (4 Bft) W 259 0 min 0,026 mm 0,0 UV-I 76 W/m 0,2 C -9,3 C 33,8 km/h (5 Bft) 95,83 %
04.01.2017 12:02 1,1 C 94 % 1010,2 hPa 0,0 l/m 20,0 km/h (4 Bft) W-SW 257 0 min 0,000 mm 0,0 UV-I 75 W/m 0,2 C -8,2 C 32,2 km/h (5 Bft) 97,22 %
04.01.2017 12:04 1,1 C 94 % 1010,2 hPa 0,0 l/m 20,2 km/h (4 Bft) W 273 0 min 0,000 mm 0,0 UV-I 68 W/m 0,2 C -8,3 C 37,0 km/h (5 Bft) 95,74 %
04.01.2017 12:06 1,1 C 94 % 1010,2 hPa 0,0 l/m 23,1 km/h (4 Bft) W-SW 245 0 min 0,000 mm 0,0 UV-I 62 W/m 0,2 C -9,5 C 30,6 km/h (5 Bft) 95,74 %
04.01.2017 12:08 1,1 C 94 % 1010,1 hPa 0,0 l/m 20,4 km/h (4 Bft) W-SW 257 0 min 0,000 mm 0,0 UV-I 58 W/m 0,2 C -8,4 C 27,4 km/h (4 Bft) 95,74 %
04.01.2017 12:10 1,1 C 94 % 1010,2 hPa 0,0 l/m 24,3 km/h (4 Bft) W-SW 240 0 min 0,000 mm 0,0 UV-I 53 W/m 0,2 C -10,0 C 35,4 km/h (5 Bft) 97,92 %
04.01.2017 12:12 1,2 C 94 % 1010,1 hPa 0,0 l/m 25,8 km/h (4 Bft) W 267 0 min 0,000 mm 0,0 UV-I 51 W/m 0,3 C -10,4 C 33,8 km/h (5 Bft) 93,62 %
04.01.2017 12:14 1,2 C 94 % 1010,1 hPa 0,0 l/m 25,6 km/h (4 Bft) W-SW 247 0 min 0,000 mm 0,0 UV-I 51 W/m 0,3 C -10,3 C 35,4 km/h (5 Bft) 95,74 %
04.01.2017 12:16 1,2 C 94 % 1010,1 hPa 0,0 l/m 19,0 km/h (3 Bft) W 259 0 min 0,000 mm 0,0 UV-I 50 W/m 0,3 C -7,6 C 32,2 km/h (5 Bft) 98,00 %
04.01.2017 12:18 1,2 C 94 % 1010,0 hPa 0,0 l/m 21,4 km/h (4 Bft) W-SW 257 0 min 0,000 mm 0,0 UV-I 46 W/m 0,3 C -8,7 C 32,2 km/h (5 Bft) 93,62 %
04.01.2017 12:20 1,1 C 94 % 1010,1 hPa 0,0 l/m 20,2 km/h (4 Bft) W-SW 238 0 min 0,000 mm 0,0 UV-I 44 W/m 0,2 C -8,3 C 32,2 km/h (5 Bft) 98,00 %
04.01.2017 12:22 1,1 C 94 % 1010,1 hPa 0,0 l/m 17,9 km/h (3 Bft) S-SW 206 0 min 0,000 mm 0,0 UV-I 41 W/m 0,2 C -7,2 C 24,1 km/h (4 Bft) 95,74 %
04.01.2017 12:24 1,1 C 94 % 1010,1 hPa 0,0 l/m 17,5 km/h (3 Bft) W-SW 248 0 min 0,000 mm 0,0 UV-I 38 W/m 0,2 C -7,0 C 27,4 km/h (4 Bft) 97,87 %
04.01.2017 12:26 1,1 C 94 % 1010,1 hPa 0,0 l/m 17,1 km/h (3 Bft) W-SW 257 0 min 0,000 mm 0,0 UV-I 38 W/m 0,2 C -6,8 C 29,0 km/h (5 Bft) 97,22 %
04.01.2017 12:28 1,1 C 94 % 1010,0 hPa 0,0 l/m 19,9 km/h (4 Bft) W-SW 254 0 min 0,000 mm 0,0 UV-I 37 W/m 0,2 C -8,2 C 30,6 km/h (5 Bft) 100,00 %
04.01.2017 12:30 1,1 C 94 % 1010,0 hPa 0,0 l/m 16,7 km/h (3 Bft) SW 217 0 min 0,000 mm 0,0 UV-I 38 W/m 0,2 C -6,6 C 27,4 km/h (4 Bft) 100,00 %
04.01.2017 12:32 1,0 C 94 % 1010,0 hPa 0,0 l/m 18,6 km/h (3 Bft) SW 219 0 min 0,000 mm 0,0 UV-I 36 W/m 0,1 C -7,7 C 30,6 km/h (5 Bft) 100,00 %
04.01.2017 12:34 1,0 C 94 % 1010,0 hPa 0,0 l/m 16,9 km/h (3 Bft) SW 235 0 min 0,000 mm 0,0 UV-I 39 W/m 0,1 C -6,8 C 24,1 km/h (4 Bft) 95,74 %
04.01.2017 12:36 1,0 C 95 % 1010,1 hPa 0,0 l/m 17,3 km/h (3 Bft) S-SW 200 0 min 0,000 mm 0,0 UV-I 38 W/m 0,3 C -7,0 C 25,7 km/h (4 Bft) 97,87 %
04.01.2017 12:38 0,9 C 95 % 1010,0 hPa 0,0 l/m 16,7 km/h (3 Bft) W-SW 252 0 min 0,000 mm 0,0 UV-I 39 W/m 0,2 C -6,8 C 24,1 km/h (4 Bft) 100,00 %
04.01.2017 12:40 0,9 C 95 % 1009,9 hPa 0,0 l/m 16,8 km/h (3 Bft) W 261 0 min 0,000 mm 0,0 UV-I 40 W/m 0,2 C -6,9 C 22,5 km/h (4 Bft) 97,87 %
04.01.2017 12:42 0,9 C 95 % 1009,8 hPa 0,0 l/m 18,8 km/h (3 Bft) W-SW 257 0 min 0,000 mm 0,0 UV-I 42 W/m 0,2 C -7,9 C 29,0 km/h (5 Bft) 100,00 %
04.01.2017 12:44 0,9 C 95 % 1009,9 hPa 0,0 l/m 19,0 km/h (3 Bft) SW 217 0 min 0,000 mm 0,0 UV-I 42 W/m 0,2 C -8,0 C 25,7 km/h (4 Bft) 100,00 %
04.01.2017 12:46 0,9 C 95 % 1009,8 hPa 0,0 l/m 16,6 km/h (3 Bft) W-SW 257 0 min 0,000 mm 0,0 UV-I 35 W/m 0,2 C -6,8 C 24,1 km/h (4 Bft) 100,00 %
04.01.2017 12:48 0,9 C 95 % 1009,8 hPa 0,0 l/m 16,0 km/h (3 Bft) W-SW 257 0 min 0,000 mm 0,0 UV-I 32 W/m 0,2 C -6,5 C 25,7 km/h (4 Bft) 97,96 %
04.01.2017 12:50 0,9 C 95 % 1009,7 hPa 0,0 l/m 18,6 km/h (3 Bft) SW 229 0 min 0,000 mm 0,0 UV-I 33 W/m 0,2 C -7,8 C 27,4 km/h (4 Bft) 100,00 %
04.01.2017 12:52 0,9 C 95 % 1009,7 hPa 0,0 l/m 20,5 km/h (4 Bft) W-SW 258 0 min 0,000 mm 0,0 UV-I 35 W/m 0,2 C -8,7 C 29,0 km/h (5 Bft) 93,62 %
04.01.2017 12:54 0,9 C 95 % 1009,7 hPa 0,0 l/m 20,5 km/h (4 Bft) W-SW 256 0 min 0,000 mm 0,0 UV-I 35 W/m 0,2 C -8,7 C 25,7 km/h (4 Bft) 100,00 %
04.01.2017 12:56 0,8 C 95 % 1009,7 hPa 0,0 l/m 20,2 km/h (4 Bft) W-SW 245 0 min 0,000 mm 0,0 UV-I 36 W/m 0,1 C -8,7 C 30,6 km/h (5 Bft) 100,00 %
04.01.2017 12:58 0,8 C 95 % 1009,7 hPa 0,0 l/m 21,6 km/h (4 Bft) W 269 0 min 0,000 mm 0,0 UV-I 34 W/m 0,1 C -9,3 C 37,0 km/h (5 Bft) 100,00 %
04.01.2017 13:00 0,8 C 95 % 1009,7 hPa 0,0 l/m 18,6 km/h (3 Bft) SW 236 0 min 0,025 mm 0,0 UV-I 33 W/m 0,1 C -7,9 C 27,4 km/h (4 Bft) 100,00 %
04.01.2017 13:02 0,8 C 95 % 1009,8 hPa 0,0 l/m 14,8 km/h (3 Bft) W-SW 238 0 min 0,000 mm 0,0 UV-I 32 W/m 0,1 C -5,9 C 22,5 km/h (4 Bft) 97,87 %
04.01.2017 13:04 0,8 C 95 % 1009,7 hPa 0,0 l/m 14,0 km/h (3 Bft) W 273 0 min 0,000 mm 0,0 UV-I 33 W/m 0,1 C -5,4 C 24,1 km/h (4 Bft) 97,87 %
04.01.2017 13:06 0,8 C 95 % 1009,8 hPa 0,0 l/m 19,2 km/h (3 Bft) W 268 0 min 0,000 mm 0,0 UV-I 31 W/m 0,1 C -8,2 C 30,6 km/h (5 Bft) 100,00 %
04.01.2017 13:08 0,8 C 95 % 1009,8 hPa 0,0 l/m 16,9 km/h (3 Bft) SW 227 0 min 0,000 mm 0,0 UV-I 31 W/m 0,1 C -7,1 C 22,5 km/h (4 Bft) 100,00 %
04.01.2017 13:10 0,8 C 95 % 1009,8 hPa 0,0 l/m 18,4 km/h (3 Bft) W 259 0 min 0,000 mm 0,0 UV-I 28 W/m 0,1 C -7,8 C 27,4 km/h (4 Bft) 100,00 %
04.01.2017 13:12 0,8 C 95 % 1009,7 hPa 0,0 l/m 20,2 km/h (4 Bft) W 272 0 min 0,000 mm 0,0 UV-I 28 W/m 0,1 C -8,7 C 29,0 km/h (5 Bft) 100,00 %
04.01.2017 13:14 0,8 C 95 % 1009,7 hPa 0,0 l/m 17,5 km/h (3 Bft) W-SW 238 0 min 0,000 mm 0,0 UV-I 29 W/m 0,1 C -7,4 C 24,1 km/h (4 Bft) 98,00 %
04.01.2017 13:16 0,8 C 95 % 1009,6 hPa 0,0 l/m 18,9 km/h (3 Bft) SW 221 0 min 0,000 mm 0,0 UV-I 30 W/m 0,1 C -8,1 C 25,7 km/h (4 Bft) 98,00 %
04.01.2017 13:18 0,8 C 95 % 1009,6 hPa 0,0 l/m 19,3 km/h (3 Bft) SW 228 0 min 0,000 mm 0,0 UV-I 31 W/m 0,1 C -8,3 C 29,0 km/h (5 Bft) 100,00 %
04.01.2017 13:20 0,8 C 95 % 1009,5 hPa 0,0 l/m 18,3 km/h (3 Bft) S-SW 207 0 min 0,000 mm 0,0 UV-I 27 W/m 0,1 C -7,8 C 24,1 km/h (4 Bft) 97,87 %
04.01.2017 13:22 0,8 C 95 % 1009,6 hPa 0,0 l/m 18,2 km/h (3 Bft) SW 227 0 min 0,000 mm 0,0 UV-I 25 W/m 0,1 C -7,7 C 25,7 km/h (4 Bft) 97,87 %
04.01.2017 13:24 0,7 C 96 % 1009,6 hPa 0,0 l/m 20,4 km/h (4 Bft) W-SW 256 0 min 0,000 mm 0,0 UV-I 25 W/m 0,1 C -8,9 C 32,2 km/h (5 Bft) 97,87 %
04.01.2017 13:26 0,8 C 96 % 1009,5 hPa 0,0 l/m 21,5 km/h (4 Bft) W-NW 298 0 min 0,000 mm 0,0 UV-I 25 W/m 0,2 C -9,3 C 29,0 km/h (5 Bft) 97,87 %
04.01.2017 13:28 0,8 C 96 % 1009,5 hPa 0,0 l/m 22,6 km/h (4 Bft) W-SW 239 0 min 0,000 mm 0,0 UV-I 28 W/m 0,2 C -9,7 C 32,2 km/h (5 Bft) 100,00 %
04.01.2017 13:30 0,8 C 96 % 1009,5 hPa 0,0 l/m 21,1 km/h (4 Bft) W-SW 250 0 min 0,000 mm 0,0 UV-I 30 W/m 0,2 C -9,1 C 30,6 km/h (5 Bft) 100,00 %
04.01.2017 13:32 0,8 C 96 % 1009,5 hPa 0,0 l/m 19,7 km/h (3 Bft) W-SW 252 0 min 0,000 mm 0,0 UV-I 29 W/m 0,2 C -8,5 C 35,4 km/h (5 Bft) 97,87 %
04.01.2017 13:34 0,8 C 96 % 1009,5 hPa 0,0 l/m 21,3 km/h (4 Bft) W-SW 258 0 min 0,000 mm 0,0 UV-I 32 W/m 0,2 C -9,2 C 30,6 km/h (5 Bft) 95,74 %
04.01.2017 13:36 0,8 C 96 % 1009,4 hPa 0,0 l/m 19,4 km/h (3 Bft) SW 225 0 min 0,000 mm 0,0 UV-I 33 W/m 0,2 C -8,3 C 25,7 km/h (4 Bft) 100,00 %
04.01.2017 13:38 0,8 C 96 % 1009,4 hPa 0,0 l/m 22,3 km/h (4 Bft) SW 220 0 min 0,000 mm 0,0 UV-I 39 W/m 0,2 C -9,6 C 33,8 km/h (5 Bft) 97,87 %
04.01.2017 13:40 0,8 C 96 % 1009,4 hPa 0,0 l/m 23,3 km/h (4 Bft) W-SW 253 0 min 0,000 mm 0,0 UV-I 39 W/m 0,2 C -10,0 C 35,4 km/h (5 Bft) 100,00 %
04.01.2017 13:42 0,8 C 96 % 1009,5 hPa 0,0 l/m 22,7 km/h (4 Bft) S-SW 211 0 min 0,000 mm 0,0 UV-I 42 W/m 0,2 C -9,8 C 30,6 km/h (5 Bft) 97,87 %
04.01.2017 13:44 0,9 C 96 % 1009,5 hPa 0,0 l/m 23,2 km/h (4 Bft) W-SW 244 0 min 0,000 mm 0,0 UV-I 40 W/m 0,3 C -9,8 C 37,0 km/h (5 Bft) 100,00 %
04.01.2017 13:46 0,9 C 96 % 1009,5 hPa 0,0 l/m 20,6 km/h (4 Bft) W-SW 254 0 min 0,000 mm 0,0 UV-I 36 W/m 0,3 C -8,7 C 32,2 km/h (5 Bft) 97,87 %
04.01.2017 13:48 0,9 C 96 % 1009,3 hPa 0,0 l/m 22,2 km/h (4 Bft) W-SW 253 0 min 0,000 mm 0,0 UV-I 33 W/m 0,3 C -9,4 C 30,6 km/h (5 Bft) 95,74 %
04.01.2017 13:50 0,9 C 96 % 1009,3 hPa 0,0 l/m 24,0 km/h (4 Bft) W-SW 239 0 min 0,000 mm 0,0 UV-I 33 W/m 0,3 C -10,1 C 41,8 km/h (6 Bft) 100,00 %
04.01.2017 13:52 0,9 C 96 % 1009,4 hPa 0,0 l/m 22,0 km/h (4 Bft) SW 225 0 min 0,000 mm 0,0 UV-I 35 W/m 0,3 C -9,3 C 32,2 km/h (5 Bft) 100,00 %
04.01.2017 13:54 0,9 C 96 % 1009,3 hPa 0,0 l/m 21,8 km/h (4 Bft) W 269 0 min 0,000 mm 0,0 UV-I 34 W/m 0,3 C -9,3 C 35,4 km/h (5 Bft) 97,87 %
04.01.2017 13:56 1,0 C 96 % 1009,4 hPa 0,0 l/m 19,4 km/h (3 Bft) W 263 0 min 0,000 mm 0,0 UV-I 31 W/m 0,4 C -8,1 C 27,4 km/h (4 Bft) 100,00 %
04.01.2017 13:58 1,0 C 96 % 1009,4 hPa 0,0 l/m 21,1 km/h (4 Bft) SW 219 0 min 0,000 mm 0,0 UV-I 31 W/m 0,4 C -8,8 C 32,2 km/h (5 Bft) 100,00 %
04.01.2017 14:00 1,0 C 96 % 1009,4 hPa 0,0 l/m 22,2 km/h (4 Bft) W 262 0 min 0,025 mm 0,0 UV-I 30 W/m 0,4 C -9,3 C 32,2 km/h (5 Bft) 97,87 %
04.01.2017 14:02 1,0 C 96 % 1009,5 hPa 0,0 l/m 21,1 km/h (4 Bft) SW 233 0 min 0,000 mm 0,0 UV-I 31 W/m 0,4 C -8,8 C 27,4 km/h (4 Bft) 95,74 %
04.01.2017 14:04 1,0 C 96 % 1009,4 hPa 0,0 l/m 20,7 km/h (4 Bft) SW 229 0 min 0,000 mm 0,0 UV-I 33 W/m 0,4 C -8,7 C 33,8 km/h (5 Bft) 95,74 %
04.01.2017 14:06 1,0 C 96 % 1009,4 hPa 0,0 l/m 20,8 km/h (4 Bft) W-SW 256 0 min 0,000 mm 0,0 UV-I 29 W/m 0,4 C -8,7 C 33,8 km/h (5 Bft) 97,37 %
04.01.2017 14:08 1,0 C 96 % 1009,4 hPa 0,0 l/m 21,3 km/h (4 Bft) SW 228 0 min 0,000 mm 0,0 UV-I 28 W/m 0,4 C -8,9 C 30,6 km/h (5 Bft) 95,74 %
04.01.2017 14:10 1,1 C 96 % 1009,4 hPa 0,0 l/m 24,0 km/h (4 Bft) W-SW 237 0 min 0,000 mm 0,0 UV-I 28 W/m 0,5 C -9,9 C 37,0 km/h (5 Bft) 93,62 %
04.01.2017 14:12 1,1 C 96 % 1009,4 hPa 0,0 l/m 27,0 km/h (4 Bft) W-SW 252 0 min 0,000 mm 0,0 UV-I 33 W/m 0,5 C -10,9 C 41,8 km/h (6 Bft) 95,74 %
04.01.2017 14:14 1,1 C 95 % 1009,4 hPa 0,0 l/m 24,6 km/h (4 Bft) W-SW 252 0 min 0,000 mm 0,0 UV-I 34 W/m 0,4 C -10,1 C 40,2 km/h (6 Bft) 97,87 %
04.01.2017 14:16 1,2 C 95 % 1009,3 hPa 0,0 l/m 25,1 km/h (4 Bft) W-SW 254 0 min 0,000 mm 0,0 UV-I 34 W/m 0,5 C -10,1 C 41,8 km/h (6 Bft) 95,74 %
04.01.2017 14:18 1,2 C 95 % 1009,4 hPa 0,0 l/m 27,2 km/h (4 Bft) W-SW 252 0 min 0,000 mm 0,0 UV-I 39 W/m 0,5 C -10,8 C 35,4 km/h (5 Bft) 98,00 %
04.01.2017 14:20 1,3 C 95 % 1009,4 hPa 0,0 l/m 24,3 km/h (4 Bft) W 273 0 min 0,000 mm 0,0 UV-I 37 W/m 0,6 C -9,7 C 46,7 km/h (6 Bft) 97,87 %
04.01.2017 14:22 1,3 C 95 % 1009,4 hPa 0,0 l/m 26,9 km/h (4 Bft) W 261 0 min 0,000 mm 0,0 UV-I 26 W/m 0,6 C -10,6 C 38,6 km/h (5 Bft) 97,92 %
04.01.2017 14:24 1,4 C 94 % 1009,4 hPa 0,0 l/m 20,0 km/h (4 Bft) SW 229 0 min 0,000 mm 0,0 UV-I 24 W/m 0,5 C -7,8 C 32,2 km/h (5 Bft) 95,74 %
04.01.2017 14:26 1,4 C 94 % 1009,4 hPa 0,0 l/m 20,5 km/h (4 Bft) S-SW 207 0 min 0,000 mm 0,0 UV-I 32 W/m 0,5 C -8,0 C 29,0 km/h (5 Bft) 97,87 %
04.01.2017 14:28 1,4 C 94 % 1009,3 hPa 0,0 l/m 21,8 km/h (4 Bft) W-SW 251 0 min 0,000 mm 0,0 UV-I 33 W/m 0,5 C -8,6 C 33,8 km/h (5 Bft) 98,00 %
04.01.2017 14:30 1,4 C 94 % 1009,4 hPa 0,0 l/m 26,2 km/h (4 Bft) W 273 0 min 0,000 mm 0,0 UV-I 28 W/m 0,5 C -10,2 C 38,6 km/h (5 Bft) 98,00 %
04.01.2017 14:32 1,4 C 93 % 1009,3 hPa 0,0 l/m 27,4 km/h (4 Bft) W-SW 242 0 min 0,000 mm 0,0 UV-I 28 W/m 0,4 C -10,6 C 48,3 km/h (6 Bft) 97,87 %
04.01.2017 14:34 1,5 C 93 % 1009,4 hPa 0,0 l/m 24,4 km/h (4 Bft) W-SW 242 0 min 0,000 mm 0,0 UV-I 35 W/m 0,5 C -9,5 C 38,6 km/h (5 Bft) 97,14 %
04.01.2017 14:36 1,5 C 93 % 1009,2 hPa 0,0 l/m 27,7 km/h (4 Bft) S-SW 209 0 min 0,000 mm 0,0 UV-I 39 W/m 0,5 C -10,6 C 37,0 km/h (5 Bft) 97,87 %
04.01.2017 14:38 1,5 C 93 % 1009,3 hPa 0,0 l/m 23,6 km/h (4 Bft) W-SW 248 0 min 0,000 mm 0,0 UV-I 37 W/m 0,5 C -9,2 C 35,4 km/h (5 Bft) 97,87 %
04.01.2017 14:40 1,6 C 93 % 1009,3 hPa 0,0 l/m 23,9 km/h (4 Bft) W-SW 257 0 min 0,000 mm 0,0 UV-I 27 W/m 0,6 C -9,2 C 37,0 km/h (5 Bft) 100,00 %
04.01.2017 14:42 1,6 C 92 % 1009,4 hPa 0,0 l/m 23,1 km/h (4 Bft) W-SW 250 0 min 0,000 mm 0,0 UV-I 20 W/m 0,4 C -8,8 C 32,2 km/h (5 Bft) 100,00 %
04.01.2017 14:44 1,6 C 92 % 1009,4 hPa 0,0 l/m 24,3 km/h (4 Bft) W-SW 246 0 min 0,000 mm 0,0 UV-I 19 W/m 0,4 C -9,3 C 33,8 km/h (5 Bft) 95,74 %
04.01.2017 14:46 1,6 C 92 % 1009,4 hPa 0,0 l/m 22,7 km/h (4 Bft) SW 232 0 min 0,000 mm 0,0 UV-I 22 W/m 0,4 C -8,7 C 33,8 km/h (5 Bft) 100,00 %
04.01.2017 14:48 1,6 C 92 % 1009,5 hPa 0,0 l/m 21,1 km/h (4 Bft) SW 236 0 min 0,000 mm 0,0 UV-I 25 W/m 0,4 C -8,0 C 30,6 km/h (5 Bft) 98,00 %
04.01.2017 14:50 1,6 C 92 % 1009,3 hPa 0,0 l/m 23,7 km/h (4 Bft) SW 229 0 min 0,000 mm 0,0 UV-I 23 W/m 0,4 C -9,1 C 35,4 km/h (5 Bft) 100,00 %
04.01.2017 14:52 1,6 C 92 % 1009,4 hPa 0,0 l/m 20,9 km/h (4 Bft) W-SW 255 0 min 0,000 mm 0,0 UV-I 27 W/m 0,4 C -8,0 C 35,4 km/h (5 Bft) 97,87 %
04.01.2017 14:54 1,5 C 92 % 1009,3 hPa 0,0 l/m 22,7 km/h (4 Bft) W 264 0 min 0,000 mm 0,0 UV-I 34 W/m 0,3 C -8,8 C 40,2 km/h (6 Bft) 100,00 %
04.01.2017 14:56 1,5 C 92 % 1009,5 hPa 0,0 l/m 19,9 km/h (4 Bft) SW 234 0 min 0,000 mm 0,0 UV-I 35 W/m 0,3 C -7,6 C 35,4 km/h (5 Bft) 98,00 %
04.01.2017 14:58 1,4 C 92 % 1009,4 hPa 0,0 l/m 21,4 km/h (4 Bft) W 274 0 min 0,000 mm 0,0 UV-I 34 W/m 0,2 C -8,4 C 32,2 km/h (5 Bft) 100,00 %
04.01.2017 15:00 1,4 C 92 % 1009,4 hPa 0,0 l/m 17,6 km/h (3 Bft) W-SW 252 0 min 0,026 mm 0,0 UV-I 31 W/m 0,2 C -6,7 C 27,4 km/h (4 Bft) 100,00 %
04.01.2017 15:02 1,4 C 92 % 1009,5 hPa 0,0 l/m 26,9 km/h (4 Bft) W 267 0 min 0,000 mm 0,0 UV-I 30 W/m 0,2 C -10,5 C 37,0 km/h (5 Bft) 97,87 %
04.01.2017 15:04 1,4 C 92 % 1009,5 hPa 0,0 l/m 20,0 km/h (4 Bft) W-SW 258 0 min 0,000 mm 0,0 UV-I 26 W/m 0,2 C -7,8 C 33,8 km/h (5 Bft) 100,00 %
04.01.2017 15:06 1,3 C 92 % 1009,5 hPa 0,0 l/m 22,2 km/h (4 Bft) W-SW 252 0 min 0,000 mm 0,0 UV-I 23 W/m 0,1 C -8,9 C 33,8 km/h (5 Bft) 100,00 %
04.01.2017 15:08 1,3 C 92 % 1009,6 hPa 0,0 l/m 23,1 km/h (4 Bft) SW 235 0 min 0,000 mm 0,0 UV-I 25 W/m 0,1 C -9,2 C 35,4 km/h (5 Bft) 100,00 %
04.01.2017 15:10 1,3 C 93 % 1009,7 hPa 0,0 l/m 21,1 km/h (4 Bft) W-SW 257 0 min 0,000 mm 0,0 UV-I 23 W/m 0,3 C -8,4 C 33,8 km/h (5 Bft) 100,00 %
04.01.2017 15:12 1,3 C 93 % 1009,8 hPa 0,0 l/m 22,6 km/h (4 Bft) SW 236 0 min 0,000 mm 0,0 UV-I 24 W/m 0,3 C -9,1 C 35,4 km/h (5 Bft) 97,87 %
04.01.2017 15:14 1,3 C 93 % 1009,7 hPa 0,0 l/m 25,2 km/h (4 Bft) W-SW 252 0 min 0,000 mm 0,0 UV-I 26 W/m 0,3 C -10,0 C 35,4 km/h (5 Bft) 97,92 %
04.01.2017 15:16 1,2 C 93 % 1009,7 hPa 0,0 l/m 18,2 km/h (3 Bft) SW 234 0 min 0,000 mm 0,0 UV-I 27 W/m 0,2 C -7,2 C 25,7 km/h (4 Bft) 97,87 %
04.01.2017 15:18 1,2 C 93 % 1009,7 hPa 0,0 l/m 20,2 km/h (4 Bft) W-SW 248 0 min 0,000 mm 0,0 UV-I 23 W/m 0,2 C -8,2 C 29,0 km/h (5 Bft) 100,00 %
04.01.2017 15:20 1,2 C 93 % 1009,6 hPa 0,0 l/m 17,2 km/h (3 Bft) W-SW 246 0 min 0,000 mm 0,0 UV-I 20 W/m 0,2 C -6,7 C 24,1 km/h (4 Bft) 97,87 %
04.01.2017 15:22 1,2 C 93 % 1009,7 hPa 0,0 l/m 21,4 km/h (4 Bft) W 263 0 min 0,000 mm 0,0 UV-I 21 W/m 0,2 C -8,7 C 30,6 km/h (5 Bft) 100,00 %
04.01.2017 15:24 1,2 C 93 % 1009,6 hPa 0,0 l/m 20,5 km/h (4 Bft) SW 231 0 min 0,000 mm 0,0 UV-I 21 W/m 0,2 C -8,3 C 29,0 km/h (5 Bft) 100,00 %
04.01.2017 15:26 1,2 C 93 % 1009,7 hPa 0,0 l/m 20,1 km/h (4 Bft) W-SW 238 0 min 0,000 mm 0,0 UV-I 20 W/m 0,2 C -8,1 C 30,6 km/h (5 Bft) 100,00 %
04.01.2017 15:28 1,2 C 93 % 1009,7 hPa 0,0 l/m 20,1 km/h (4 Bft) W-SW 242 0 min 0,000 mm 0,0 UV-I 19 W/m 0,2 C -8,1 C 32,2 km/h (5 Bft) 100,00 %
04.01.2017 15:30 1,1 C 93 % 1009,7 hPa 0,0 l/m 21,1 km/h (4 Bft) W 271 0 min 0,000 mm 0,0 UV-I 19 W/m 0,1 C -8,7 C 30,6 km/h (5 Bft) 100,00 %
04.01.2017 15:32 1,1 C 94 % 1009,7 hPa 0,0 l/m 20,6 km/h (4 Bft) W-SW 237 0 min 0,000 mm 0,0 UV-I 18 W/m 0,2 C -8,5 C 35,4 km/h (5 Bft) 100,00 %
04.01.2017 15:34 1,1 C 94 % 1009,7 hPa 0,0 l/m 18,3 km/h (3 Bft) W-SW 242 0 min 0,000 mm 0,0 UV-I 14 W/m 0,2 C -7,4 C 32,2 km/h (5 Bft) 98,00 %
04.01.2017 15:36 1,1 C 94 % 1009,7 hPa 0,0 l/m 18,4 km/h (3 Bft) W-SW 254 0 min 0,000 mm 0,0 UV-I 14 W/m 0,2 C -7,5 C 25,7 km/h (4 Bft) 97,87 %
04.01.2017 15:38 1,1 C 94 % 1009,7 hPa 0,0 l/m 18,1 km/h (3 Bft) W 265 0 min 0,000 mm 0,0 UV-I 14 W/m 0,2 C -7,3 C 27,4 km/h (4 Bft) 100,00 %
04.01.2017 15:40 1,0 C 94 % 1009,5 hPa 0,0 l/m 18,0 km/h (3 Bft) W-SW 248 0 min 0,000 mm 0,0 UV-I 12 W/m 0,1 C -7,4 C 24,1 km/h (4 Bft) 100,00 %
04.01.2017 15:42 1,0 C 94 % 1009,5 hPa 0,0 l/m 15,4 km/h (3 Bft) SW 231 0 min 0,000 mm 0,0 UV-I 12 W/m 0,1 C -6,0 C 30,6 km/h (5 Bft) 97,22 %
04.01.2017 15:44 1,0 C 94 % 1009,6 hPa 0,0 l/m 15,2 km/h (3 Bft) SW 229 0 min 0,000 mm 0,0 UV-I 11 W/m 0,1 C -5,9 C 22,5 km/h (4 Bft) 100,00 %
04.01.2017 15:46 0,9 C 94 % 1009,6 hPa 0,0 l/m 14,1 km/h (3 Bft) W-SW 242 0 min 0,000 mm 0,0 UV-I 10 W/m 0,0 C -5,3 C 19,3 km/h (3 Bft) 100,00 %
04.01.2017 15:48 0,9 C 94 % 1009,5 hPa 0,0 l/m 13,8 km/h (3 Bft) W-SW 243 0 min 0,000 mm 0,0 UV-I 9 W/m 0,0 C -5,2 C 20,9 km/h (4 Bft) 100,00 %
04.01.2017 15:50 0,9 C 94 % 1009,5 hPa 0,0 l/m 12,7 km/h (3 Bft) W 268 0 min 0,000 mm 0,0 UV-I 7 W/m 0,0 C -4,4 C 17,7 km/h (3 Bft) 97,87 %
04.01.2017 15:52 0,9 C 94 % 1009,5 hPa 0,0 l/m 14,9 km/h (3 Bft) W-SW 248 0 min 0,000 mm 0,0 UV-I 7 W/m 0,0 C -5,8 C 22,5 km/h (4 Bft) 95,74 %
04.01.2017 15:54 0,8 C 94 % 1009,5 hPa 0,0 l/m 16,7 km/h (3 Bft) SW 220 0 min 0,000 mm 0,0 UV-I 7 W/m -0,1 C -7,0 C 22,5 km/h (4 Bft) 100,00 %
04.01.2017 15:56 0,8 C 95 % 1009,5 hPa 0,0 l/m 14,3 km/h (3 Bft) W-SW 252 0 min 0,000 mm 0,0 UV-I 7 W/m 0,1 C -5,6 C 20,9 km/h (4 Bft) 100,00 %
04.01.2017 15:58 0,8 C 94 % 1009,5 hPa 0,0 l/m 13,7 km/h (3 Bft) W-SW 253 0 min 0,000 mm 0,0 UV-I 6 W/m -0,1 C -5,2 C 19,3 km/h (3 Bft) 98,00 %
04.01.2017 16:00 0,8 C 94 % 1009,4 hPa 0,0 l/m 13,0 km/h (3 Bft) W 265 0 min 0,025 mm 0,0 UV-I 5 W/m -0,1 C -4,8 C 17,7 km/h (3 Bft) 100,00 %
04.01.2017 16:02 0,7 C 95 % 1009,4 hPa 0,0 l/m 13,6 km/h (3 Bft) SW 221 0 min 0,000 mm 0,0 UV-I 6 W/m -0,0 C -5,3 C 22,5 km/h (4 Bft) 97,87 %
04.01.2017 16:04 0,7 C 95 % 1009,3 hPa 0,0 l/m 11,6 km/h (2 Bft) SW 220 0 min 0,000 mm 0,0 UV-I 5 W/m -0,0 C -3,9 C 17,7 km/h (3 Bft) 97,87 %
04.01.2017 16:06 0,7 C 95 % 1009,3 hPa 0,0 l/m 14,0 km/h (3 Bft) W-SW 244 0 min 0,000 mm 0,0 UV-I 5 W/m -0,0 C -5,5 C 22,5 km/h (4 Bft) 96,00 %
04.01.2017 16:08 0,7 C 95 % 1009,3 hPa 0,0 l/m 16,4 km/h (3 Bft) W 265 0 min 0,000 mm 0,0 UV-I 5 W/m -0,0 C -6,9 C 22,5 km/h (4 Bft) 100,00 %
04.01.2017 16:10 0,7 C 95 % 1009,4 hPa 0,0 l/m 11,8 km/h (2 Bft) W-SW 247 0 min 0,000 mm 0,0 UV-I 5 W/m -0,0 C -4,1 C 19,3 km/h (3 Bft) 97,87 %
04.01.2017 16:12 0,7 C 95 % 1009,4 hPa 0,0 l/m 11,1 km/h (2 Bft) W-SW 258 0 min 0,000 mm 0,0 UV-I 5 W/m -0,0 C -3,5 C 16,1 km/h (3 Bft) 97,62 %
04.01.2017 16:14 0,7 C 95 % 1009,3 hPa 0,0 l/m 15,4 km/h (3 Bft) SW 234 0 min 0,000 mm 0,0 UV-I 5 W/m -0,0 C -6,4 C 24,1 km/h (4 Bft) 97,96 %
04.01.2017 16:16 0,6 C 95 % 1009,3 hPa 0,0 l/m 14,8 km/h (3 Bft) W-SW 245 0 min 0,000 mm 0,0 UV-I 0 W/m -0,1 C -6,1 C 30,6 km/h (5 Bft) 95,74 %
04.01.2017 16:18 0,6 C 95 % 1009,2 hPa 0,0 l/m 16,2 km/h (3 Bft) W-SW 253 0 min 0,000 mm 0,0 UV-I 0 W/m -0,1 C -6,9 C 22,5 km/h (4 Bft) 95,74 %
04.01.2017 16:20 0,6 C 95 % 1009,2 hPa 0,0 l/m 12,3 km/h (3 Bft) W-SW 242 0 min 0,000 mm 0,0 UV-I 0 W/m -0,1 C -4,5 C 17,7 km/h (3 Bft) 97,87 %
04.01.2017 16:22 0,6 C 95 % 1009,2 hPa 0,0 l/m 11,9 km/h (2 Bft) SW 236 0 min 0,000 mm 0,0 UV-I 0 W/m -0,1 C -4,2 C 20,9 km/h (4 Bft) 97,87 %
04.01.2017 16:24 0,6 C 95 % 1009,2 hPa 0,0 l/m 12,0 km/h (2 Bft) SW 217 0 min 0,000 mm 0,0 UV-I 0 W/m -0,1 C -4,3 C 19,3 km/h (3 Bft) 95,74 %
04.01.2017 16:26 0,6 C 95 % 1009,2 hPa 0,0 l/m 12,9 km/h (3 Bft) SW 232 0 min 0,000 mm 0,0 UV-I 0 W/m -0,1 C -4,9 C 24,1 km/h (4 Bft) 100,00 %
04.01.2017 16:28 0,6 C 96 % 1009,2 hPa 0,0 l/m 16,9 km/h (3 Bft) W 259 0 min 0,000 mm 0,0 UV-I 0 W/m 0,0 C -7,3 C 22,5 km/h (4 Bft) 96,00 %
04.01.2017 16:30 0,6 C 96 % 1009,1 hPa 0,0 l/m 16,8 km/h (3 Bft) S-SW 212 0 min 0,000 mm 0,0 UV-I 0 W/m 0,0 C -7,3 C 30,6 km/h (5 Bft) 97,87 %
04.01.2017 16:32 0,6 C 96 % 1009,1 hPa 0,0 l/m 16,6 km/h (3 Bft) SW 217 0 min 0,000 mm 0,0 UV-I 0 W/m 0,0 C -7,2 C 27,4 km/h (4 Bft) 97,87 %
04.01.2017 16:34 0,6 C 96 % 1009,2 hPa 0,0 l/m 16,0 km/h (3 Bft) W-SW 257 0 min 0,000 mm 0,0 UV-I 0 W/m 0,0 C -6,8 C 20,9 km/h (4 Bft) 96,00 %
04.01.2017 16:36 0,5 C 96 % 1009,3 hPa 0,0 l/m 17,1 km/h (3 Bft) SW 224 0 min 0,000 mm 0,0 UV-I 0 W/m -0,1 C -7,6 C 22,5 km/h (4 Bft) 98,00 %
04.01.2017 16:38 0,5 C 96 % 1009,2 hPa 0,0 l/m 17,9 km/h (3 Bft) SW 236 0 min 0,000 mm 0,0 UV-I 0 W/m -0,1 C -8,0 C 25,7 km/h (4 Bft) 93,62 %
04.01.2017 16:40 0,5 C 96 % 1009,2 hPa 0,0 l/m 16,1 km/h (3 Bft) W-SW 247 0 min 0,000 mm 0,0 UV-I 0 W/m -0,1 C -7,0 C 25,7 km/h (4 Bft) 99,12 %
04.01.2017 16:44 0,5 C 96 % 1009,3 hPa 0,0 l/m 19,3 km/h (3 Bft) W-SW 248 0 min 0,000 mm 0,0 UV-I 0 W/m -0,1 C -8,7 C 27,4 km/h (4 Bft) 95,74 %
04.01.2017 16:46 0,5 C 96 % 1009,4 hPa 0,0 l/m 21,2 km/h (4 Bft) W 269 0 min 0,000 mm 0,0 UV-I 0 W/m -0,1 C -9,5 C 30,6 km/h (5 Bft) 100,00 %
04.01.2017 16:48 0,5 C 96 % 1009,5 hPa 0,0 l/m 18,0 km/h (3 Bft) W-SW 248 0 min 0,000 mm 0,0 UV-I 0 W/m -0,1 C -8,0 C 27,4 km/h (4 Bft) 100,00 %
04.01.2017 16:50 0,6 C 96 % 1009,5 hPa 0,0 l/m 17,3 km/h (3 Bft) SW 226 0 min 0,000 mm 0,0 UV-I 0 W/m 0,0 C -7,5 C 25,7 km/h (4 Bft) 98,00 %
04.01.2017 16:52 0,6 C 96 % 1009,5 hPa 0,0 l/m 18,6 km/h (3 Bft) W-SW 250 0 min 0,000 mm 0,0 UV-I 0 W/m 0,0 C -8,2 C 24,1 km/h (4 Bft) 100,00 %
04.01.2017 16:54 0,6 C 96 % 1009,4 hPa 0,0 l/m 26,5 km/h (4 Bft) W-SW 248 0 min 0,000 mm 0,0 UV-I 0 W/m 0,0 C -11,4 C 38,6 km/h (5 Bft) 100,00 %
04.01.2017 16:56 0,6 C 96 % 1009,5 hPa 0,0 l/m 23,6 km/h (4 Bft) W 271 0 min 0,000 mm 0,0 UV-I 0 W/m 0,0 C -10,4 C 33,8 km/h (5 Bft) 96,00 %
04.01.2017 16:58 0,6 C 96 % 1009,6 hPa 0,0 l/m 22,0 km/h (4 Bft) W-SW 254 0 min 0,000 mm 0,0 UV-I 0 W/m 0,0 C -9,7 C 37,0 km/h (5 Bft) 100,00 %
04.01.2017 17:00 0,7 C 96 % 1009,5 hPa 0,0 l/m 24,7 km/h (4 Bft) W-SW 252 0 min 0,000 mm 0,0 UV-I 0 W/m 0,1 C -10,7 C 43,5 km/h (6 Bft) 100,00 %
04.01.2017 17:02 0,7 C 95 % 1009,6 hPa 0,0 l/m 21,1 km/h (4 Bft) W-SW 248 0 min 0,000 mm 0,0 UV-I 0 W/m -0,0 C -9,2 C 32,2 km/h (5 Bft) 97,56 %
04.01.2017 17:04 0,8 C 95 % 1009,7 hPa 0,0 l/m 18,6 km/h (3 Bft) W-SW 242 0 min 0,000 mm 0,0 UV-I 0 W/m 0,1 C -7,9 C 45,1 km/h (6 Bft) 100,00 %
04.01.2017 17:06 0,8 C 95 % 1009,7 hPa 0,0 l/m 24,6 km/h (4 Bft) W-SW 256 0 min 0,000 mm 0,0 UV-I 0 W/m 0,1 C -10,5 C 43,5 km/h (6 Bft) 97,56 %
04.01.2017 17:08 0,9 C 95 % 1009,6 hPa 0,0 l/m 26,3 km/h (4 Bft) SW 226 0 min 0,000 mm 0,0 UV-I 0 W/m 0,2 C -11,0 C 41,8 km/h (6 Bft) 100,00 %
04.01.2017 17:10 0,9 C 94 % 1009,6 hPa 0,0 l/m 19,5 km/h (3 Bft) W 275 0 min 0,000 mm 0,0 UV-I 0 W/m 0,0 C -8,2 C 33,8 km/h (5 Bft) 97,56 %
04.01.2017 17:12 0,9 C 94 % 1009,7 hPa 0,0 l/m 21,0 km/h (4 Bft) W 264 0 min 0,000 mm 0,0 UV-I 0 W/m 0,0 C -8,9 C 29,0 km/h (5 Bft) 100,00 %
04.01.2017 17:14 0,9 C 94 % 1009,7 hPa 0,0 l/m 29,0 km/h (5 Bft) W-SW 246 0 min 0,000 mm 0,0 UV-I 0 W/m 0,0 C -11,8 C 40,2 km/h (6 Bft) 100,00 %
04.01.2017 17:16 1,0 C 93 % 1009,7 hPa 0,0 l/m 19,9 km/h (4 Bft) W 271 0 min 0,000 mm 0,0 UV-I 0 W/m -0,0 C -8,3 C 29,0 km/h (5 Bft) 100,00 %
04.01.2017 17:18 1,0 C 93 % 1009,8 hPa 0,0 l/m 19,5 km/h (3 Bft) W 271 0 min 0,000 mm 0,0 UV-I 0 W/m -0,0 C -8,1 C 35,4 km/h (5 Bft) 98,18 %
04.01.2017 17:20 1,0 C 93 % 1009,7 hPa 0,0 l/m 22,4 km/h (4 Bft) W-SW 237 0 min 0,000 mm 0,0 UV-I 0 W/m -0,0 C -9,4 C 33,8 km/h (5 Bft) 100,00 %
04.01.2017 17:22 1,0 C 93 % 1009,8 hPa 0,0 l/m 19,5 km/h (3 Bft) SW 236 0 min 0,000 mm 0,0 UV-I 0 W/m -0,0 C -8,1 C 32,2 km/h (5 Bft) 100,00 %
04.01.2017 17:24 1,0 C 93 % 1009,7 hPa 0,0 l/m 18,9 km/h (3 Bft) W 267 0 min 0,000 mm 0,0 UV-I 0 W/m -0,0 C -7,8 C 27,4 km/h (4 Bft) 95,12 %
04.01.2017 17:26 1,0 C 93 % 1009,8 hPa 0,0 l/m 22,0 km/h (4 Bft) W-SW 242 0 min 0,000 mm 0,0 UV-I 0 W/m -0,0 C -9,2 C 30,6 km/h (5 Bft) 100,00 %
04.01.2017 17:28 1,0 C 93 % 1009,7 hPa 0,0 l/m 25,0 km/h (4 Bft) W-SW 242 0 min 0,000 mm 0,0 UV-I 0 W/m -0,0 C -10,4 C 35,4 km/h (5 Bft) 100,00 %
04.01.2017 17:30 1,0 C 93 % 1009,8 hPa 0,0 l/m 21,3 km/h (4 Bft) W 264 0 min 0,000 mm 0,0 UV-I 0 W/m -0,0 C -8,9 C 29,0 km/h (5 Bft) 97,56 %
04.01.2017 17:32 1,0 C 92 % 1009,8 hPa 0,0 l/m 23,1 km/h (4 Bft) W-SW 238 0 min 0,000 mm 0,0 UV-I 0 W/m -0,2 C -9,6 C 37,0 km/h (5 Bft) 100,00 %
04.01.2017 17:34 1,0 C 92 % 1009,7 hPa 0,0 l/m 22,2 km/h (4 Bft) W-SW 254 0 min 0,000 mm 0,0 UV-I 0 W/m -0,2 C -9,3 C 40,2 km/h (6 Bft) 100,00 %
04.01.2017 17:36 1,0 C 92 % 1009,7 hPa 0,0 l/m 25,4 km/h (4 Bft) W-SW 240 0 min 0,000 mm 0,0 UV-I 0 W/m -0,2 C -10,5 C 40,2 km/h (6 Bft) 97,56 %
04.01.2017 17:38 1,1 C 92 % 1009,7 hPa 0,0 l/m 19,6 km/h (3 Bft) W 271 0 min 0,000 mm 0,0 UV-I 0 W/m -0,1 C -8,0 C 27,4 km/h (4 Bft) 98,21 %
04.01.2017 17:40 1,1 C 92 % 1009,7 hPa 0,0 l/m 22,6 km/h (4 Bft) SW 232 0 min 0,000 mm 0,0 UV-I 0 W/m -0,1 C -9,3 C 32,2 km/h (5 Bft) 97,37 %
04.01.2017 17:42 1,0 C 92 % 1009,7 hPa 0,0 l/m 21,1 km/h (4 Bft) W 260 0 min 0,000 mm 0,0 UV-I 0 W/m -0,2 C -8,8 C 30,6 km/h (5 Bft) 100,00 %
04.01.2017 17:44 1,0 C 92 % 1009,7 hPa 0,0 l/m 25,3 km/h (4 Bft) W-SW 246 0 min 0,000 mm 0,0 UV-I 0 W/m -0,2 C -10,5 C 38,6 km/h (5 Bft) 100,00 %
04.01.2017 17:46 1,1 C 91 % 1009,7 hPa 0,0 l/m 23,2 km/h (4 Bft) SW 222 0 min 0,000 mm 0,0 UV-I 0 W/m -0,2 C -9,6 C 43,5 km/h (6 Bft) 100,00 %
04.01.2017 17:48 1,1 C 91 % 1009,7 hPa 0,0 l/m 21,6 km/h (4 Bft) W-SW 254 0 min 0,000 mm 0,0 UV-I 0 W/m -0,2 C -8,9 C 35,4 km/h (5 Bft) 100,00 %
04.01.2017 17:50 1,1 C 91 % 1009,6 hPa 0,0 l/m 22,5 km/h (4 Bft) W 273 0 min 0,000 mm 0,0 UV-I 0 W/m -0,2 C -9,3 C 30,6 km/h (5 Bft) 98,08 %
04.01.2017 17:53 1,1 C 91 % 1009,6 hPa 0,0 l/m 21,9 km/h (4 Bft) SW 227 0 min 0,000 mm 0,0 UV-I 0 W/m -0,2 C -9,0 C 37,0 km/h (5 Bft) 100,00 %
04.01.2017 17:54 1,1 C 91 % 1009,6 hPa 0,0 l/m 23,4 km/h (4 Bft) W 261 0 min 0,000 mm 0,0 UV-I 0 W/m -0,2 C -9,6 C 32,2 km/h (5 Bft) 100,00 %
04.01.2017 17:56 1,1 C 91 % 1009,5 hPa 0,0 l/m 26,6 km/h (4 Bft) W 262 0 min 0,000 mm 0,0 UV-I 0 W/m -0,2 C -10,8 C 49,9 km/h (6 Bft) 97,92 %
04.01.2017 17:58 1,1 C 91 % 1009,6 hPa 0,0 l/m 23,8 km/h (4 Bft) W-SW 257 0 min 0,000 mm 0,0 UV-I 0 W/m -0,2 C -9,8 C 33,8 km/h (5 Bft) 100,00 %
04.01.2017 18:00 1,1 C 91 % 1009,7 hPa 0,0 l/m 21,6 km/h (4 Bft) W-SW 238 0 min 0,026 mm 0,0 UV-I 0 W/m -0,2 C -8,9 C 29,0 km/h (5 Bft) 100,00 %
04.01.2017 18:02 1,1 C 91 % 1009,7 hPa 0,0 l/m 22,9 km/h (4 Bft) W 266 0 min 0,000 mm 0,0 UV-I 0 W/m -0,2 C -9,4 C 33,8 km/h (5 Bft) 95,12 %
04.01.2017 18:04 1,1 C 91 % 1009,7 hPa 0,0 l/m 23,2 km/h (4 Bft) W 270 0 min 0,000 mm 0,0 UV-I 0 W/m -0,2 C -9,6 C 33,8 km/h (5 Bft) 100,00 %
04.01.2017 18:06 1,1 C 92 % 1009,6 hPa 0,0 l/m 27,4 km/h (4 Bft) SW 232 0 min 0,000 mm 0,0 UV-I 0 W/m -0,1 C -11,1 C 40,2 km/h (6 Bft) 100,00 %
04.01.2017 18:08 1,0 C 92 % 1009,7 hPa 0,0 l/m 20,2 km/h (4 Bft) W 269 0 min 0,000 mm 0,0 UV-I 0 W/m -0,2 C -8,4 C 30,6 km/h (5 Bft) 96,23 %
04.01.2017 18:10 0,9 C 92 % 1009,6 hPa 0,0 l/m 24,9 km/h (4 Bft) W-SW 242 0 min 0,000 mm 0,0 UV-I 0 W/m -0,2 C -10,5 C 35,4 km/h (5 Bft) 100,00 %
04.01.2017 18:12 0,9 C 93 % 1009,7 hPa 0,0 l/m 22,6 km/h (4 Bft) W-SW 246 0 min 0,000 mm 0,0 UV-I 0 W/m -0,1 C -9,6 C 32,2 km/h (5 Bft) 100,00 %
04.01.2017 18:14 0,9 C 93 % 1009,6 hPa 0,0 l/m 23,4 km/h (4 Bft) W-SW 250 0 min 0,000 mm 0,0 UV-I 0 W/m -0,1 C -9,9 C 33,8 km/h (5 Bft) 100,00 %
04.01.2017 18:16 0,8 C 93 % 1009,7 hPa 0,0 l/m 20,1 km/h (4 Bft) W-SW 257 0 min 0,000 mm 0,0 UV-I 0 W/m -0,2 C -8,6 C 29,0 km/h (5 Bft) 100,00 %
04.01.2017 18:18 0,8 C 93 % 1009,7 hPa 0,0 l/m 29,4 km/h (5 Bft) W-SW 246 0 min 0,000 mm 0,0 UV-I 0 W/m -0,2 C -12,1 C 41,8 km/h (6 Bft) 100,00 %
04.01.2017 18:20 0,8 C 93 % 1009,7 hPa 0,0 l/m 24,7 km/h (4 Bft) W-SW 237 0 min 0,000 mm 0,0 UV-I 0 W/m -0,2 C -10,5 C 46,7 km/h (6 Bft) 100,00 %
04.01.2017 18:22 0,8 C 92 % 1009,8 hPa 0,0 l/m 25,3 km/h (4 Bft) W-SW 245 0 min 0,000 mm 0,0 UV-I 0 W/m -0,3 C -10,7 C 46,7 km/h (6 Bft) 96,15 %
04.01.2017 18:24 0,8 C 92 % 1009,7 hPa 0,0 l/m 24,7 km/h (4 Bft) W-SW 248 0 min 0,000 mm 0,0 UV-I 0 W/m -0,3 C -10,5 C 43,5 km/h (6 Bft) 96,92 %
04.01.2017 18:26 0,8 C 92 % 1009,9 hPa 0,0 l/m 27,4 km/h (4 Bft) W-SW 253 0 min 0,000 mm 0,0 UV-I 0 W/m -0,3 C -11,5 C 43,5 km/h (6 Bft) 97,14 %
04.01.2017 18:28 0,9 C 92 % 1009,9 hPa 0,0 l/m 24,9 km/h (4 Bft) W-SW 248 0 min 0,000 mm 0,0 UV-I 0 W/m -0,2 C -10,5 C 37,0 km/h (5 Bft) 94,34 %
04.01.2017 18:30 0,9 C 92 % 1009,9 hPa 0,0 l/m 21,1 km/h (4 Bft) W 269 0 min 0,000 mm 0,0 UV-I 0 W/m -0,2 C -9,0 C 32,2 km/h (5 Bft) 98,00 %
04.01.2017 18:32 0,9 C 92 % 1009,9 hPa 0,0 l/m 21,1 km/h (4 Bft) W-SW 255 0 min 0,000 mm 0,0 UV-I 0 W/m -0,2 C -9,0 C 38,6 km/h (5 Bft) 95,45 %
04.01.2017 18:34 0,9 C 92 % 1010,0 hPa 0,0 l/m 22,4 km/h (4 Bft) W-SW 256 0 min 0,000 mm 0,0 UV-I 0 W/m -0,2 C -9,5 C 35,4 km/h (5 Bft) 98,11 %
04.01.2017 18:36 0,9 C 92 % 1009,9 hPa 0,0 l/m 20,4 km/h (4 Bft) W-SW 252 0 min 0,000 mm 0,0 UV-I 0 W/m -0,2 C -8,6 C 32,2 km/h (5 Bft) 97,62 %
04.01.2017 18:38 0,9 C 92 % 1010,0 hPa 0,0 l/m 24,7 km/h (4 Bft) W 273 0 min 0,000 mm 0,0 UV-I 0 W/m -0,2 C -10,4 C 33,8 km/h (5 Bft) 95,74 %
04.01.2017 18:40 1,0 C 91 % 1010,0 hPa 0,0 l/m 23,2 km/h (4 Bft) W-SW 254 0 min 0,000 mm 0,0 UV-I 0 W/m -0,3 C -9,7 C 33,8 km/h (5 Bft) 98,11 %
04.01.2017 18:42 1,0 C 91 % 1010,1 hPa 0,0 l/m 26,1 km/h (4 Bft) S-SW 209 0 min 0,000 mm 0,0 UV-I 0 W/m -0,3 C -10,8 C 40,2 km/h (6 Bft) 97,56 %
04.01.2017 18:44 1,1 C 91 % 1010,1 hPa 0,0 l/m 25,5 km/h (4 Bft) W-SW 253 0 min 0,000 mm 0,0 UV-I 0 W/m -0,2 C -10,4 C 33,8 km/h (5 Bft) 94,00 %
04.01.2017 18:46 1,1 C 91 % 1010,1 hPa 0,0 l/m 19,5 km/h (3 Bft) W 260 0 min 0,000 mm 0,0 UV-I 0 W/m -0,2 C -8,0 C 29,0 km/h (5 Bft) 97,73 %
04.01.2017 18:48 1,1 C 91 % 1010,1 hPa 0,0 l/m 22,7 km/h (4 Bft) W-NW 292 0 min 0,000 mm 0,0 UV-I 0 W/m -0,2 C -9,4 C 30,6 km/h (5 Bft) 97,73 %
04.01.2017 18:50 1,2 C 91 % 1010,0 hPa 0,0 l/m 24,0 km/h (4 Bft) W 259 0 min 0,000 mm 0,0 UV-I 0 W/m -0,1 C -9,7 C 37,0 km/h (5 Bft) 97,73 %
04.01.2017 18:52 1,2 C 90 % 1010,0 hPa 0,0 l/m 23,0 km/h (4 Bft) W 263 0 min 0,000 mm 0,0 UV-I 0 W/m -0,3 C -9,3 C 38,6 km/h (5 Bft) 97,73 %
04.01.2017 18:54 1,2 C 90 % 1010,1 hPa 0,0 l/m 18,9 km/h (3 Bft) W 264 0 min 0,000 mm 0,0 UV-I 0 W/m -0,3 C -7,6 C 32,2 km/h (5 Bft) 98,21 %
04.01.2017 18:56 1,2 C 90 % 1010,0 hPa 0,0 l/m 24,5 km/h (4 Bft) SW 229 0 min 0,000 mm 0,0 UV-I 0 W/m -0,3 C -9,9 C 43,5 km/h (6 Bft) 97,37 %
04.01.2017 18:58 1,2 C 89 % 1010,1 hPa 0,0 l/m 24,4 km/h (4 Bft) SW 231 0 min 0,000 mm 0,0 UV-I 0 W/m -0,4 C -9,9 C 40,2 km/h (6 Bft) 97,87 %
04.01.2017 19:00 1,3 C 89 % 1010,0 hPa 0,0 l/m 22,1 km/h (4 Bft) W-SW 243 0 min 0,025 mm 0,0 UV-I 0 W/m -0,3 C -8,8 C 40,2 km/h (6 Bft) 100,00 %
04.01.2017 19:02 1,3 C 89 % 1010,0 hPa 0,0 l/m 22,6 km/h (4 Bft) W 273 0 min 0,000 mm 0,0 UV-I 0 W/m -0,3 C -9,1 C 37,0 km/h (5 Bft) 100,00 %
04.01.2017 19:04 1,3 C 88 % 1010,0 hPa 0,0 l/m 23,2 km/h (4 Bft) W 269 0 min 0,000 mm 0,0 UV-I 0 W/m -0,5 C -9,3 C 29,0 km/h (5 Bft) 95,45 %
04.01.2017 19:06 1,3 C 88 % 1010,0 hPa 0,0 l/m 20,8 km/h (4 Bft) W-SW 246 0 min 0,000 mm 0,0 UV-I 0 W/m -0,5 C -8,3 C 29,0 km/h (5 Bft) 98,00 %
04.01.2017 19:08 1,3 C 88 % 1010,1 hPa 0,0 l/m 16,7 km/h (3 Bft) W-SW 255 0 min 0,000 mm 0,0 UV-I 0 W/m -0,5 C -6,3 C 25,7 km/h (4 Bft) 94,34 %
04.01.2017 19:10 1,3 C 88 % 1010,1 hPa 0,0 l/m 19,2 km/h (3 Bft) W 267 0 min 0,000 mm 0,0 UV-I 0 W/m -0,5 C -7,6 C 30,6 km/h (5 Bft) 100,00 %
04.01.2017 19:12 1,3 C 88 % 1010,1 hPa 0,0 l/m 17,7 km/h (3 Bft) W-SW 246 0 min 0,000 mm 0,0 UV-I 0 W/m -0,5 C -6,9 C 24,1 km/h (4 Bft) 100,00 %
04.01.2017 19:14 1,3 C 88 % 1010,1 hPa 0,0 l/m 20,1 km/h (4 Bft) W-SW 238 0 min 0,000 mm 0,0 UV-I 0 W/m -0,5 C -8,0 C 32,2 km/h (5 Bft) 100,00 %
04.01.2017 19:16 1,3 C 88 % 1010,0 hPa 0,0 l/m 21,8 km/h (4 Bft) W 266 0 min 0,000 mm 0,0 UV-I 0 W/m -0,5 C -8,7 C 32,2 km/h (5 Bft) 98,00 %
04.01.2017 19:18 1,3 C 87 % 1010,0 hPa 0,0 l/m 21,4 km/h (4 Bft) W-NW 286 0 min 0,000 mm 0,0 UV-I 0 W/m -0,6 C -8,6 C 29,0 km/h (5 Bft) 97,44 %
04.01.2017 19:20 1,3 C 87 % 1010,0 hPa 0,0 l/m 18,7 km/h (3 Bft) W-SW 256 0 min 0,000 mm 0,0 UV-I 0 W/m -0,6 C -7,4 C 25,7 km/h (4 Bft) 100,00 %
04.01.2017 19:22 1,4 C 87 % 1010,1 hPa 0,0 l/m 21,7 km/h (4 Bft) W 266 0 min 0,000 mm 0,0 UV-I 0 W/m -0,5 C -8,6 C 30,6 km/h (5 Bft) 100,00 %
04.01.2017 19:24 1,3 C 87 % 1010,1 hPa 0,0 l/m 17,0 km/h (3 Bft) W-SW 238 0 min 0,000 mm 0,0 UV-I 0 W/m -0,6 C -6,5 C 29,0 km/h (5 Bft) 98,11 %
04.01.2017 19:26 1,3 C 87 % 1010,2 hPa 0,0 l/m 16,4 km/h (3 Bft) W-NW 283 0 min 0,000 mm 0,0 UV-I 0 W/m -0,6 C -6,2 C 25,7 km/h (4 Bft) 100,00 %
04.01.2017 19:28 1,3 C 87 % 1010,2 hPa 0,0 l/m 17,3 km/h (3 Bft) W 268 0 min 0,000 mm 0,0 UV-I 0 W/m -0,6 C -6,7 C 24,1 km/h (4 Bft) 100,00 %
04.01.2017 19:30 1,3 C 87 % 1010,2 hPa 0,0 l/m 20,9 km/h (4 Bft) W-SW 243 0 min 0,000 mm 0,0 UV-I 0 W/m -0,6 C -8,3 C 35,4 km/h (5 Bft) 100,00 %
04.01.2017 19:32 1,3 C 87 % 1010,2 hPa 0,0 l/m 21,2 km/h (4 Bft) SW 234 0 min 0,000 mm 0,0 UV-I 0 W/m -0,6 C -8,5 C 32,2 km/h (5 Bft) 100,00 %
04.01.2017 19:34 1,3 C 87 % 1010,2 hPa 0,0 l/m 21,1 km/h (4 Bft) W 276 0 min 0,000 mm 0,0 UV-I 0 W/m -0,6 C -8,4 C 32,2 km/h (5 Bft) 100,00 %
04.01.2017 19:36 1,4 C 87 % 1010,1 hPa 0,0 l/m 21,0 km/h (4 Bft) W 264 0 min 0,000 mm 0,0 UV-I 0 W/m -0,5 C -8,3 C 35,4 km/h (5 Bft) 98,11 %
04.01.2017 19:38 1,4 C 87 % 1010,1 hPa 0,0 l/m 23,9 km/h (4 Bft) W-SW 250 0 min 0,000 mm 0,0 UV-I 0 W/m -0,5 C -9,4 C 32,2 km/h (5 Bft) 97,37 %
04.01.2017 19:40 1,4 C 87 % 1010,2 hPa 0,0 l/m 18,6 km/h (3 Bft) W-NW 298 0 min 0,000 mm 0,0 UV-I 0 W/m -0,5 C -7,2 C 25,7 km/h (4 Bft) 100,00 %
04.01.2017 19:42 1,4 C 87 % 1010,2 hPa 0,0 l/m 20,4 km/h (4 Bft) W-SW 255 0 min 0,000 mm 0,0 UV-I 0 W/m -0,5 C -8,0 C 30,6 km/h (5 Bft) 97,73 %
04.01.2017 19:44 1,4 C 87 % 1010,2 hPa 0,0 l/m 17,2 km/h (3 Bft) W 279 0 min 0,000 mm 0,0 UV-I 0 W/m -0,5 C -6,5 C 27,4 km/h (4 Bft) 100,00 %
04.01.2017 19:46 1,4 C 87 % 1010,1 hPa 0,0 l/m 23,3 km/h (4 Bft) W-SW 248 0 min 0,000 mm 0,0 UV-I 0 W/m -0,5 C -9,2 C 30,6 km/h (5 Bft) 100,00 %
04.01.2017 19:48 1,3 C 87 % 1010,1 hPa 0,0 l/m 25,8 km/h (4 Bft) W-SW 246 0 min 0,000 mm 0,0 UV-I 0 W/m -0,6 C -10,2 C 33,8 km/h (5 Bft) 100,00 %
04.01.2017 19:50 1,4 C 87 % 1010,0 hPa 0,0 l/m 21,8 km/h (4 Bft) SW 229 0 min 0,000 mm 0,0 UV-I 0 W/m -0,5 C -8,6 C 33,8 km/h (5 Bft) 100,00 %
04.01.2017 19:52 1,4 C 86 % 1010,0 hPa 0,0 l/m 22,4 km/h (4 Bft) SW 229 0 min 0,000 mm 0,0 UV-I 0 W/m -0,7 C -8,8 C 30,6 km/h (5 Bft) 100,00 %
04.01.2017 19:54 1,3 C 86 % 1010,0 hPa 0,0 l/m 22,4 km/h (4 Bft) W 279 0 min 0,000 mm 0,0 UV-I 0 W/m -0,8 C -9,0 C 41,8 km/h (6 Bft) 100,00 %
04.01.2017 19:56 1,4 C 87 % 1010,0 hPa 0,0 l/m 17,7 km/h (3 Bft) W-SW 255 0 min 0,000 mm 0,0 UV-I 0 W/m -0,5 C -6,7 C 25,7 km/h (4 Bft) 97,92 %
04.01.2017 19:58 1,3 C 87 % 1010,0 hPa 0,0 l/m 19,6 km/h (3 Bft) W-SW 244 0 min 0,000 mm 0,0 UV-I 0 W/m -0,6 C -7,8 C 25,7 km/h (4 Bft) 100,00 %
04.01.2017 20:00 1,3 C 87 % 1010,0 hPa 0,0 l/m 17,9 km/h (3 Bft) W 260 0 min 0,025 mm 0,0 UV-I 0 W/m -0,6 C -7,0 C 29,0 km/h (5 Bft) 96,15 %
04.01.2017 20:02 1,3 C 87 % 1010,1 hPa 0,0 l/m 17,0 km/h (3 Bft) S-SW 205 0 min 0,000 mm 0,0 UV-I 0 W/m -0,6 C -6,5 C 22,5 km/h (4 Bft) 100,00 %
04.01.2017 20:04 1,3 C 88 % 1010,1 hPa 0,0 l/m 20,5 km/h (4 Bft) S-SW 209 0 min 0,000 mm 0,0 UV-I 0 W/m -0,5 C -8,2 C 29,0 km/h (5 Bft) 100,00 %
04.01.2017 20:06 1,3 C 88 % 1010,1 hPa 0,0 l/m 20,7 km/h (4 Bft) W 259 0 min 0,000 mm 0,0 UV-I 0 W/m -0,5 C -8,3 C 27,4 km/h (4 Bft) 100,00 %
04.01.2017 20:08 1,2 C 88 % 1010,2 hPa 0,0 l/m 21,3 km/h (4 Bft) W-SW 255 0 min 0,000 mm 0,0 UV-I 0 W/m -0,6 C -8,6 C 29,0 km/h (5 Bft) 100,00 %
04.01.2017 20:10 1,2 C 88 % 1010,1 hPa 0,0 l/m 18,8 km/h (3 Bft) W-SW 244 0 min 0,000 mm 0,0 UV-I 0 W/m -0,6 C -7,5 C 27,4 km/h (4 Bft) 100,00 %
04.01.2017 20:12 1,2 C 89 % 1010,1 hPa 0,0 l/m 17,9 km/h (3 Bft) W-SW 241 0 min 0,000 mm 0,0 UV-I 0 W/m -0,4 C -7,1 C 25,7 km/h (4 Bft) 97,37 %
04.01.2017 20:14 1,2 C 89 % 1010,2 hPa 0,0 l/m 19,6 km/h (3 Bft) W-SW 250 0 min 0,000 mm 0,0 UV-I 0 W/m -0,4 C -7,9 C 29,0 km/h (5 Bft) 100,00 %
04.01.2017 20:16 1,2 C 89 % 1010,2 hPa 0,0 l/m 19,6 km/h (3 Bft) W-SW 257 0 min 0,000 mm 0,0 UV-I 0 W/m -0,4 C -7,9 C 29,0 km/h (5 Bft) 100,00 %
04.01.2017 20:18 1,1 C 89 % 1010,2 hPa 0,0 l/m 19,3 km/h (3 Bft) W 279 0 min 0,000 mm 0,0 UV-I 0 W/m -0,5 C -7,9 C 27,4 km/h (4 Bft) 100,00 %
04.01.2017 20:20 1,1 C 89 % 1010,2 hPa 0,0 l/m 19,6 km/h (3 Bft) W 260 0 min 0,000 mm 0,0 UV-I 0 W/m -0,5 C -8,0 C 27,4 km/h (4 Bft) 97,56 %
04.01.2017 20:22 1,1 C 89 % 1010,3 hPa 0,0 l/m 16,5 km/h (3 Bft) SW 235 0 min 0,000 mm 0,0 UV-I 0 W/m -0,5 C -6,5 C 22,5 km/h (4 Bft) 100,00 %
04.01.2017 20:24 1,1 C 89 % 1010,3 hPa 0,0 l/m 22,6 km/h (4 Bft) W 264 0 min 0,000 mm 0,0 UV-I 0 W/m -0,5 C -9,3 C 30,6 km/h (5 Bft) 95,74 %
04.01.2017 20:26 1,1 C 89 % 1010,3 hPa 0,0 l/m 19,0 km/h (3 Bft) W-SW 257 0 min 0,000 mm 0,0 UV-I 0 W/m -0,5 C -7,7 C 30,6 km/h (5 Bft) 100,00 %
04.01.2017 20:28 1,1 C 89 % 1010,4 hPa 0,0 l/m 17,4 km/h (3 Bft) SW 235 0 min 0,000 mm 0,0 UV-I 0 W/m -0,5 C -7,0 C 27,4 km/h (4 Bft) 98,31 %
04.01.2017 20:30 1,1 C 89 % 1010,4 hPa 0,0 l/m 16,0 km/h (3 Bft) W 265 0 min 0,000 mm 0,0 UV-I 0 W/m -0,5 C -6,2 C 22,5 km/h (4 Bft) 97,37 %
04.01.2017 20:32 1,1 C 89 % 1010,4 hPa 0,0 l/m 21,9 km/h (4 Bft) W-SW 257 0 min 0,000 mm 0,0 UV-I 0 W/m -0,5 C -9,0 C 33,8 km/h (5 Bft) 98,11 %
04.01.2017 20:34 1,1 C 89 % 1010,3 hPa 0,0 l/m 20,7 km/h (4 Bft) W-SW 258 0 min 0,000 mm 0,0 UV-I 0 W/m -0,5 C -8,5 C 29,0 km/h (5 Bft) 97,87 %
04.01.2017 20:36 1,1 C 89 % 1010,3 hPa 0,0 l/m 19,6 km/h (3 Bft) W 281 0 min 0,000 mm 0,0 UV-I 0 W/m -0,5 C -8,0 C 24,1 km/h (4 Bft) 97,62 %
04.01.2017 20:38 1,1 C 88 % 1010,4 hPa 0,0 l/m 22,4 km/h (4 Bft) SW 230 0 min 0,000 mm 0,0 UV-I 0 W/m -0,7 C -9,2 C 40,2 km/h (6 Bft) 97,96 %
04.01.2017 20:40 1,1 C 88 % 1010,4 hPa 0,0 l/m 23,1 km/h (4 Bft) W-SW 248 0 min 0,000 mm 0,0 UV-I 0 W/m -0,7 C -9,5 C 32,2 km/h (5 Bft) 97,87 %
04.01.2017 20:42 1,2 C 88 % 1010,3 hPa 0,0 l/m 22,7 km/h (4 Bft) W-SW 251 0 min 0,000 mm 0,0 UV-I 0 W/m -0,6 C -9,2 C 35,4 km/h (5 Bft) 97,73 %
04.01.2017 20:44 1,2 C 87 % 1010,4 hPa 0,0 l/m 21,6 km/h (4 Bft) SW 219 0 min 0,000 mm 0,0 UV-I 0 W/m -0,7 C -8,8 C 37,0 km/h (5 Bft) 98,11 %
04.01.2017 20:46 1,2 C 87 % 1010,3 hPa 0,0 l/m 25,0 km/h (4 Bft) SW 222 0 min 0,000 mm 0,0 UV-I 0 W/m -0,7 C -10,1 C 37,0 km/h (5 Bft) 94,74 %
04.01.2017 20:48 1,2 C 87 % 1010,3 hPa 0,0 l/m 19,7 km/h (3 Bft) SW 229 0 min 0,000 mm 0,0 UV-I 0 W/m -0,7 C -7,9 C 30,6 km/h (5 Bft) 96,23 %
04.01.2017 20:50 1,2 C 87 % 1010,4 hPa 0,0 l/m 23,9 km/h (4 Bft) W 269 0 min 0,000 mm 0,0 UV-I 0 W/m -0,7 C -9,7 C 33,8 km/h (5 Bft) 97,73 %
04.01.2017 20:52 1,3 C 87 % 1010,4 hPa 0,0 l/m 21,7 km/h (4 Bft) W-SW 256 0 min 0,000 mm 0,0 UV-I 0 W/m -0,6 C -8,7 C 32,2 km/h (5 Bft) 98,11 %
04.01.2017 20:54 1,3 C 87 % 1010,5 hPa 0,0 l/m 22,2 km/h (4 Bft) W-SW 250 0 min 0,000 mm 0,0 UV-I 0 W/m -0,6 C -8,9 C 38,6 km/h (5 Bft) 95,74 %
04.01.2017 20:56 1,2 C 87 % 1010,5 hPa 0,0 l/m 19,7 km/h (3 Bft) W-SW 238 0 min 0,000 mm 0,0 UV-I 0 W/m -0,7 C -7,9 C 29,0 km/h (5 Bft) 96,55 %
04.01.2017 20:58 1,2 C 87 % 1010,5 hPa 0,0 l/m 25,2 km/h (4 Bft) W-SW 244 0 min 0,000 mm 0,0 UV-I 0 W/m -0,7 C -10,2 C 40,2 km/h (6 Bft) 98,11 %
04.01.2017 21:00 1,2 C 88 % 1010,6 hPa 0,0 l/m 17,5 km/h (3 Bft) W-SW 250 0 min 0,026 mm 0,0 UV-I 0 W/m -0,6 C -6,9 C 27,4 km/h (4 Bft) 98,21 %
04.01.2017 21:02 1,2 C 88 % 1010,7 hPa 0,0 l/m 17,2 km/h (3 Bft) W-SW 251 0 min 0,000 mm 0,0 UV-I 0 W/m -0,6 C -6,7 C 24,1 km/h (4 Bft) 96,30 %
04.01.2017 21:04 1,1 C 89 % 1010,6 hPa 0,0 l/m 19,8 km/h (3 Bft) SW 219 0 min 0,000 mm 0,0 UV-I 0 W/m -0,5 C -8,1 C 25,7 km/h (4 Bft) 97,14 %
04.01.2017 21:06 1,1 C 89 % 1010,6 hPa 0,0 l/m 17,3 km/h (3 Bft) SW 231 0 min 0,000 mm 0,0 UV-I 0 W/m -0,5 C -6,9 C 25,7 km/h (4 Bft) 97,37 %
04.01.2017 21:08 1,0 C 89 % 1010,6 hPa 0,0 l/m 14,2 km/h (3 Bft) SW 232 0 min 0,000 mm 0,0 UV-I 0 W/m -0,6 C -5,3 C 20,9 km/h (4 Bft) 97,87 %
04.01.2017 21:10 1,0 C 89 % 1010,6 hPa 0,0 l/m 18,9 km/h (3 Bft) W-SW 248 0 min 0,000 mm 0,0 UV-I 0 W/m -0,6 C -7,8 C 25,7 km/h (4 Bft) 98,11 %
04.01.2017 21:12 0,9 C 89 % 1010,6 hPa 0,0 l/m 19,8 km/h (3 Bft) SW 225 0 min 0,000 mm 0,0 UV-I 0 W/m -0,7 C -8,4 C 29,0 km/h (5 Bft) 97,73 %
04.01.2017 21:14 0,9 C 89 % 1010,7 hPa 0,0 l/m 17,8 km/h (3 Bft) SW 234 0 min 0,000 mm 0,0 UV-I 0 W/m -0,7 C -7,4 C 24,1 km/h (4 Bft) 98,11 %
04.01.2017 21:16 0,9 C 89 % 1010,7 hPa 0,0 l/m 17,6 km/h (3 Bft) SW 234 0 min 0,000 mm 0,0 UV-I 0 W/m -0,7 C -7,3 C 27,4 km/h (4 Bft) 100,00 %
04.01.2017 21:18 0,9 C 89 % 1010,6 hPa 0,0 l/m 19,7 km/h (3 Bft) SW 222 0 min 0,000 mm 0,0 UV-I 0 W/m -0,7 C -8,3 C 25,7 km/h (4 Bft) 100,00 %
04.01.2017 21:20 0,9 C 89 % 1010,7 hPa 0,0 l/m 20,2 km/h (4 Bft) W 269 0 min 0,000 mm 0,0 UV-I 0 W/m -0,7 C -8,6 C 29,0 km/h (5 Bft) 98,21 %
04.01.2017 21:22 0,9 C 89 % 1010,7 hPa 0,0 l/m 20,1 km/h (4 Bft) W 269 0 min 0,000 mm 0,0 UV-I 0 W/m -0,7 C -8,5 C 29,0 km/h (5 Bft) 100,00 %
04.01.2017 21:24 0,9 C 89 % 1010,7 hPa 0,0 l/m 20,1 km/h (4 Bft) W-SW 243 0 min 0,000 mm 0,0 UV-I 0 W/m -0,7 C -8,5 C 30,6 km/h (5 Bft) 100,00 %
04.01.2017 21:26 0,9 C 89 % 1010,6 hPa 0,0 l/m 23,6 km/h (4 Bft) W-SW 238 0 min 0,000 mm 0,0 UV-I 0 W/m -0,7 C -10,0 C 35,4 km/h (5 Bft) 100,00 %
04.01.2017 21:28 1,0 C 89 % 1010,8 hPa 0,0 l/m 18,0 km/h (3 Bft) SW 221 0 min 0,000 mm 0,0 UV-I 0 W/m -0,6 C -7,4 C 24,1 km/h (4 Bft) 100,00 %
04.01.2017 21:30 1,0 C 89 % 1010,8 hPa 0,0 l/m 18,7 km/h (3 Bft) SW 217 0 min 0,000 mm 0,0 UV-I 0 W/m -0,6 C -7,7 C 27,4 km/h (4 Bft) 100,00 %
04.01.2017 21:32 1,0 C 89 % 1010,8 hPa 0,0 l/m 22,8 km/h (4 Bft) W 264 0 min 0,000 mm 0,0 UV-I 0 W/m -0,6 C -9,5 C 35,4 km/h (5 Bft) 100,00 %
04.01.2017 21:34 1,0 C 88 % 1010,8 hPa 0,0 l/m 20,9 km/h (4 Bft) W-SW 252 0 min 0,000 mm 0,0 UV-I 0 W/m -0,8 C -8,7 C 29,0 km/h (5 Bft) 100,00 %
04.01.2017 21:36 1,0 C 88 % 1010,8 hPa 0,0 l/m 18,4 km/h (3 Bft) W 265 0 min 0,000 mm 0,0 UV-I 0 W/m -0,8 C -7,6 C 29,0 km/h (5 Bft) 96,92 %
04.01.2017 21:38 1,0 C 88 % 1010,8 hPa 0,0 l/m 16,3 km/h (3 Bft) W 259 0 min 0,000 mm 0,0 UV-I 0 W/m -0,8 C -6,5 C 27,4 km/h (4 Bft) 98,00 %
04.01.2017 21:40 1,0 C 88 % 1010,7 hPa 0,0 l/m 17,1 km/h (3 Bft) W-SW 250 0 min 0,000 mm 0,0 UV-I 0 W/m -0,8 C -6,9 C 27,4 km/h (4 Bft) 100,00 %
04.01.2017 21:42 1,0 C 88 % 1010,8 hPa 0,0 l/m 19,7 km/h (3 Bft) W-SW 255 0 min 0,000 mm 0,0 UV-I 0 W/m -0,8 C -8,2 C 32,2 km/h (5 Bft) 100,00 %
04.01.2017 21:44 1,0 C 89 % 1010,7 hPa 0,0 l/m 16,2 km/h (3 Bft) W-SW 254 0 min 0,000 mm 0,0 UV-I 0 W/m -0,6 C -6,4 C 27,4 km/h (4 Bft) 100,00 %
04.01.2017 21:46 1,0 C 89 % 1010,8 hPa 0,0 l/m 16,3 km/h (3 Bft) W 273 0 min 0,000 mm 0,0 UV-I 0 W/m -0,6 C -6,5 C 25,7 km/h (4 Bft) 97,73 %
04.01.2017 21:48 0,9 C 90 % 1010,8 hPa 0,0 l/m 14,5 km/h (3 Bft) SW 219 0 min 0,000 mm 0,0 UV-I 0 W/m -0,6 C -5,6 C 22,5 km/h (4 Bft) 100,00 %
04.01.2017 21:50 0,9 C 90 % 1010,8 hPa 0,0 l/m 17,6 km/h (3 Bft) SW 236 0 min 0,000 mm 0,0 UV-I 0 W/m -0,6 C -7,3 C 25,7 km/h (4 Bft) 100,00 %
04.01.2017 21:52 0,8 C 90 % 1010,6 hPa 0,0 l/m 19,6 km/h (3 Bft) W-SW 242 0 min 0,000 mm 0,0 UV-I 0 W/m -0,6 C -8,4 C 32,2 km/h (5 Bft) 100,00 %
04.01.2017 21:54 0,8 C 91 % 1010,7 hPa 0,0 l/m 19,4 km/h (3 Bft) W 268 0 min 0,000 mm 0,0 UV-I 0 W/m -0,5 C -8,3 C 25,7 km/h (4 Bft) 100,00 %
04.01.2017 21:56 0,7 C 91 % 1010,7 hPa 0,0 l/m 20,6 km/h (4 Bft) W 277 0 min 0,000 mm 0,0 UV-I 0 W/m -0,6 C -9,0 C 30,6 km/h (5 Bft) 100,00 %
04.01.2017 21:58 0,7 C 91 % 1010,7 hPa 0,0 l/m 20,8 km/h (4 Bft) W-SW 257 0 min 0,000 mm 0,0 UV-I 0 W/m -0,6 C -9,1 C 27,4 km/h (4 Bft) 100,00 %
04.01.2017 22:00 0,7 C 91 % 1010,7 hPa 0,0 l/m 20,6 km/h (4 Bft) W 265 0 min 0,000 mm 0,0 UV-I 0 W/m -0,6 C -9,0 C 25,7 km/h (4 Bft) 100,00 %
04.01.2017 22:02 0,7 C 91 % 1010,8 hPa 0,0 l/m 19,9 km/h (4 Bft) W-SW 257 0 min 0,025 mm 0,0 UV-I 0 W/m -0,6 C -8,7 C 29,0 km/h (5 Bft) 100,00 %
04.01.2017 22:04 0,7 C 91 % 1010,7 hPa 0,0 l/m 21,2 km/h (4 Bft) SW 234 0 min 0,000 mm 0,0 UV-I 0 W/m -0,6 C -9,3 C 29,0 km/h (5 Bft) 97,73 %
04.01.2017 22:06 0,7 C 91 % 1010,7 hPa 0,0 l/m 17,7 km/h (3 Bft) W-SW 240 0 min 0,000 mm 0,0 UV-I 0 W/m -0,6 C -7,6 C 27,4 km/h (4 Bft) 100,00 %
04.01.2017 22:08 0,7 C 91 % 1010,7 hPa 0,0 l/m 18,4 km/h (3 Bft) W-SW 244 0 min 0,000 mm 0,0 UV-I 0 W/m -0,6 C -8,0 C 32,2 km/h (5 Bft) 97,37 %
04.01.2017 22:10 0,7 C 91 % 1010,6 hPa 0,0 l/m 22,0 km/h (4 Bft) W-SW 244 0 min 0,000 mm 0,0 UV-I 0 W/m -0,6 C -9,6 C 32,2 km/h (5 Bft) 100,00 %
04.01.2017 22:12 0,8 C 90 % 1010,7 hPa 0,0 l/m 20,7 km/h (4 Bft) W-SW 245 0 min 0,000 mm 0,0 UV-I 0 W/m -0,6 C -8,9 C 32,2 km/h (5 Bft) 100,00 %
04.01.2017 22:14 0,8 C 90 % 1010,7 hPa 0,0 l/m 22,5 km/h (4 Bft) W-SW 249 0 min 0,000 mm 0,0 UV-I 0 W/m -0,6 C -9,7 C 32,2 km/h (5 Bft) 100,00 %
04.01.2017 22:16 0,8 C 89 % 1010,7 hPa 0,0 l/m 18,0 km/h (3 Bft) W-SW 247 0 min 0,000 mm 0,0 UV-I 0 W/m -0,8 C -7,6 C 29,0 km/h (5 Bft) 98,21 %
04.01.2017 22:18 0,9 C 89 % 1010,7 hPa 0,0 l/m 19,0 km/h (3 Bft) W-SW 248 0 min 0,000 mm 0,0 UV-I 0 W/m -0,7 C -8,0 C 29,0 km/h (5 Bft) 97,73 %
04.01.2017 22:20 0,9 C 89 % 1010,7 hPa 0,0 l/m 18,9 km/h (3 Bft) W-SW 254 0 min 0,000 mm 0,0 UV-I 0 W/m -0,7 C -8,0 C 25,7 km/h (4 Bft) 97,37 %
04.01.2017 22:22 0,9 C 88 % 1010,7 hPa 0,0 l/m 24,3 km/h (4 Bft) W-SW 252 0 min 0,000 mm 0,0 UV-I 0 W/m -0,9 C -10,2 C 35,4 km/h (5 Bft) 98,00 %
04.01.2017 22:24 1,0 C 88 % 1010,8 hPa 0,0 l/m 22,7 km/h (4 Bft) W-SW 240 0 min 0,000 mm 0,0 UV-I 0 W/m -0,8 C -9,5 C 30,6 km/h (5 Bft) 100,00 %
04.01.2017 22:26 1,1 C 88 % 1010,7 hPa 0,0 l/m 22,3 km/h (4 Bft) W 260 0 min 0,000 mm 0,0 UV-I 0 W/m -0,7 C -9,2 C 33,8 km/h (5 Bft) 100,00 %
04.01.2017 22:28 1,1 C 88 % 1010,8 hPa 0,0 l/m 20,4 km/h (4 Bft) W-SW 244 0 min 0,000 mm 0,0 UV-I 0 W/m -0,7 C -8,4 C 32,2 km/h (5 Bft) 100,00 %
04.01.2017 22:30 1,1 C 88 % 1010,8 hPa 0,0 l/m 18,7 km/h (3 Bft) SW 234 0 min 0,000 mm 0,0 UV-I 0 W/m -0,7 C -7,6 C 29,0 km/h (5 Bft) 100,00 %
04.01.2017 22:32 1,1 C 87 % 1010,7 hPa 0,0 l/m 25,8 km/h (4 Bft) W-SW 254 0 min 0,000 mm 0,0 UV-I 0 W/m -0,8 C -10,5 C 45,1 km/h (6 Bft) 100,00 %
04.01.2017 22:34 1,1 C 87 % 1010,7 hPa 0,0 l/m 19,9 km/h (4 Bft) W 272 0 min 0,000 mm 0,0 UV-I 0 W/m -0,8 C -8,2 C 32,2 km/h (5 Bft) 100,00 %
04.01.2017 22:36 1,2 C 87 % 1010,7 hPa 0,0 l/m 23,6 km/h (4 Bft) W-SW 246 0 min 0,000 mm 0,0 UV-I 0 W/m -0,7 C -9,6 C 33,8 km/h (5 Bft) 100,00 %
04.01.2017 22:38 1,2 C 87 % 1010,6 hPa 0,0 l/m 19,9 km/h (4 Bft) W-SW 255 0 min 0,000 mm 0,0 UV-I 0 W/m -0,7 C -8,0 C 29,0 km/h (5 Bft) 100,00 %
04.01.2017 22:40 1,2 C 87 % 1010,6 hPa 0,0 l/m 21,5 km/h (4 Bft) W 276 0 min 0,000 mm 0,0 UV-I 0 W/m -0,7 C -8,7 C 30,6 km/h (5 Bft) 100,00 %
04.01.2017 22:42 1,2 C 87 % 1010,6 hPa 0,0 l/m 21,6 km/h (4 Bft) SW 233 0 min 0,000 mm 0,0 UV-I 0 W/m -0,7 C -8,8 C 33,8 km/h (5 Bft) 100,00 %
04.01.2017 22:44 1,2 C 87 % 1010,7 hPa 0,0 l/m 19,5 km/h (3 Bft) W-SW 252 0 min 0,000 mm 0,0 UV-I 0 W/m -0,7 C -7,9 C 33,8 km/h (5 Bft) 97,37 %
04.01.2017 22:46 1,2 C 87 % 1010,7 hPa 0,0 l/m 18,5 km/h (3 Bft) W-SW 256 0 min 0,000 mm 0,0 UV-I 0 W/m -0,7 C -7,4 C 27,4 km/h (4 Bft) 98,11 %
04.01.2017 22:48 1,2 C 87 % 1010,7 hPa 0,0 l/m 22,7 km/h (4 Bft) W 281 0 min 0,000 mm 0,0 UV-I 0 W/m -0,7 C -9,2 C 37,0 km/h (5 Bft) 97,87 %
04.01.2017 22:50 1,2 C 87 % 1010,7 hPa 0,0 l/m 24,2 km/h (4 Bft) W 265 0 min 0,000 mm 0,0 UV-I 0 W/m -0,7 C -9,8 C 33,8 km/h (5 Bft) 96,00 %
04.01.2017 22:52 1,1 C 87 % 1010,6 hPa 0,0 l/m 23,1 km/h (4 Bft) W-SW 258 0 min 0,000 mm 0,0 UV-I 0 W/m -0,8 C -9,5 C 35,4 km/h (5 Bft) 97,37 %
04.01.2017 22:54 1,1 C 87 % 1010,7 hPa 0,0 l/m 25,4 km/h (4 Bft) W-SW 249 0 min 0,000 mm 0,0 UV-I 0 W/m -0,8 C -10,4 C 33,8 km/h (5 Bft) 98,11 %
04.01.2017 22:56 1,1 C 87 % 1010,6 hPa 0,0 l/m 18,4 km/h (3 Bft) W-SW 238 0 min 0,000 mm 0,0 UV-I 0 W/m -0,8 C -7,5 C 29,0 km/h (5 Bft) 97,14 %
04.01.2017 22:58 1,1 C 88 % 1010,7 hPa 0,0 l/m 20,2 km/h (4 Bft) W 265 0 min 0,000 mm 0,0 UV-I 0 W/m -0,7 C -8,3 C 30,6 km/h (5 Bft) 98,31 %
04.01.2017 23:00 1,1 C 88 % 1010,7 hPa 0,0 l/m 20,8 km/h (4 Bft) W-SW 252 0 min 0,026 mm 0,0 UV-I 0 W/m -0,7 C -8,6 C 30,6 km/h (5 Bft) 94,74 %
04.01.2017 23:03 1,1 C 88 % 1010,6 hPa 0,0 l/m 20,5 km/h (4 Bft) W-NW 294 0 min 0,000 mm 0,0 UV-I 0 W/m -0,7 C -8,4 C 33,8 km/h (5 Bft) 96,39 %
04.01.2017 23:04 1,1 C 88 % 1010,6 hPa 0,0 l/m 24,1 km/h (4 Bft) W-SW 258 0 min 0,000 mm 0,0 UV-I 0 W/m -0,7 C -9,9 C 29,0 km/h (5 Bft) 100,00 %
04.01.2017 23:06 1,1 C 88 % 1010,5 hPa 0,0 l/m 19,0 km/h (3 Bft) W-SW 246 0 min 0,000 mm 0,0 UV-I 0 W/m -0,7 C -7,7 C 29,0 km/h (5 Bft) 95,74 %
04.01.2017 23:08 1,1 C 87 % 1010,6 hPa 0,0 l/m 22,2 km/h (4 Bft) W-SW 247 0 min 0,000 mm 0,0 UV-I 0 W/m -0,8 C -9,2 C 41,8 km/h (6 Bft) 98,00 %
04.01.2017 23:10 1,1 C 87 % 1010,6 hPa 0,0 l/m 15,6 km/h (3 Bft) W-SW 253 0 min 0,000 mm 0,0 UV-I 0 W/m -0,8 C -6,0 C 24,1 km/h (4 Bft) 98,00 %
04.01.2017 23:12 1,1 C 87 % 1010,6 hPa 0,0 l/m 19,8 km/h (3 Bft) W-SW 249 0 min 0,000 mm 0,0 UV-I 0 W/m -0,8 C -8,1 C 30,6 km/h (5 Bft) 97,62 %
04.01.2017 23:14 1,1 C 87 % 1010,6 hPa 0,0 l/m 21,9 km/h (4 Bft) W 279 0 min 0,000 mm 0,0 UV-I 0 W/m -0,8 C -9,0 C 33,8 km/h (5 Bft) 96,15 %
04.01.2017 23:16 1,1 C 87 % 1010,6 hPa 0,0 l/m 18,5 km/h (3 Bft) W 265 0 min 0,000 mm 0,0 UV-I 0 W/m -0,8 C -7,5 C 27,4 km/h (4 Bft) 97,62 %
04.01.2017 23:18 1,1 C 87 % 1010,7 hPa 0,0 l/m 26,6 km/h (4 Bft) W-SW 240 0 min 0,000 mm 0,0 UV-I 0 W/m -0,8 C -10,8 C 41,8 km/h (6 Bft) 95,12 %
04.01.2017 23:20 1,1 C 87 % 1010,7 hPa 0,0 l/m 16,7 km/h (3 Bft) W-SW 247 0 min 0,000 mm 0,0 UV-I 0 W/m -0,8 C -6,6 C 30,6 km/h (5 Bft) 98,21 %
04.01.2017 23:22 1,1 C 87 % 1010,7 hPa 0,0 l/m 19,9 km/h (4 Bft) W-SW 237 0 min 0,000 mm 0,0 UV-I 0 W/m -0,8 C -8,2 C 32,2 km/h (5 Bft) 93,62 %
04.01.2017 23:24 1,1 C 87 % 1010,7 hPa 0,0 l/m 19,0 km/h (3 Bft) W-SW 240 0 min 0,000 mm 0,0 UV-I 0 W/m -0,8 C -7,7 C 29,0 km/h (5 Bft) 97,56 %
04.01.2017 23:26 1,1 C 87 % 1010,7 hPa 0,0 l/m 19,0 km/h (3 Bft) W 276 0 min 0,000 mm 0,0 UV-I 0 W/m -0,8 C -7,7 C 29,0 km/h (5 Bft) 97,73 %
04.01.2017 23:28 1,1 C 87 % 1010,9 hPa 0,0 l/m 19,9 km/h (4 Bft) W 269 0 min 0,000 mm 0,0 UV-I 0 W/m -0,8 C -8,2 C 40,2 km/h (6 Bft) 100,00 %
04.01.2017 23:30 1,1 C 86 % 1010,8 hPa 0,0 l/m 18,0 km/h (3 Bft) W 265 0 min 0,000 mm 0,0 UV-I 0 W/m -1,0 C -7,3 C 27,4 km/h (4 Bft) 100,00 %
04.01.2017 23:32 1,1 C 87 % 1010,8 hPa 0,0 l/m 22,7 km/h (4 Bft) W-SW 252 0 min 0,000 mm 0,0 UV-I 0 W/m -0,8 C -9,4 C 38,6 km/h (5 Bft) 96,43 %
04.01.2017 23:34 1,1 C 87 % 1010,9 hPa 0,0 l/m 17,8 km/h (3 Bft) W-SW 240 0 min 0,000 mm 0,0 UV-I 0 W/m -0,8 C -7,2 C 25,7 km/h (4 Bft) 100,00 %
04.01.2017 23:36 1,1 C 86 % 1010,9 hPa 0,0 l/m 18,3 km/h (3 Bft) W 261 0 min 0,000 mm 0,0 UV-I 0 W/m -1,0 C -7,4 C 30,6 km/h (5 Bft) 98,00 %
04.01.2017 23:38 1,1 C 86 % 1010,9 hPa 0,0 l/m 17,9 km/h (3 Bft) W 269 0 min 0,000 mm 0,0 UV-I 0 W/m -1,0 C -7,2 C 25,7 km/h (4 Bft) 97,56 %
04.01.2017 23:40 1,1 C 86 % 1011,0 hPa 0,0 l/m 18,7 km/h (3 Bft) W-SW 256 0 min 0,000 mm 0,0 UV-I 0 W/m -1,0 C -7,6 C 24,1 km/h (4 Bft) 100,00 %
04.01.2017 23:42 1,1 C 86 % 1011,0 hPa 0,0 l/m 17,9 km/h (3 Bft) W-SW 253 0 min 0,000 mm 0,0 UV-I 0 W/m -1,0 C -7,2 C 29,0 km/h (5 Bft) 100,00 %
04.01.2017 23:44 1,1 C 86 % 1011,0 hPa 0,0 l/m 16,7 km/h (3 Bft) W 267 0 min 0,000 mm 0,0 UV-I 0 W/m -1,0 C -6,6 C 29,0 km/h (5 Bft) 94,00 %
04.01.2017 23:46 1,1 C 86 % 1011,0 hPa 0,0 l/m 14,6 km/h (3 Bft) W-SW 250 0 min 0,000 mm 0,0 UV-I 0 W/m -1,0 C -5,4 C 22,5 km/h (4 Bft) 100,00 %
04.01.2017 23:48 1,1 C 86 % 1011,1 hPa 0,0 l/m 17,4 km/h (3 Bft) W-SW 254 0 min 0,000 mm 0,0 UV-I 0 W/m -1,0 C -7,0 C 25,7 km/h (4 Bft) 98,11 %
04.01.2017 23:50 1,1 C 86 % 1011,1 hPa 0,0 l/m 18,2 km/h (3 Bft) W 263 0 min 0,000 mm 0,0 UV-I 0 W/m -1,0 C -7,4 C 35,4 km/h (5 Bft) 100,00 %
04.01.2017 23:52 1,1 C 86 % 1011,2 hPa 0,0 l/m 15,4 km/h (3 Bft) W 265 0 min 0,000 mm 0,0 UV-I 0 W/m -1,0 C -5,9 C 22,5 km/h (4 Bft) 98,18 %
04.01.2017 23:54 1,1 C 86 % 1011,2 hPa 0,0 l/m 16,6 km/h (3 Bft) W-SW 248 0 min 0,000 mm 0,0 UV-I 0 W/m -1,0 C -6,5 C 29,0 km/h (5 Bft) 100,00 %
04.01.2017 23:56 1,1 C 86 % 1011,2 hPa 0,0 l/m 17,1 km/h (3 Bft) W 267 0 min 0,000 mm 0,0 UV-I 0 W/m -1,0 C -6,8 C 29,0 km/h (5 Bft) 100,00 %
04.01.2017 23:58 1,1 C 86 % 1011,3 hPa 0,0 l/m 15,7 km/h (3 Bft) W 269 0 min 0,000 mm 0,0 UV-I 0 W/m -1,0 C -6,0 C 22,5 km/h (4 Bft) 100,00 %
_ Min-Zeit 00:02 02:52 16:30 - 01:52 - - - - - - 02:16 03:14 01:54 05:38
Minimum _ -0,7 C 67 % 1009,1 hPa - 9,9 km/h (2 Bft) - - - - - - -4,0 C -14,2 C 14,5 km/h (3 Bft) 91,49 %
_ Max-Zeit 06:48 13:24 00:00 03:00 03:14 - - 00:00 03:02 00:00 11:58 14:40 16:12 03:14 00:02
Maximum _ 1,6 C 96 % 1020,0 hPa 0,2 l/m 39,7 km/h
W (6 Bft)
- - 0 min 0,051 mm 0,0 UV-I 79 W/m 0,6 C -3,5 C 64,4 km/h
W (8 Bft)
100,00 %
Durchschnitt _ 0,7 C 88 % 1012,4 hPa #0,2 l/m 20,7 km/h (4 Bft) W-SW - #0 min. #0,610 mm 0,0 UV-I 38 W/m -1,1 C -8,9 C 31,5 km/h (5 Bft) 98,41 %